[[{"header":{"parameterUnit":"m.s-1","parameterCategory":1,"la1":30.6,"la2":29.2853,"lo1":-89.7004,"lo2":-87.6739,"dy":0.0162,"dx":0.0183,"nx":112,"ny":82,"refTime":"2024-07-10T06:00:00:Z","depth":0,"parameterNumber":2,"parameterNumberName":"U-component_of_WINDS"},"data":[0.0,0.0,0.0,0.0,0.0,0.0,0.0,0.0,0.0,0.0,0.0,0.0,0.0,0.0,0.0,0.0,0.0,0.0,0.0,0.0,0.0,0.0,0.0,0.0,0.0,0.0,0.0,0.0,0.0,0.0,0.0,0.0,0.0,0.0,0.0,0.0,0.0,0.0,0.0,0.0,0.0,0.0,0.0,0.0,0.0,0.0,0.0,0.0,0.0,0.0,0.0,0.0,0.0,0.0,0.0,0.0,0.0,0.0,0.0,0.0,0.0,0.0,0.0,0.0,0.0,0.0,0.0,0.0,0.0,0.0,0.0,0.0,0.0,0.0,0.0,0.0,0.0,0.0,0.0,0.0,0.0,0.0,0.0,0.0,0.0,0.0,0.0,0.0,0.0,0.0,1.4822,1.6087,1.8642,2.0267,2.0355,2.0325,1.9006,1.5913,0.0,0.0,0.0,0.0,0.0,0.0,0.0,0.0,0.0,0.0,0.0,0.0,0.0,0.0,0.0,0.0,0.0,0.0,0.0,0.0,0.0,0.0,0.0,0.0,0.0,0.0,0.0,0.0,0.0,0.0,0.0,0.0,0.0,0.0,0.0,0.0,0.0,0.0,0.0,0.0,0.0,0.0,0.0,0.0,0.0,0.0,0.0,0.0,0.0,0.0,0.0,0.0,0.0,0.0,0.0,0.0,0.0,0.0,0.0,0.0,0.0,0.0,0.0,0.0,0.0,0.0,0.0,0.0,0.0,0.0,0.0,0.0,0.0,0.0,0.0,0.0,0.0,0.0,0.0,0.0,0.0,0.0,0.0,0.0,0.0,0.0,0.0,0.0,0.0,0.0,0.0,0.0,0.0,0.0,0.0,0.0,0.0,0.0,0.0,0.0,0.0,0.0,0.0,0.0,1.4876,1.8305,1.9746,2.0636,2.1011,2.0089,1.8824,1.7282,0.0,0.0,0.0,0.0,0.0,0.0,0.0,0.0,0.0,0.0,0.0,0.0,0.0,0.0,0.0,0.0,0.0,0.0,0.0,0.0,0.0,0.0,0.0,0.0,0.0,0.0,0.0,0.0,0.0,0.0,0.0,0.0,0.0,0.0,0.0,0.0,0.0,0.0,0.0,0.0,0.0,0.0,0.0,0.0,0.0,0.0,0.0,0.0,0.0,0.0,0.0,0.0,0.0,0.0,0.0,0.0,0.0,0.0,0.0,0.0,0.0,0.0,0.0,0.0,0.0,0.0,0.0,0.0,0.0,0.0,0.0,0.0,0.0,0.0,0.0,0.0,0.0,0.0,0.0,0.0,0.0,0.0,0.0,0.0,0.0,0.0,0.0,0.0,0.0,0.0,0.0,0.0,0.0,0.0,0.0,0.0,0.0,0.0,0.0,0.0,0.0,0.0,0.0,1.4699,1.637,1.9416,2.0847,2.1721,2.2039,2.0794,1.9354,1.7811,1.5425,0.0,0.0,0.0,0.0,0.0,0.0,0.0,0.0,0.0,0.0,0.0,0.0,0.0,0.0,0.0,0.0,0.0,0.0,0.0,0.0,0.0,0.0,0.0,0.0,0.0,0.0,0.0,0.0,0.0,0.0,0.0,0.0,0.0,0.0,0.0,0.0,0.0,0.0,0.0,0.0,0.0,0.0,0.0,0.0,0.0,0.0,0.0,0.0,0.0,0.0,0.0,0.0,0.0,0.0,0.0,0.0,0.0,0.0,0.0,0.0,0.0,0.0,0.0,0.0,0.0,0.0,0.0,0.0,0.0,0.0,0.0,0.0,0.0,0.0,0.0,0.0,0.0,0.0,0.0,0.0,0.0,0.0,0.0,0.0,0.0,0.0,0.0,0.0,0.0,0.0,0.0,0.0,0.0,0.0,0.0,0.0,0.0,0.0,0.0,0.0,0.0,0.0,1.6593,1.8263,2.0229,2.1712,2.2605,2.2685,2.1253,1.9633,1.7944,1.4983,0.0,0.0,0.0,0.0,0.0,0.0,0.0,0.0,0.0,0.0,0.0,0.0,0.0,0.0,0.0,0.0,0.0,0.0,0.0,0.0,0.0,0.0,0.0,0.0,0.0,0.0,0.0,0.0,0.0,0.0,0.0,0.0,0.0,0.0,0.0,0.0,0.0,0.0,0.0,0.0,0.0,0.0,0.0,0.0,0.0,0.0,0.0,0.0,0.0,0.0,0.0,0.0,0.0,0.0,0.0,0.0,0.0,0.0,0.0,0.0,0.0,0.0,0.0,0.0,0.0,0.0,0.0,0.0,0.0,0.0,0.0,0.0,0.0,0.0,0.0,0.0,0.0,0.0,0.0,0.0,0.0,0.0,0.0,0.0,0.0,0.0,0.0,0.0,0.0,0.0,0.0,0.0,0.0,0.0,0.0,0.0,0.0,0.0,0.0,0.0,0.0,0.0,1.7725,2.0263,2.107,2.2108,2.2659,2.2366,2.069,1.9074,1.7715,1.4327,0.0,0.0,0.0,0.0,0.0,0.0,0.0,0.0,0.0,0.0,0.0,0.0,0.0,0.0,0.0,0.0,0.0,0.0,0.0,0.0,0.0,0.0,0.0,0.0,0.0,0.0,0.0,0.0,0.0,0.0,0.0,0.0,0.0,0.0,0.0,0.0,0.0,0.0,0.0,0.0,0.0,0.0,0.0,0.0,0.0,0.0,0.0,0.0,0.0,0.0,0.0,0.0,0.0,0.0,0.0,0.0,0.0,0.0,0.0,0.0,0.0,0.0,0.0,0.0,0.0,0.0,0.0,0.0,0.0,0.0,0.0,0.0,0.0,0.0,0.0,0.0,0.0,0.0,0.0,0.0,0.0,0.0,0.0,0.0,0.0,0.0,0.0,0.0,0.0,0.0,0.0,0.0,0.0,0.0,0.0,0.0,0.0,0.0,0.0,0.0,0.0,0.0,1.6931,1.9324,2.1017,2.2,2.2569,2.2569,2.0958,1.9379,1.7934,0.0,0.0,0.0,0.0,0.0,0.0,0.0,0.0,0.0,0.0,0.0,0.0,0.0,0.0,0.0,0.0,0.0,0.0,0.0,0.0,0.0,0.0,0.0,0.0,0.0,0.0,0.0,0.0,0.0,0.0,0.0,0.0,0.0,0.0,0.0,0.0,0.0,0.0,0.0,0.0,0.0,0.0,0.0,0.0,0.0,0.0,0.0,0.0,0.0,0.0,0.0,0.0,0.0,0.0,0.0,0.0,0.0,0.0,0.0,0.0,0.0,0.0,0.0,0.0,0.0,0.0,0.0,0.0,0.0,0.0,0.0,0.0,0.0,0.0,0.0,0.0,0.0,0.0,0.0,0.0,0.0,0.0,0.0,0.0,0.0,0.0,0.0,0.0,0.0,0.0,0.0,0.0,0.0,0.0,0.0,0.0,0.0,0.0,0.0,0.0,0.0,0.0,1.4488,1.6978,1.9324,2.1329,2.2044,2.233,2.2236,2.0797,1.9126,1.7335,0.0,0.0,0.0,0.0,0.0,0.0,0.0,0.0,0.0,0.0,0.0,0.0,0.0,0.0,0.0,0.0,0.0,0.0,0.0,0.0,0.0,0.0,0.0,0.0,0.0,0.0,0.0,0.0,0.0,0.0,0.0,0.0,0.0,0.0,0.0,0.0,0.0,0.0,0.0,0.0,0.0,0.0,0.0,0.0,0.0,0.0,0.0,0.0,0.0,0.0,0.0,0.0,0.0,0.0,0.0,0.0,0.0,0.0,0.0,0.0,0.0,0.0,0.0,0.0,0.0,0.0,0.0,0.0,0.0,0.0,0.0,0.0,0.0,0.0,0.0,0.0,0.0,0.0,0.0,0.0,0.0,0.0,0.0,0.0,0.0,0.0,0.0,0.0,0.0,0.0,0.0,0.0,0.0,0.0,0.0,0.0,0.0,0.0,0.0,0.0,0.0,0.0,1.5308,1.8257,2.073,2.2158,2.2349,2.2071,2.1271,1.9962,1.8141,0.0,0.0,0.0,0.0,0.0,0.0,0.0,0.0,0.0,0.0,0.0,0.0,0.0,0.0,0.0,0.0,0.0,0.0,0.0,0.0,0.0,0.0,0.0,0.0,0.0,0.0,0.0,0.0,0.0,0.0,0.0,0.0,0.0,0.0,0.0,0.0,0.0,0.0,0.0,0.0,0.0,0.0,0.0,0.0,0.0,0.0,0.0,0.0,0.0,0.0,0.0,0.0,0.0,0.0,0.0,0.0,0.0,0.0,0.0,0.0,0.0,0.0,0.0,0.0,0.0,0.0,0.0,0.0,0.0,0.0,0.0,0.0,0.0,0.0,0.0,0.0,0.0,0.0,0.0,0.0,0.0,0.0,0.0,0.0,0.0,0.0,0.0,0.0,0.0,0.0,0.0,0.0,0.0,0.0,0.0,0.0,0.0,0.0,0.0,0.0,0.0,0.0,0.0,1.5308,1.8154,2.0619,2.2141,2.1864,2.1458,2.1221,1.9847,1.7986,1.5647,0.0,0.0,0.0,0.0,0.0,0.0,0.0,0.0,0.0,0.0,0.0,0.0,0.0,0.0,0.0,0.0,0.0,0.0,0.0,0.0,0.0,0.0,0.0,0.0,0.0,0.0,0.0,0.0,0.0,0.0,0.0,0.0,0.0,0.0,0.0,0.0,0.0,0.0,0.0,0.0,0.0,0.0,0.0,0.0,0.0,0.0,0.0,0.0,0.0,0.0,0.0,0.0,0.0,0.0,0.0,0.0,0.0,0.0,0.0,0.0,0.0,0.0,0.0,0.0,0.0,0.0,0.0,0.0,0.0,0.0,0.0,0.0,0.0,0.0,0.0,0.0,0.0,0.0,0.0,0.0,0.0,0.0,0.0,0.0,0.0,0.0,0.0,0.0,0.0,0.0,0.0,0.0,0.0,0.0,0.0,0.0,0.0,0.0,0.0,0.0,0.0,0.0,1.5715,1.8323,2.0576,2.2158,2.1634,2.1059,2.0737,1.9604,1.7789,1.5213,0.0,0.0,0.0,0.0,0.0,0.0,0.0,0.0,0.0,0.0,0.0,0.0,0.0,0.0,0.0,0.0,0.0,0.0,0.0,0.0,0.0,0.0,0.0,0.0,0.0,0.0,0.0,0.0,0.0,0.0,0.0,0.0,0.0,0.0,0.0,0.0,0.0,0.0,0.0,0.0,0.0,0.0,0.0,0.0,0.0,0.0,0.0,0.0,0.0,0.0,0.0,0.0,0.0,0.0,0.0,0.0,0.0,0.0,0.0,0.0,0.0,0.0,0.0,0.0,0.0,0.0,0.0,0.0,0.0,0.0,0.0,0.0,0.0,0.0,0.0,0.0,0.0,0.0,0.0,0.0,0.0,0.0,0.0,0.0,0.0,0.0,0.0,0.0,0.0,0.0,0.0,0.0,0.0,0.0,0.0,0.0,0.0,0.0,0.0,0.0,0.0,0.0,1.632,1.8636,2.066,2.213,2.1634,2.0873,2.0069,1.9333,1.7659,1.4695,0.0,0.0,0.0,0.0,0.0,0.0,0.0,0.0,0.0,0.0,0.0,0.0,0.0,0.0,0.0,0.0,0.0,0.0,0.0,0.0,0.0,0.0,0.0,0.0,0.0,0.0,0.0,0.0,0.0,0.0,0.0,0.0,0.0,0.0,0.0,0.0,0.0,0.0,0.0,0.0,0.0,0.0,0.0,0.0,0.0,0.0,0.0,0.0,0.0,0.0,0.0,0.0,0.0,0.0,0.0,0.0,0.0,0.0,0.0,0.0,1.3383,1.3045,0.0,0.0,0.0,0.0,0.0,0.0,0.0,0.0,0.0,0.0,0.0,0.0,0.0,0.0,0.0,0.0,0.0,0.0,0.0,0.0,0.0,0.0,0.0,0.0,0.0,0.0,0.0,0.0,0.0,0.0,0.0,0.0,0.0,0.0,0.0,0.0,0.0,0.0,0.0,0.0,1.6302,1.8968,2.1055,2.1972,2.1446,2.0733,1.9992,1.9284,1.7856,1.5412,1.4557,0.0,0.0,0.0,0.0,0.0,0.0,0.0,0.0,0.0,0.0,0.0,0.0,0.0,0.0,0.0,0.0,0.0,0.0,0.0,0.0,0.0,0.0,0.0,0.0,0.0,0.0,0.0,0.0,0.0,0.0,0.0,0.0,0.0,0.0,0.0,0.0,0.0,0.0,0.0,0.0,0.0,0.0,0.0,0.0,0.0,0.0,0.0,0.0,0.0,0.0,0.0,0.0,0.0,0.0,0.0,0.0,0.0,0.0,0.0,1.6484,1.6563,0.0,0.0,0.0,0.0,0.0,0.0,0.0,0.0,0.0,0.0,0.0,0.0,0.0,0.0,0.0,0.0,0.0,0.0,0.0,0.0,0.0,0.0,0.0,0.0,0.0,0.0,0.0,0.0,0.0,0.0,0.0,0.0,0.0,0.0,0.0,0.0,0.0,0.0,0.0,0.0,1.6798,1.9294,2.1195,2.1915,2.1373,2.0636,1.9898,1.921,1.8,1.611,1.5288,0.0,0.0,0.0,0.0,0.0,0.0,0.0,0.0,0.0,0.0,0.0,0.0,0.0,0.0,0.0,0.0,0.0,0.0,0.0,0.0,0.0,0.0,0.0,0.0,0.0,0.0,0.0,0.0,0.0,0.0,0.0,0.0,0.0,0.0,0.0,0.0,0.0,0.0,0.0,0.0,0.0,0.0,0.0,0.0,0.0,0.0,0.0,0.0,0.0,0.0,0.0,0.0,0.0,2.0366,2.123,2.2294,2.1142,2.121,2.207,1.9295,1.9479,2.1551,1.896,0.0,0.0,0.0,0.0,0.0,0.0,0.0,0.0,0.0,0.0,0.0,0.0,0.0,0.0,0.0,0.0,0.0,0.0,0.0,0.0,0.0,0.0,0.0,0.0,1.8449,1.8233,1.5781,0.0,0.0,0.0,0.0,0.0,0.0,0.0,0.0,0.0,0.0,0.0,1.7486,1.9677,2.1289,2.1903,2.1434,2.0782,2.0047,1.9311,1.8308,1.6948,1.6058,1.5044,0.0,0.0,0.0,0.0,0.0,0.0,0.0,0.0,0.0,0.0,0.0,0.0,0.0,0.0,0.0,0.0,0.0,0.0,0.0,0.0,0.0,0.0,0.0,0.0,0.0,0.0,0.0,0.0,0.0,0.0,0.0,0.0,1.3614,1.4368,0.0,0.0,0.0,0.0,0.0,0.0,0.0,0.0,0.0,0.0,0.0,0.0,0.0,1.8736,1.9641,2.0515,1.9826,1.7593,2.2647,2.5234,2.5545,2.4116,2.403,2.4909,2.2313,0.0,2.1601,2.1176,0.0,0.0,0.0,0.0,0.0,0.0,0.0,0.0,0.0,0.0,0.0,0.0,0.0,0.0,0.0,0.0,0.0,0.0,0.0,0.0,0.0,0.0,2.0936,2.039,2.082,2.1069,0.0,1.7748,1.581,1.5496,1.4507,0.0,0.0,0.0,0.0,0.0,0.0,0.0,1.8187,2.0318,2.1711,2.1811,2.1786,2.1466,2.0733,2.0037,1.9278,1.8368,1.7076,1.6242,1.5994,1.3894,0.0,0.0,0.0,0.0,0.0,0.0,0.0,0.0,0.0,0.0,0.0,0.0,0.0,0.0,0.0,0.0,0.0,0.0,0.0,0.0,0.0,0.0,0.0,0.0,0.0,0.0,0.0,0.0,0.0,1.352,1.5496,1.6581,1.6919,1.6984,0.0,0.0,0.0,0.0,0.0,0.0,0.0,0.0,0.0,2.0798,2.1327,2.1827,2.2297,2.3252,2.3112,2.1903,2.4736,2.6112,2.6191,2.5522,2.5441,2.571,2.4563,2.4,2.3945,2.3883,2.2112,1.9479,0.0,0.0,0.0,0.0,2.4178,2.3635,2.0742,2.0664,2.181,2.1815,0.0,0.0,0.0,0.0,0.0,0.0,0.0,1.9336,0.0,0.0,2.1814,2.1897,2.1834,2.1655,2.1325,2.0082,1.8703,0.0,1.68,1.5961,1.4692,0.0,0.0,0.0,0.0,1.7922,1.8989,2.0688,2.1797,2.1797,2.1827,2.1541,2.081,2.0472,1.9791,1.8635,1.797,1.7256,1.6426,1.504,1.3727,0.0,0.0,0.0,0.0,0.0,0.0,0.0,0.0,0.0,0.0,0.0,0.0,0.0,0.0,0.0,0.0,0.0,0.0,0.0,0.0,0.0,0.0,0.0,0.0,0.0,0.0,0.0,0.0,1.535,1.7277,1.8508,1.8977,1.9123,0.0,0.0,0.0,0.0,0.0,0.0,2.0878,2.2083,2.2792,2.2792,2.4172,2.479,2.4563,2.526,2.5616,2.5616,2.5901,2.6049,2.6059,2.6085,2.6069,2.597,2.5877,2.584,2.5828,2.5527,2.405,2.202,2.1915,2.2118,2.2781,2.5156,2.6126,2.5834,2.3273,2.2602,2.2851,2.25,2.2248,2.1568,1.8885,0.0,0.0,0.0,0.0,2.1089,2.2758,2.2758,2.2443,2.2777,2.2564,2.2186,2.1777,2.1704,2.1203,0.0,1.8904,1.8241,1.6565,0.0,0.0,0.0,1.7617,1.8993,1.9756,2.099,2.1797,2.1797,2.1797,2.1566,2.1019,2.0815,2.0224,1.9131,1.8873,1.8303,1.7256,1.6359,1.5238,1.387,0.0,0.0,0.0,0.0,0.0,0.0,0.0,0.0,0.0,0.0,0.0,0.0,0.0,0.0,0.0,0.0,0.0,0.0,0.0,0.0,0.0,0.0,0.0,0.0,0.0,0.0,0.0,0.0,0.0,2.0094,2.1374,0.0,0.0,0.0,0.0,2.2135,2.2216,2.2556,2.3268,2.3997,2.4385,2.4385,2.5988,2.6426,2.5551,2.56,2.5616,2.5616,2.5616,2.5616,2.5654,2.584,2.6007,2.6168,2.597,2.5934,2.5937,2.5146,2.4533,2.3997,2.3562,2.43,2.5668,2.5652,2.5848,2.599,2.443,2.483,2.5765,2.4331,2.3419,2.2806,2.2626,2.2559,0.0,0.0,2.3238,2.3802,2.3918,2.3918,2.3703,2.2978,2.3357,2.3488,2.1946,2.2161,2.2344,0.0,2.0733,2.0231,2.0046,0.0,1.828,1.899,1.9186,1.9568,2.0442,2.1246,2.1738,2.1781,2.1797,2.1764,2.1748,2.1085,2.0683,2.0572,1.9942,1.9502,1.9435,1.812,1.6994,1.6155,1.4176,0.0,0.0,0.0,0.0,0.0,0.0,0.0,0.0,0.0,0.0,0.0,0.0,0.0,0.0,0.0,0.0,0.0,0.0,0.0,0.0,0.0,0.0,0.0,0.0,0.0,0.0,0.0,0.0,2.2151,2.2782,0.0,2.2734,2.2701,2.2993,2.3689,2.4191,2.479,2.5503,2.6199,2.6555,2.6555,2.6847,2.6976,2.696,2.7883,2.8352,2.8352,2.8352,2.8352,2.8352,2.8436,2.8502,2.8568,2.7931,2.7653,2.762,2.7071,2.629,2.5337,2.5065,2.5346,2.5897,2.5877,2.5983,2.6132,2.559,2.5678,2.5796,2.4597,2.3852,2.3424,2.3424,2.344,2.3572,2.4,2.4346,2.4693,2.5102,2.4872,2.446,2.4163,2.3933,2.3638,2.3096,2.3129,2.321,2.2867,2.181,2.0837,2.037,2.0283,2.0183,2.0033,2.0466,2.0872,2.1193,2.1486,2.1664,2.1738,2.1738,2.1768,2.1797,2.1549,2.123,2.0749,2.0439,2.0108,1.9617,1.8641,1.7822,1.7093,1.556,1.3785,0.0,0.0,0.0,0.0,0.0,0.0,0.0,0.0,0.0,0.0,0.0,0.0,0.0,0.0,0.0,0.0,0.0,0.0,0.0,0.0,0.0,0.0,0.0,0.0,0.0,2.0169,2.1681,2.3077,2.4039,2.4414,2.4012,2.4539,2.5098,2.5551,2.6037,2.6523,2.7008,2.7462,2.7705,2.7705,2.764,2.7705,2.7948,2.9227,2.9918,2.9918,2.9918,2.9918,2.9918,2.9918,2.9918,2.9853,2.8744,2.8339,2.8388,2.8078,2.747,2.6623,2.6131,2.5934,2.5934,2.597,2.597,2.599,2.6019,2.5903,2.5702,2.5055,2.4656,2.4439,2.4439,2.4474,2.459,2.5064,2.5196,2.5346,2.5803,2.5537,2.5111,2.483,2.4585,2.4308,2.3749,2.3813,2.3876,2.3614,2.2524,2.1535,2.1098,2.121,2.1209,2.0754,2.1157,2.1511,2.1542,2.1542,2.1573,2.1664,2.1694,2.1708,2.1768,2.1768,2.1553,2.1085,2.0837,2.0444,2.0009,1.9005,1.8278,1.7814,1.6251,1.4624,1.2941,0.0,0.0,0.0,0.0,0.0,0.0,0.0,0.0,0.0,0.0,0.0,0.0,0.0,0.0,0.0,0.0,0.0,0.0,0.0,0.0,0.0,0.0,0.0,2.0372,2.1818,2.2907,2.2886,2.5157,2.6269,2.5084,2.6623,2.7664,2.7664,2.7721,2.7737,2.7737,2.7769,2.7769,2.7729,2.845,2.8709,2.8466,2.9405,2.9918,2.9918,2.9918,2.9918,2.9918,2.9918,2.9918,2.9837,2.8385,2.7891,2.8036,2.8005,2.8005,2.7945,2.6722,2.6162,2.6052,2.5987,2.5803,2.5586,2.5602,2.5602,2.5635,2.5815,2.5881,2.5881,2.5881,2.5881,2.5881,2.5881,2.5881,2.5881,2.5881,2.5897,2.568,2.4906,2.5317,2.5468,2.3905,2.4183,2.4512,2.3708,2.296,2.2458,2.2426,2.1843,2.1374,2.1357,2.1341,0.0,2.1386,2.1386,2.1464,2.1589,2.1664,2.1694,2.1694,2.1694,2.1738,2.1797,2.1044,2.0648,2.0721,1.926,1.8442,1.8409,1.6326,1.4971,1.4425,0.0,0.0,0.0,0.0,0.0,0.0,0.0,0.0,0.0,0.0,0.0,0.0,0.0,0.0,0.0,0.0,0.0,0.0,0.0,0.0,0.0,2.1079,2.2702,2.2194,2.3695,2.4894,2.51,2.6138,2.6709,2.6377,2.6809,2.7116,2.7116,2.7965,2.8498,2.8498,2.8984,2.9129,2.8745,2.9279,2.9578,2.947,2.9772,2.9918,2.9918,2.9918,2.9918,2.9918,2.9918,2.9918,2.9902,2.9497,2.9318,2.9404,2.9377,2.9361,2.9258,2.8106,2.7569,2.7427,2.7087,2.6389,2.564,2.5909,2.593,2.5799,2.5689,2.5721,2.5754,2.5712,2.5733,2.5754,2.5712,2.5733,2.5754,2.5712,2.5675,2.5642,2.541,2.5508,2.5577,2.5114,2.5179,2.5297,2.5065,2.4434,2.3754,2.3268,2.3009,2.2701,2.2183,2.2102,0.0,2.1405,2.134,2.1371,2.1464,2.1448,2.1556,2.1694,2.1694,2.1738,2.1797,2.1102,2.0936,2.1466,2.0064,1.909,1.8692,1.6862,1.569,0.0,0.0,0.0,0.0,0.0,0.0,0.0,0.0,0.0,0.0,0.0,0.0,0.0,0.0,0.0,0.0,0.0,0.0,0.0,0.0,0.0,0.0,2.2959,2.4265,2.428,2.5217,2.5945,2.613,2.6875,2.7284,2.7123,2.7551,2.7939,2.8162,2.8679,2.9134,2.9357,3.0018,3.0257,2.9943,3.0505,3.0765,3.0765,3.021,2.9918,2.9918,2.9918,2.9918,2.9918,2.9918,2.9918,2.9918,2.9918,2.9918,2.9918,2.9918,2.9918,0.0,0.0,0.0,0.0,0.0,2.6271,2.5637,2.6036,2.6131,2.5979,2.5766,2.5663,2.5647,2.56,2.5637,2.5659,2.5616,2.5637,2.5659,2.5616,2.5616,2.5616,2.5616,2.5616,2.5616,2.5616,2.554,2.5448,2.5448,2.5148,0.0,2.4325,2.3832,2.3367,2.2945,2.2588,2.2248,2.1827,2.1503,2.1309,2.1355,2.1386,2.1448,2.1556,2.1587,0.0,0.0,0.0,2.0669,2.0784,1.9937,0.0,0.0,0.0,0.0,0.0,0.0,0.0,0.0,1.6384,1.662,0.0,0.0,0.0,0.0,0.0,0.0,0.0,0.0,0.0,0.0,0.0,0.0,0.0,0.0,0.0,0.0,2.4555,2.5389,2.6211,2.6412,2.6427,2.635,2.7314,2.7812,2.7565,2.842,2.9281,2.9956,2.9692,2.977,3.0377,3.0895,0.0,0.0,0.0,3.1965,3.1901,3.0797,3.0243,3.0243,3.034,3.034,3.0226,3.0129,3.0048,3.0032,2.9951,2.9918,2.9918,2.9918,2.9918,2.9853,2.9231,2.8925,2.8576,2.6958,2.6047,2.5663,2.6005,0.0,0.0,2.5891,2.5724,2.5615,2.5584,2.5616,2.5616,2.5616,2.5616,2.5616,2.5616,2.5616,2.5616,2.5616,2.5616,2.5616,2.5616,2.5464,2.5333,2.5294,2.5294,2.5294,2.5294,2.4438,2.3724,2.3643,2.3075,2.2605,2.2443,2.1859,2.1437,2.1356,0.0,0.0,2.1417,2.1417,2.1464,2.162,2.0983,2.0295,1.9558,1.9523,1.9512,1.9446,1.9374,1.9325,1.9288,1.9509,1.9787,2.0009,1.8059,1.804,0.0,0.0,0.0,0.0,0.0,0.0,0.0,0.0,0.0,0.0,0.0,0.0,0.0,0.0,0.0,2.3516,2.5358,2.6688,2.6542,2.6943,2.7079,2.66,2.7161,2.778,2.8252,2.8469,2.9057,3.0176,3.0541,3.1018,3.163,3.1742,3.163,3.1209,3.1694,3.179,3.1372,3.1903,3.2174,3.2174,0.0,0.0,3.2141,3.1364,3.0911,3.0684,3.0117,2.9918,2.9918,2.9918,2.9918,2.9902,2.9756,2.9766,2.9839,2.9321,2.7632,2.5632,2.5688,2.5725,2.5707,2.5863,2.5848,2.5749,2.5654,2.5616,0.0,2.5616,2.5616,2.5616,2.5616,2.5616,2.5616,2.5616,2.5616,2.5616,2.5616,2.5578,2.5486,2.5333,2.5294,2.5294,2.5294,2.5223,2.4984,2.4385,2.4262,2.3844,2.2622,2.2443,2.2213,2.1624,2.1542,2.1573,2.1634,2.1603,2.1603,2.1664,2.1502,2.1049,2.0312,2.0747,2.0749,2.0196,2.0108,1.9787,1.9216,2.0012,2.0336,2.0221,1.9638,2.017,0.0,0.0,0.0,0.0,0.0,0.0,0.0,0.0,0.0,0.0,0.0,2.221,2.3257,0.0,2.4926,2.5361,2.6228,2.6904,2.7025,2.7134,2.7121,2.7066,2.7619,2.8106,2.8465,2.8764,2.9319,3.025,3.0349,3.0608,3.1282,3.1564,3.1632,3.1351,3.1894,3.2218,3.2171,3.3012,3.3404,3.342,3.389,3.3615,3.2708,3.2222,3.1817,3.1445,3.0836,3.059,3.0551,3.0097,2.9918,2.9918,2.9918,2.9957,3.0048,2.9943,2.9007,2.7768,2.7737,2.7736,2.7643,2.7008,2.6942,2.7026,2.674,2.6426,2.615,2.615,2.5891,2.5578,2.5502,2.5524,2.5578,2.5448,2.554,2.5616,2.5616,2.554,2.541,2.5333,2.5294,2.5256,2.5178,2.541,2.5486,2.5114,2.4778,2.4362,2.3681,2.3324,2.29,2.2212,2.2161,2.2013,2.1667,2.162,2.165,2.1694,2.1556,2.1362,2.1049,2.1238,2.1209,2.0868,2.0807,2.0629,2.024,2.0717,2.0972,2.0989,2.0796,2.117,0.0,0.0,0.0,0.0,0.0,0.0,0.0,0.0,2.1467,2.3169,2.3856,2.4382,2.5106,2.5775,2.6419,2.7162,2.709,2.7134,2.769,2.7275,2.7112,2.752,2.801,2.8441,2.8693,2.9169,2.9788,3.0571,3.019,3.0265,3.0881,3.1422,3.1652,3.1652,3.216,3.2641,3.3182,3.3697,3.3984,3.4101,3.4101,3.3712,3.2983,3.2757,3.2482,3.2094,3.1644,3.1288,3.0959,3.0186,2.9907,2.9918,2.9918,2.9918,2.9886,2.9897,2.9917,2.9884,2.9889,2.9881,2.965,2.8282,2.8103,2.8306,2.7826,2.7235,2.6701,2.6701,2.6166,2.5578,2.541,2.5448,2.5486,2.5333,2.541,2.5486,2.554,2.541,2.5294,2.5294,2.5294,2.5256,2.51,2.5333,2.554,2.554,2.5082,2.4733,2.4691,2.4188,2.3602,2.2981,2.2899,2.262,2.1882,2.1685,2.165,2.1694,2.1526,2.1495,2.1589,2.1419,2.1309,2.1309,2.1325,2.1309,2.1309,2.1309,2.1402,2.1634,2.1464,2.1601,1.9075,1.9557,2.0473,2.1503,2.1891,2.2668,0.0,0.0,2.5233,2.6214,2.6472,2.6322,2.5575,2.6441,2.7145,2.6894,2.7783,2.8487,2.856,2.8024,2.7621,2.7661,2.7733,2.8228,2.9362,2.9522,3.0045,3.1273,3.1317,3.1577,3.216,3.2272,3.2272,3.2272,3.2327,3.2641,3.3182,3.3251,3.3578,3.4101,3.4101,3.4052,3.3922,3.3096,3.2676,3.2595,3.2126,3.1193,3.0028,2.9932,2.9891,2.9918,2.9918,2.9918,2.9902,2.9886,2.9913,2.9913,2.9897,2.988,2.973,2.866,2.8362,2.8331,2.7843,2.7235,2.6701,2.6701,2.6166,2.5578,2.5578,2.5448,2.5333,2.5294,2.5178,2.5139,2.5294,2.5333,2.5294,2.5294,2.5294,2.5294,2.5256,2.5294,2.5333,2.5333,2.5465,2.5322,2.4704,2.4664,2.4425,2.3753,2.3671,2.3391,2.2716,2.2073,2.1664,2.1603,2.1589,2.1589,2.1589,2.1464,2.1386,2.1386,2.134,2.1309,2.1309,2.1309,2.1325,2.134,2.1309,2.1615,2.165,2.202,2.2489,0.0,2.3992,2.4516,2.556,2.5779,2.5951,2.6551,2.6857,2.6965,2.6714,2.7419,2.7958,0.0,2.8291,2.8681,2.8681,2.8129,2.7868,2.8245,2.7955,2.8086,2.8985,2.9406,3.0003,3.0925,3.097,3.1087,3.1321,3.1364,3.1364,3.1364,3.1364,3.1637,3.2185,3.2226,3.2516,3.3087,3.3319,3.3414,3.3415,3.3486,3.3494,3.3484,3.3291,3.2901,3.2237,3.0585,2.9913,2.9891,2.9879,2.9918,2.9918,2.9918,2.9918,2.9918,2.9918,2.9897,2.9811,2.9405,2.9286,2.9231,2.9043,2.8466,2.7818,2.7397,2.6782,2.6096,2.5561,2.5448,2.5464,2.5333,2.5333,2.5371,2.5464,2.5448,2.5448,2.5448,2.5448,2.5464,2.5333,2.541,2.541,2.5333,2.5524,2.5545,2.5257,2.5297,2.5092,2.4441,2.3982,2.3638,2.3407,2.2732,2.2337,2.2306,2.1911,2.1603,2.1495,2.1417,2.1386,2.134,2.1309,2.1309,2.1309,2.1309,2.1309,2.1371,2.1371,2.154,2.2894,0.0,0.0,2.4639,2.5341,2.5799,2.5883,2.6091,2.6411,2.6886,2.7152,2.7288,2.7289,2.7839,2.8343,2.8521,2.8785,2.9,2.9174,2.8492,2.8158,2.8623,2.7969,2.7795,2.8594,2.9261,2.9885,3.0524,3.0568,3.0568,3.0568,3.0568,3.0568,3.0568,3.0568,3.0866,3.148,3.148,3.1823,3.2398,3.2662,3.2835,3.2902,3.3741,3.4117,3.4085,3.4078,3.4117,3.3939,3.1887,3.0593,2.9909,2.99,2.9919,2.9867,2.9585,2.9645,2.9858,2.9677,2.9738,2.9918,2.9918,2.9918,2.9918,2.9918,2.9399,2.8628,2.7775,2.7042,2.627,2.5274,2.5162,2.5278,2.5146,2.5162,2.5294,2.541,2.5333,2.5294,2.5486,2.554,2.5502,2.541,2.5486,2.554,2.541,2.5502,2.56,2.568,2.5701,2.5542,2.5092,2.4405,2.4031,2.4065,2.3441,2.2964,2.275,2.224,2.18,2.1464,2.1417,2.1402,2.134,2.1309,2.1309,2.1309,2.1309,2.1309,2.1355,2.1355,2.1531,0.0,0.0,2.3684,2.4828,2.5647,2.6486,2.7633,2.7518,2.7348,2.8086,2.7819,2.7348,2.6922,2.7302,2.7926,2.8606,2.9189,2.9813,3.0437,2.9435,2.8652,2.8681,2.7578,2.7302,2.8565,2.9261,2.9885,3.0524,3.0568,3.0568,3.0568,3.0568,3.0568,3.0568,3.0568,3.0866,3.148,3.148,3.1823,3.2398,3.2398,3.2616,3.2927,3.3716,3.4101,3.4101,3.4101,3.4069,3.408,3.4016,3.2368,2.9884,2.9909,2.9895,2.979,2.8714,2.8987,2.9798,2.9085,2.9313,2.9918,2.9918,2.9918,2.9918,2.9918,2.9399,2.8543,2.7423,2.6582,2.5762,2.4637,2.4492,2.4623,2.4623,2.4492,2.4467,2.4926,2.4686,2.4508,2.5162,2.5294,2.5371,2.5578,2.5578,2.5616,2.5578,2.5578,2.5616,2.5616,2.5642,2.5684,2.5668,2.5121,2.4767,2.4767,2.4095,2.3375,2.2654,2.2588,2.2277,2.1606,2.1464,2.1386,2.1386,2.134,2.1309,2.1309,2.1309,2.1309,2.1309,2.1309,2.1713,2.3165,0.0,2.4774,2.577,2.6221,2.6552,2.7066,2.7065,2.6988,2.7261,2.6747,2.6185,2.606,2.6544,2.7194,2.7775,2.8871,2.9842,3.048,2.9842,2.9145,2.8739,2.8303,2.8216,2.8637,2.8869,0.0,3.0495,3.0568,3.0568,3.0568,3.0568,3.0568,3.0568,3.0568,3.0687,3.0911,3.0911,3.097,3.1204,3.12,3.1255,3.1372,3.1678,3.1769,3.1793,3.1793,3.1803,3.1781,3.179,3.1197,3.0499,3.2073,3.1124,2.8768,2.8438,2.8517,2.8779,2.8544,2.8841,2.9364,2.9364,2.9621,2.9918,2.9918,2.974,2.92,2.7567,2.6931,2.6346,2.472,2.4574,2.4784,2.4784,2.4759,2.4815,2.5294,2.5029,2.4815,2.5201,2.541,2.5486,2.541,2.5502,2.5616,2.5616,2.5616,2.5616,2.5616,2.5637,2.5621,2.5621,2.5464,2.5338,2.5379,2.4726,2.4221,2.4027,2.3587,2.3177,2.2866,2.2411,2.2118,2.2054,2.2021,2.2037,2.2037,2.2523,2.2524,2.2102,2.2606,2.272,2.4317,2.4904,2.5269,2.6603,2.6775,2.6701,2.696,2.6922,2.6832,2.7011,2.6331,2.5749,2.5914,2.5957,2.6376,2.7564,2.8381,2.9204,3.0363,2.9957,2.9407,2.9058,2.8811,2.8768,2.9,2.8957,0.0,3.0495,3.0568,3.0568,3.0568,3.0568,3.0568,3.0568,3.0568,3.0568,3.0568,3.0568,3.0568,3.0568,3.0616,3.0602,3.0602,3.0586,3.0611,3.0624,3.0594,3.058,3.0622,3.0586,3.0618,3.0724,3.2284,3.131,2.9046,2.8442,2.8201,2.8191,2.8057,2.8352,2.8826,2.8826,2.9182,2.9576,2.938,2.947,2.923,2.7418,2.6741,2.6202,2.4605,2.4414,2.4679,2.4679,2.4679,2.4799,2.5146,2.4879,2.4623,2.4974,2.5278,2.5448,2.541,2.5486,2.5616,2.5616,2.5616,2.5616,2.5616,2.5616,2.5616,2.5616,2.5616,2.56,2.5642,2.5236,2.4863,2.4639,2.4218,2.3844,2.3513,2.3093,2.2833,2.2782,2.2782,2.2782,2.2782,2.3286,2.327,2.2882,2.3338,2.3486,2.5221,2.5358,2.5358,2.7219,2.7273,2.6951,2.7333,2.7056,2.6849,2.7244,2.6409,2.5756,2.6165,0.0,2.559,2.7725,2.7781,2.8238,3.0067,2.9808,2.9478,0.0,0.0,0.0,0.0,0.0,0.0,3.0568,0.0,3.0582,3.0626,3.0597,3.0568,3.0568,3.0568,3.0568,3.0568,3.0568,3.0582,3.0582,3.0623,3.0606,3.0531,3.0531,3.0592,3.0606,3.0626,3.0582,3.0582,3.0568,3.0602,3.0628,3.0577,3.0584,3.0319,2.8681,2.8024,2.7988,2.7637,2.783,2.824,2.824,2.8638,2.8982,2.8448,2.8638,2.8747,2.7061,2.6141,2.5371,2.4236,2.4163,2.4364,2.4322,2.4291,2.4385,2.4583,2.4256,2.4048,2.4542,2.4989,2.5371,2.5578,2.5616,2.5616,2.5616,2.5616,2.5616,2.5616,2.5616,2.5616,2.5616,2.5616,2.5616,2.5616,2.5616,2.5308,2.4596,2.4547,2.4256,2.3643,2.3578,2.3562,2.3562,2.3562,2.3562,2.3562,2.3594,2.3594,2.3562,2.3594,2.4002,2.622,2.7113,2.7708,2.7723,2.7607,2.7229,2.6447,2.6127,2.5814,2.4839,2.3999,2.3277,2.2869,2.3808,0.0,2.5993,2.7777,0.0,3.0377,3.0363,0.0,2.9682,0.0,2.9972,2.9463,2.9808,0.0,0.0,3.0492,3.0434,3.0893,3.0477,3.0233,3.0233,3.0326,3.0387,3.0387,3.0507,3.0594,3.0618,3.0585,3.0362,2.9827,2.9827,3.014,3.0585,3.0606,3.0623,3.0623,3.0597,3.0584,3.0616,3.0602,3.0105,2.9348,2.9086,2.8681,2.826,2.7773,2.7691,2.7715,2.7715,2.8046,2.8496,2.8336,2.84,2.8245,2.6965,2.6471,2.6105,2.4922,2.4806,2.4897,2.4579,2.4417,2.4385,2.4759,2.4477,2.4369,2.4989,2.5201,2.5371,2.5578,2.5616,2.5616,2.5616,2.5616,2.5616,2.5616,2.5616,2.5616,2.5616,2.5616,2.5616,2.5616,2.5616,2.5535,2.5341,2.5324,2.5243,2.5082,2.4531,2.424,2.424,2.424,2.424,2.424,2.479,2.4774,2.424,2.4806,2.4871,2.7694,2.8347,2.8594,2.8231,2.794,2.7316,2.5734,2.5321,2.4945,2.3576,2.2735,2.2126,2.1906,2.2669,2.3865,0.0,0.0,0.0,3.0245,3.0447,3.0377,0.0,3.029,0.0,2.9822,3.0248,3.0768,0.0,3.0563,3.0383,3.0948,3.0454,3.0111,3.0111,3.0158,3.0266,3.0312,3.0491,3.0609,3.0621,3.0305,2.9931,2.9605,2.9633,2.9794,3.0183,3.0158,3.0309,3.0592,3.0609,3.0611,3.0568,3.0568,3.0247,2.9635,2.9449,2.8929,2.8353,2.783,2.738,2.7071,2.7137,2.753,2.7898,2.768,2.7765,2.7773,2.6946,2.6485,2.609,2.5456,2.5322,2.5198,2.4732,2.452,2.446,2.4595,2.4451,2.4508,2.5294,2.541,2.5464,2.5578,2.5616,2.5616,2.5616,2.5616,2.5616,2.5616,2.5616,2.5616,2.5616,2.5616,2.5616,2.5616,2.5616,2.5616,2.5616,2.5616,2.5616,2.5616,2.5211,2.4984,2.4984,2.4984,2.4984,2.4984,2.5405,2.5405,2.4984,2.5422,2.5389,2.9058,2.9218,2.8884,2.8724,2.826,2.7302,2.5133,2.4606,2.4154,2.2725,0.0,2.1526,2.1849,2.1826,2.2658,2.5441,0.0,2.7533,2.9981,3.0326,3.0387,3.0568,3.0447,3.0312,3.0266,3.0606,3.1013,3.1471,3.0651,3.0492,3.1126,3.0634,3.0264,3.0178,3.0107,3.0158,3.0312,3.0488,3.0623,3.0611,2.9983,2.9667,2.9577,2.9572,2.96,2.96,2.9681,3.0025,3.0545,3.0592,3.0594,3.0568,3.0568,3.0568,3.051,2.9766,2.9102,2.8483,2.7849,2.7187,2.6625,2.6741,2.7063,2.7327,2.6922,2.71,2.7327,2.6922,2.6358,2.5923,2.5923,2.5761,2.5508,2.4878,2.4671,2.4552,2.4438,2.4446,2.471,2.5448,2.5616,2.5616,2.5616,2.5616,2.5616,2.5616,2.5616,2.5616,2.5616,2.5616,2.5616,2.5616,2.5616,2.5616,2.5616,2.5616,2.5616,2.5616,2.5616,2.5616,2.5616,2.5616,2.5616,2.5616,2.5616,2.5616,2.5616,2.5616,2.5616,2.5616,2.5616,2.5616,2.8753,2.9537,3.0001,2.8942,2.8594,2.7737,2.4733,2.3956,0.0,0.0,2.0128,1.9792,1.926,2.0486,2.2267,2.4426,2.6242,2.8148,3.0232,3.0568,3.0568,0.0,3.0568,3.0462,3.0172,3.062,0.0,0.0,3.0552,3.0932,3.2086,3.1565,3.1053,3.0708,3.0196,3.0036,3.0312,3.0488,3.0574,3.0585,3.0495,3.015,2.9623,2.9574,2.9588,2.9651,3.0003,0.0,3.0334,3.0505,3.0582,3.0568,3.0568,3.0507,3.0372,3.0197,2.9705,2.8984,2.844,2.7864,2.7245,2.69,2.6884,2.6922,2.6832,2.6884,2.6922,2.6832,2.6707,2.6605,2.6605,2.6468,2.6183,2.5722,2.5077,2.4672,2.4989,2.5224,2.541,2.5578,2.5616,2.5616,2.5616,2.5616,2.5616,2.5616,2.5616,2.5616,2.5616,2.5616,2.5616,2.5616,2.5616,2.5616,2.5616,2.5616,2.5616,2.5616,2.5616,2.5616,2.5616,2.5616,2.5616,2.5616,2.5616,2.5616,2.5616,2.5616,2.5616,2.5616,2.5616,2.5616,2.8507,2.9131,2.9363,2.8419,2.794,2.6939,2.4051,0.0,0.0,0.0,1.9191,1.8987,1.8574,1.9583,0.0,2.3108,2.4373,2.6255,2.9507,2.9798,3.0089,3.1424,3.1521,3.1397,3.1082,3.1604,3.1778,3.1499,3.1794,3.1822,3.1443,3.0839,3.0439,3.0178,2.9882,2.9822,2.9954,3.038,3.0589,3.0592,3.0589,3.0244,2.96,2.9699,2.9679,2.9602,2.9831,3.0031,3.023,3.0309,3.0462,3.0568,3.0568,3.0507,3.0447,3.0326,2.9602,2.8626,2.8498,2.7751,2.6849,2.6828,2.6779,2.6779,2.6779,2.6779,2.6779,2.6779,2.6779,2.6779,2.6779,2.6755,2.652,2.5916,2.5367,2.4891,2.4756,2.5187,2.5616,2.5616,2.5616,2.5616,2.5616,2.5616,2.5616,2.5616,2.5616,2.5616,2.5616,2.5616,2.5616,2.5616,2.5616,2.5616,2.5616,2.5616,2.5616,2.5616,2.5616,2.5616,2.5616,2.5616,2.5616,2.5616,2.5616,2.5616,2.5616,2.5616,2.5616,2.5616,2.5616,2.5616,2.8173,2.8579,2.8521,2.7882,2.7258,2.6112,2.3482,2.2307,0.0,0.0,1.8774,1.8673,1.8556,0.0,2.0004,0.0,2.2629,2.4413,2.8468,2.9073,2.9885,0.0,3.2298,0.0,3.2047,3.2435,0.0,3.2216,3.2665,3.2398,3.119,3.0544,3.0207,3.0207,2.982,2.9568,2.96,3.024,3.0618,3.058,3.0577,3.0309,2.9742,2.987,2.9803,2.9665,2.9665,2.9789,3.0036,3.0111,3.028,3.0507,3.0507,3.0568,3.0553,3.0228,2.9346,2.824,2.8225,2.7379,2.6379,2.6727,2.6779,2.6779,2.6779,2.6779,2.6823,2.6953,2.6895,2.6823,2.6953,2.6895,2.6576,2.5778,2.5373,2.5029,2.4441,2.4989,2.5616,2.5616,2.5616,2.5616,2.5616,2.56,2.5637,2.5637,2.5637,2.5637,2.5637,2.5637,2.5654,2.5616,2.5616,2.5616,2.5616,2.5616,2.5616,2.5616,2.5616,2.5616,2.5616,2.5616,2.5616,2.5616,2.5616,2.5616,2.5616,2.5616,2.5616,2.5616,2.5616,2.5616,2.7636,2.8245,2.8521,2.7882,2.7258,2.6112,2.3482,0.0,0.0,1.9382,1.8827,1.8711,1.8673,1.8638,0.0,0.0,0.0,0.0,2.7357,2.9291,3.0698,3.1511,0.0,0.0,3.1982,3.234,3.2348,3.1612,3.1626,3.2075,3.3016,3.2483,3.2145,3.2145,3.0508,2.9586,2.9603,3.0244,3.0614,3.06,3.0574,3.047,3.0244,3.0003,2.9851,2.9747,2.9747,2.9808,0.0,3.0036,3.0158,3.0312,3.0312,3.0447,3.051,2.9737,2.903,2.8368,2.7792,2.7115,2.6525,2.6712,2.6779,2.6779,2.6779,2.6779,2.6895,2.7476,2.7229,2.6924,2.7505,2.7215,2.6474,2.5226,2.5045,2.5029,2.4441,2.4989,2.5616,2.5616,2.5616,2.5616,2.5616,2.5659,2.5701,2.5701,2.5791,2.5844,2.5701,2.5807,2.5787,2.5616,2.5616,2.5616,2.5616,2.5616,2.5616,2.5616,2.5616,2.5616,2.5616,2.5616,2.5616,2.5616,2.5616,2.5616,2.5616,2.5616,2.5616,2.5616,2.5616,2.5616,2.6779,2.7345,2.7389,2.6721,2.6083,2.5038,2.286,0.0,2.0876,1.931,1.8955,1.8865,1.8774,1.8721,1.9052,0.0,2.0556,2.1856,2.5148,2.6385,2.7919,3.0519,3.1685,0.0,0.0,0.0,3.3314,3.2814,3.2664,3.2806,3.3297,3.2384,3.185,3.185,3.1129,3.0389,2.9603,2.9845,3.0172,3.0577,3.0594,3.043,3.0036,3.005,2.9927,2.9651,2.9651,2.9699,0.0,2.9884,3.0068,3.0312,3.0312,3.0156,2.9972,2.9653,2.8857,2.7891,2.77,2.7126,2.651,2.6712,2.6779,2.6779,2.6779,2.7041,2.7403,2.765,2.7824,2.7897,2.7766,2.6953,2.5952,2.5003,2.5,2.5029,2.4441,2.4989,2.5616,2.5616,2.5616,2.5616,2.5616,2.5637,2.5621,2.5621,2.5717,2.5754,2.5701,2.5828,2.586,2.5787,2.5696,2.5659,2.5616,2.5616,2.5616,2.5616,2.5637,2.5659,2.5616,2.5621,2.5621,2.5616,2.5616,2.5616,2.5616,2.5616,2.5637,2.5642,2.5642,2.5696,2.5807,2.6358,2.6373,2.5908,2.5023,2.3873,0.0,2.1467,2.0422,1.9272,1.9017,1.8979,1.8889,1.8836,1.8927,0.0,1.9412,2.0525,2.3649,2.464,2.6371,2.9723,0.0,3.2148,3.2846,3.3585,3.3937,3.3675,3.3536,3.3466,3.3396,3.2619,3.2072,3.2033,3.2051,3.1482,3.0269,3.0035,3.0115,3.0626,3.0582,3.0433,3.0101,3.0097,2.9988,2.9741,2.9665,2.9651,0.0,2.9761,2.9946,3.0251,2.999,2.9883,2.9797,2.9417,2.8755,2.7988,2.7744,2.7258,2.6826,2.6817,2.6779,2.6779,2.6779,2.7229,2.7766,2.7955,2.8429,2.8642,2.7472,2.6433,2.5575,2.4897,2.4867,2.4841,2.4544,2.5084,2.5616,2.5616,2.5616,2.5616,2.5637,2.5675,2.5691,2.5712,2.5807,2.5828,2.5775,2.5917,2.597,2.5897,2.5828,2.5754,2.5675,2.5675,2.5675,2.5675,2.5733,2.5717,2.5621,2.568,2.568,2.5637,2.5637,2.5637,2.5675,2.5675,2.5696,2.5754,2.5738,2.5738,2.4718,2.5342,2.5792,2.5778,2.4355,2.2902,2.2888,2.1467,1.9928,1.9246,1.9055,1.8993,1.8993,1.8889,1.8784,1.8798,1.9976,2.147,2.3288,2.5199,2.7216,0.0,0.0,3.1169,3.2134,3.3221,3.3896,3.3896,3.3896,0.0,3.3605,3.3673,3.3589,3.3297,3.3268,3.2801,3.1872,3.1002,3.0571,3.0592,3.0626,3.0568,3.0568,3.0233,3.0111,3.005,2.9741,2.9602,0.0,2.9602,2.9803,3.0054,2.9397,2.9653,3.0231,2.8988,2.8858,2.9092,2.7906,2.7515,2.7414,2.6974,2.6779,2.6779,2.6779,2.7229,2.7868,2.8492,2.9013,2.8851,2.644,2.5692,2.5405,2.4746,2.4468,2.4426,2.4799,2.5262,2.5616,2.5616,2.5616,2.5637,2.5701,2.5791,2.5917,2.599,2.6115,2.6168,2.6026,2.6115,2.6132,2.5934,2.5954,2.599,2.5881,2.5897,2.5897,2.5897,2.5897,2.5844,2.5701,2.5701,2.5701,2.5701,2.5701,2.5754,2.5897,2.5897,2.5897,2.5881,2.5754,2.5701,2.3252,2.3641,2.3731,2.331,2.2744,2.2062,2.1191,2.0538,1.9914,1.9232,1.9064,1.9078,1.9078,1.9026,1.9277,2.0117,0.0,0.0,0.0,0.0,0.0,2.8022,3.0384,3.2436,0.0,0.0,3.4074,3.4074,3.3951,3.3896,3.3856,3.3602,3.3419,3.3293,3.3321,3.2529,3.1048,3.0721,3.0592,3.0626,3.1195,3.1322,3.1079,3.1449,3.1295,3.0816,3.0864,3.0668,3.0266,3.0266,3.0401,3.0524,3.0032,2.9776,2.9684,2.9213,2.8843,2.8547,2.8171,2.8061,2.7997,2.7864,2.758,2.7365,2.7839,2.8179,2.8507,2.9145,2.9114,2.8539,2.6905,2.5798,2.4996,2.4686,2.4468,2.441,2.4823,2.5262,2.5616,2.5616,2.5616,2.5637,2.5701,2.5738,2.5791,2.5917,2.599,2.6063,2.6026,2.6115,2.6184,2.6096,2.6132,2.6079,2.5917,2.5897,2.5897,2.5897,2.5897,2.5844,2.5701,2.5791,2.5791,2.5701,2.5791,2.5844,2.5897,2.5897,2.5917,2.599,2.6043,2.6043,0.0,2.2178,2.2483,2.2091,2.1641,2.1133,2.0567,2.0074,1.9595,1.9188,1.9101,1.9101,1.9101,1.9101,1.9362,2.0096,2.0734,0.0,0.0,0.0,0.0,2.8699,0.0,0.0,0.0,3.3772,3.3749,3.3503,3.3653,3.3671,3.3542,3.3624,3.359,3.333,3.2411,3.1474,3.0594,3.0587,3.0603,3.0582,3.1369,3.1613,3.1368,3.1772,3.168,3.1166,3.125,3.1097,0.0,3.1014,3.1041,3.0802,3.0332,2.9915,2.9571,2.9345,2.9075,2.8873,2.8685,2.8591,2.8591,2.8352,2.813,2.8032,2.869,2.9127,2.9484,2.9824,2.9817,2.9262,2.7565,2.6583,2.5923,2.5048,2.4894,2.4967,2.5139,2.5416,2.5637,2.5637,2.5675,2.5749,2.5791,2.5811,2.5864,2.6007,2.6043,2.6079,2.6079,2.6168,2.622,2.622,2.622,2.6132,2.6007,2.6007,2.6007,2.6007,2.6007,2.5954,2.5811,2.5901,2.5917,2.5811,2.5917,2.5954,2.6007,2.6007,2.6007,2.601,2.6132,2.6168,0.0,2.0727,2.1656,2.1656,2.077,2.0045,2.0596,1.9812,0.0,1.9029,1.9043,1.9058,1.9159,1.913,1.9159,1.9348,1.9928,0.0,0.0,2.4609,0.0,0.0,3.1382,0.0,3.2248,3.2985,3.3151,3.2571,3.3064,3.3224,3.2817,3.3741,3.3962,3.3391,3.0979,3.0062,3.0888,3.0697,3.0592,3.064,3.1235,3.154,3.1598,3.1488,3.144,0.0,3.1293,3.119,3.1145,3.166,3.1546,3.0999,3.0326,3.0076,2.9911,2.9389,2.947,2.9814,2.9319,2.9182,2.909,2.859,2.8575,2.8906,2.9532,3.0098,3.0503,3.0462,3.0849,3.0678,2.8192,2.7913,2.7748,2.5722,2.5675,2.6029,2.5776,2.5718,2.5766,2.5782,2.584,2.5917,2.599,2.601,2.6063,2.6168,2.622,2.622,2.622,2.622,2.622,2.622,2.622,2.622,2.622,2.622,2.622,2.622,2.6168,2.6132,2.5937,2.5937,2.5937,2.5937,2.5974,2.6079,2.622,2.622,2.6132,2.6026,2.6132,2.6115,1.6996,0.0,1.8332,1.8332,1.81,1.7925,0.0,1.7867,1.7795,0.0,0.0,1.8709,1.9696,1.9449,1.9754,2.1671,0.0,2.3499,2.4858,2.6741,0.0,3.1821,3.1768,3.1787,3.2391,3.2643,3.2687,3.2527,3.2658,3.2835,3.304,3.2981,3.3302,3.4091,3.166,3.1363,3.3472,3.1594,3.0855,3.1293,3.1438,3.1787,3.228,3.2676,3.2909,3.2941,3.3099,3.2844,3.236,3.1944,3.1672,3.1409,3.0417,3.0002,2.9974,2.9772,2.977,2.9858,2.977,2.971,2.9701,2.9674,3.0441,3.1301,3.1029,3.0739,3.0406,2.9927,3.0324,3.0247,2.7668,2.7444,2.75,2.5815,2.6174,2.6846,2.6739,2.6631,2.6564,2.6678,2.6274,2.5917,2.599,2.601,2.6063,2.6168,2.622,2.622,2.622,2.622,2.622,2.622,2.622,2.622,2.622,2.622,2.622,2.622,2.6115,2.5901,2.5567,2.553,2.553,2.553,2.5917,2.6168,2.622,2.622,2.6168,2.6168,2.6168,2.6168,1.5792,1.6706,1.7664,1.7664,1.7882,1.8071,1.8071,0.0,0.0,0.0,0.0,0.0,1.9508,1.9595,0.0,0.0,2.2831,0.0,0.0,0.0,3.0292,3.228,3.1932,3.1656,0.0,3.2063,3.1946,3.1642,3.1988,3.2147,3.1931,3.1752,3.2475,3.4218,3.1886,3.1291,3.264,3.1894,3.1329,3.109,3.138,3.1824,3.2485,3.2809,3.3096,3.3349,3.3479,3.3121,3.2515,3.2412,3.1924,3.1274,3.0656,3.0209,2.9936,2.9899,2.9918,2.9951,3.0247,3.0571,3.0914,3.1038,3.1571,3.2163,3.1951,3.1797,3.1658,3.1439,3.1603,3.1489,2.9521,2.9177,2.891,2.6839,2.7139,2.7662,2.6793,2.6704,2.6787,2.6574,2.627,2.6043,2.6079,2.6079,2.6115,2.6168,2.622,2.622,2.622,2.622,2.622,2.622,2.622,2.622,2.622,2.622,2.6132,2.5901,2.5811,2.5572,2.5208,2.5346,2.5551,2.577,2.6059,2.6079,2.5864,2.6079,2.6079,2.5901,2.6079,2.622,1.5385,1.6793,1.8143,1.7954,1.8361,1.8811,1.8811,0.0,0.0,0.0,0.0,0.0,0.0,1.9856,0.0,0.0,0.0,0.0,2.8202,2.9697,3.0872,3.2077,3.1714,0.0,3.1489,3.1445,3.1197,3.0792,3.1368,3.1395,3.0651,3.0603,3.1695,3.4062,3.2181,3.0951,3.0586,3.1838,3.1987,3.0969,3.1438,3.1944,3.2556,3.2509,3.2859,3.3419,0.0,0.0,3.2355,3.2627,3.2044,3.0865,3.0814,3.0393,2.9918,2.9918,2.9983,3.0134,3.0846,3.1558,3.2176,3.2281,3.2384,3.2523,3.2647,3.2911,3.3303,3.3511,3.3431,3.293,3.1433,3.1084,3.0496,2.8031,2.8139,2.8307,2.6707,2.6615,2.6711,2.629,2.6145,2.6132,2.6168,2.622,2.622,2.622,2.6132,2.6132,2.6168,2.6132,2.6132,2.6168,2.622,2.622,2.622,2.6132,2.5917,2.5427,2.5465,2.5313,2.4902,2.5237,2.561,2.6007,2.6007,2.5828,2.5427,2.5864,2.5901,2.5503,2.599,2.622,1.5777,1.7136,1.8007,1.6812,1.7011,1.749,0.0,0.0,0.0,0.0,0.0,0.0,0.0,0.0,2.1598,0.0,0.0,2.7389,0.0,0.0,3.0045,3.0785,0.0,3.0953,3.147,3.1028,3.0951,3.1576,3.1091,3.0754,3.0624,3.0601,3.1672,3.4027,3.3741,3.2633,3.0638,3.1817,3.2503,3.2631,3.2368,3.2604,3.315,3.3123,3.3473,3.403,0.0,3.308,3.2886,3.1706,3.1075,3.0862,3.0263,2.9999,2.9918,2.9918,3.0247,3.0862,3.1591,3.2319,3.2935,3.2951,3.337,3.3804,3.385,3.3678,3.3591,3.4184,3.3532,3.2079,2.9327,2.9388,2.975,2.8204,2.8123,2.8394,2.8153,2.7315,2.6682,2.704,2.6295,2.5721,2.6132,2.622,2.622,2.622,2.5864,2.5758,2.6132,2.5848,2.5758,2.6168,2.622,2.622,2.622,2.5864,2.5443,2.502,2.5313,2.5313,2.4902,2.4981,2.502,2.5114,2.5114,2.5059,2.4981,2.5406,2.5594,2.5503,2.599,2.622,1.4935,1.6143,1.718,1.7315,1.8402,1.9361,0.0,0.0,0.0,0.0,0.0,0.0,0.0,0.0,2.2848,2.5092,0.0,2.8739,2.8681,2.9523,3.0248,0.0,0.0,3.0866,3.1422,3.0936,3.0989,3.2048,3.1174,3.1175,3.2431,3.2499,3.2978,3.4057,3.411,3.3593,3.25,3.3045,3.3184,3.2962,3.2182,3.2091,3.2678,3.2253,3.2384,3.3006,0.0,3.2287,3.1866,3.1202,3.07,3.0328,3.0048,3.0101,3.049,3.0878,3.1477,3.2141,3.2481,3.3048,3.3631,3.3631,3.3841,3.4101,3.4201,3.4101,3.3869,3.3713,3.3177,3.2382,3.094,3.045,3.0069,2.9045,2.8611,2.8243,2.7715,2.7022,2.6484,2.6346,2.5896,2.5631,2.6132,2.622,2.622,2.622,2.6043,2.5954,2.6168,2.599,2.5954,2.6184,2.622,2.6096,2.5848,2.5631,2.5237,2.4599,2.4759,2.4759,2.4558,2.4784,2.4902,2.4902,2.4902,2.4902,2.4902,2.5313,2.5389,2.5198,2.561,2.5811,1.45,1.5589,1.6772,1.7992,0.0,2.0803,0.0,0.0,0.0,0.0,0.0,0.0,0.0,2.2731,0.0,2.6134,2.8199,2.945,2.8971,2.974,3.0408,3.0553,3.0747,3.1029,3.1652,3.1264,3.1541,3.268,3.1939,3.2201,3.4014,3.4094,3.4101,3.4101,3.4105,3.4105,3.4101,3.4105,3.3805,3.3161,3.2211,3.1945,3.2406,3.1815,3.1742,3.2012,3.219,3.185,3.1186,3.1186,3.0862,3.0405,3.0405,3.07,3.1267,3.1996,3.2611,3.3113,3.3275,3.3713,3.4151,3.4,3.4,3.405,3.4151,3.4084,3.3905,3.3453,3.2869,3.2337,3.199,3.1121,3.017,2.9624,2.8766,2.7869,2.7169,2.6614,2.6121,2.5616,2.5503,2.5631,2.6132,2.622,2.622,2.622,2.6132,2.6079,2.6184,2.6079,2.6079,2.6168,2.6079,2.5828,2.5291,2.5198,2.4902,2.4162,2.4343,2.4451,2.4451,2.4719,2.4879,2.4759,2.4664,2.4664,2.4759,2.5059,2.5098,2.4902,2.5198,2.5427,1.5574,1.667,1.747,1.8124,0.0,0.0,0.0,0.0,0.0,0.0,0.0,0.0,0.0,2.4538,2.6736,2.7461,2.8739,2.961,2.9566,0.0,2.9914,3.051,3.1087,3.1652,3.2287,3.2315,3.273,3.3901,3.3919,3.3919,3.4083,3.4117,3.4101,3.4101,3.4117,3.4117,3.4101,3.4117,3.4083,3.4016,3.3306,3.2983,3.3032,3.2983,3.2595,3.2044,3.2708,3.2595,3.1931,3.1931,3.1898,3.185,3.185,3.1882,3.2012,3.274,3.3032,3.3178,3.3809,3.4152,3.4201,3.3694,3.3658,3.3745,3.3745,3.3455,3.3303,3.4317,3.2967,3.0968,2.9899,2.9422,2.9183,2.9136,2.8063,2.711,2.755,2.6571,2.5567,2.5519,2.5503,2.5631,2.6132,2.622,2.622,2.622,2.5811,2.5721,2.6132,2.5811,2.5721,2.6168,2.5811,2.5237,2.4451,2.4385,2.4162,2.3681,2.442,2.4863,2.4863,2.4863,2.4719,2.4343,2.3909,2.3894,2.4343,2.4385,2.4558,2.4902,2.4942,2.5121,1.4118,1.5653,1.7114,1.8195,0.0,0.0,0.0,0.0,0.0,0.0,0.0,0.0,0.0,0.0,2.8284,2.8798,2.9624,3.0078,2.9692,2.9862,3.0201,3.048,3.1111,3.1864,3.2788,3.2619,3.2871,3.4018,3.4101,3.4101,3.4101,3.4101,3.4101,3.4101,3.4101,3.4101,3.4101,3.4101,3.4101,3.4084,3.3404,3.308,3.3064,3.2627,3.2271,3.2028,3.2287,3.2255,3.2012,3.2012,3.2012,3.206,3.2498,3.2676,3.2757,3.3469,3.3761,3.3893,3.4169,3.43,3.4349,3.3797,3.3658,3.3642,3.3351,3.2861,3.2514,3.3024,3.1868,3.0592,3.0959,3.0069,2.9074,2.9074,2.8015,2.7004,2.7201,2.6126,2.5198,2.5465,2.5313,2.5253,2.5684,2.5758,2.5758,2.5758,2.5864,2.599,2.6184,2.6043,2.599,2.6168,2.5775,2.5389,2.5082,2.4823,2.4599,2.442,2.4477,2.4395,2.409,2.4354,2.4328,2.3867,2.3994,2.412,2.4302,2.4574,2.4599,2.4533,2.4533,2.4759,1.4094,1.5665,1.7309,0.0,0.0,0.0,0.0,0.0,0.0,0.0,0.0,0.0,0.0,0.0,0.0,0.0,3.0525,3.0813,3.0531,3.0493,3.0552,3.0818,3.1366,3.2089,3.2879,3.294,3.3272,3.4034,3.4101,3.4101,3.4101,3.4101,3.4101,3.4101,3.4101,3.4101,3.4101,3.4101,3.4101,3.4101,3.3631,3.3291,3.3064,3.2579,3.2222,3.2028,3.2481,3.2546,3.2368,3.2579,3.2659,3.2724,3.3275,3.3453,3.3518,3.3972,3.425,3.4349,3.4349,3.4349,3.425,3.3899,3.3539,3.3261,3.3108,3.2463,3.1831,3.1852,3.0893,2.9958,3.0447,2.9721,2.8826,2.8805,2.7753,2.6753,2.6704,2.5846,2.516,2.5465,2.5406,2.5384,2.5684,2.5742,2.5742,2.5742,2.6046,2.6222,2.6222,2.6115,2.6007,2.586,2.561,2.5351,2.5198,2.5098,2.4942,2.4784,2.4492,2.4162,2.3824,2.4245,2.4287,2.3824,2.4135,2.4343,2.4492,2.4502,2.4436,2.4302,2.4302,2.4533,1.6068,1.7188,1.8341,0.0,0.0,0.0,0.0,0.0,0.0,0.0,0.0,0.0,2.8836,0.0,0.0,3.0784,3.132,3.1818,3.2431,3.1353,3.0758,3.1447,3.2048,3.2398,3.2398,3.3455,3.4101,3.4101,3.4101,3.4101,3.4101,3.4101,3.4101,3.4101,3.4101,3.4101,3.4101,3.4101,3.4101,3.4101,3.4101,3.3744,3.3097,3.3097,3.2708,3.2109,3.3501,3.3712,3.3145,3.3825,3.4101,3.4101,3.425,3.43,3.43,3.43,3.4399,3.4497,3.4497,3.4234,3.3899,3.3882,3.3177,3.2477,3.3024,3.2342,3.1371,3.1202,3.0165,2.8808,2.7705,2.7828,2.8247,2.8099,2.7125,2.6161,2.602,2.575,2.5503,2.5503,2.5864,2.6184,2.6168,2.6241,2.6295,2.6295,2.6295,2.6295,2.6295,2.5957,2.5551,2.513,2.5214,2.5082,2.4574,2.502,2.5082,2.4533,2.4436,2.4369,2.4302,2.4679,2.4719,2.4302,2.4302,2.4492,2.4902,2.4048,2.3867,2.4302,2.4302,2.4533,1.5685,1.7086,0.0,0.0,0.0,0.0,0.0,0.0,0.0,0.0,0.0,2.9993,3.0329,0.0,0.0,3.2073,3.2289,3.252,3.2609,3.2195,3.1941,3.216,3.2651,3.3108,3.3559,3.3882,3.4101,3.4101,3.4101,3.4101,3.4101,3.4101,3.4101,3.4101,3.4101,3.4101,3.4101,3.4101,3.4101,3.4101,3.4101,3.4003,3.3793,3.3793,3.368,3.3501,3.3922,3.3987,3.3809,3.4119,3.425,3.425,3.43,3.43,3.43,3.43,3.4448,3.4594,3.4201,3.3958,3.3631,3.2503,3.1862,3.1388,3.0845,2.975,2.8809,2.903,2.7902,2.6719,2.7045,2.6749,2.6408,2.6351,2.5969,2.5679,2.5869,2.5246,2.4823,2.5389,2.5368,2.5307,2.5329,2.5647,2.5868,2.5941,2.6225,2.6329,2.6063,2.5791,2.5605,2.5454,2.5717,2.5917,2.5901,2.5519,2.5291,2.5285,2.4719,2.423,2.3809,2.4271,2.4313,2.3824,2.4395,2.4461,2.3964,2.4078,2.3994,2.3824,2.4135,2.4533,1.6908,0.0,0.0,0.0,0.0,0.0,0.0,0.0,0.0,0.0,0.0,3.0871,3.123,3.1918,0.0,3.2353,3.2789,3.3113,3.3048,3.293,3.2787,3.2854,3.3049,3.3287,3.3582,3.3901,3.4101,3.4101,3.4101,3.4101,3.4101,3.4101,3.4101,3.4101,3.4101,3.4101,3.4101,3.4101,3.4101,3.4101,3.4101,3.4101,3.4101,3.4101,3.4101,3.4101,3.4151,3.4201,3.4201,3.4399,3.4399,3.43,3.4399,3.4448,3.4366,3.4121,3.4167,3.4261,3.3631,3.3127,3.2594,3.1892,3.1138,3.0392,2.9748,2.8619,2.7555,2.7258,2.6349,2.55,2.5636,2.5372,2.5153,2.547,2.545,2.5327,2.5285,2.4895,2.4679,2.5253,2.5253,2.5176,2.5329,2.5721,2.603,2.6068,2.6365,2.6347,2.5717,2.553,2.5476,2.5535,2.5954,2.6256,2.638,2.546,2.4863,2.4823,2.4775,2.4451,2.3797,2.4147,2.4297,2.4158,2.4502,2.4436,2.3937,2.4177,2.4204,2.4006,2.4599,2.4997,0.0,0.0,0.0,0.0,0.0,0.0,0.0,0.0,2.8388,3.0905,0.0,3.0206,3.156,3.1716,3.167,3.188,3.2829,3.3505,3.3505,3.342,3.3383,3.3383,3.3344,3.3187,3.3024,3.3684,3.4101,3.4101,3.4101,3.4101,3.4101,3.4101,3.4101,3.4101,3.4101,3.4101,3.4101,3.4101,3.4068,3.3987,3.3987,3.3955,3.3906,3.4036,3.4101,3.4151,3.425,3.4349,3.4349,3.4594,3.4513,3.4252,3.4496,3.4495,3.4267,3.3689,3.3598,3.3591,3.2821,3.1897,3.1164,3.1486,3.0592,2.9335,2.9108,2.8252,2.71,2.5901,2.5349,2.49,2.3932,2.3952,2.4414,2.5087,2.5182,2.5013,2.4441,2.4558,2.4823,2.5013,2.5253,2.5519,2.5791,2.617,2.6468,2.6505,2.6539,2.6297,2.5443,2.523,2.5176,2.5351,2.5901,2.6239,2.6239,2.5052,2.4135,2.3696,2.4614,2.4846,2.4067,2.4328,2.4583,2.4871,2.4517,2.4343,2.4354,2.4328,2.441,2.4623,2.5368,2.5721,0.0,1.9915,0.0,0.0,0.0,0.0,0.0,0.0,2.852,2.9641,3.0549,3.115,3.104,3.181,3.2319,3.1962,3.2449,3.2883,3.2883,3.3086,3.3225,3.3258,3.3615,3.3887,3.3834,3.4018,3.4101,3.4101,3.4101,3.4101,3.4101,3.4101,3.4101,3.4101,3.4101,3.4101,3.4101,3.4101,3.3711,3.2999,3.2999,3.2822,3.2498,3.3599,3.4151,3.425,3.4399,3.4497,3.4594,3.4707,3.4297,3.374,3.3834,3.3488,3.2899,3.278,3.2821,3.2788,3.1789,3.1198,3.0669,2.9067,2.8217,2.7603,2.671,2.5873,2.5242,2.5346,2.4696,2.399,2.4124,2.3952,2.3812,2.3947,2.3993,2.4033,2.4317,2.4204,2.4162,2.463,2.4735,2.4974,2.5422,2.5721,2.6033,2.659,2.6123,2.5908,2.6315,2.5275,2.4492,2.4574,2.5779,2.6607,2.6607,2.5176,2.4261,2.4177,2.4219,2.4276,2.4219,2.4719,2.4679,2.4151,2.4385,2.4385,2.4094,2.4395,2.4542,2.4623,2.5406,2.5795,0.0,0.0,0.0,0.0,0.0,0.0,0.0,2.9417,2.8969,2.9334,2.9764,2.998,2.9714,3.0458,3.1037,3.0762,3.1528,3.2216,3.2343,3.2867,3.3416,3.3955,3.4065,3.4119,3.412,3.4105,3.4088,3.4088,3.4086,3.4101,3.4101,3.4103,3.4088,3.4088,3.2805,3.2079,3.2079,3.2773,3.2757,3.2047,3.2047,3.203,3.2122,3.2869,3.3242,3.329,3.3465,3.359,3.3637,3.37,3.3469,3.3077,3.3168,3.2875,3.2451,3.2166,3.2122,3.1979,3.0513,2.9836,2.9284,2.7596,2.676,2.635,2.5423,2.4896,2.4597,2.4531,2.4038,2.3681,2.3967,2.3867,2.3696,2.3782,2.3909,2.4021,2.4105,2.4162,2.4287,2.4614,2.4815,2.5036,2.5556,2.5944,2.628,2.6657,2.5689,2.5351,2.6539,2.598,2.5465,2.5465,2.621,2.6401,2.5615,2.4799,2.4302,2.4302,2.4177,2.4193,2.4317,2.4574,2.4639,2.4492,2.4385,2.4343,2.4369,2.4719,2.5059,2.5335,2.5905,2.6208,0.0,0.0,0.0,0.0,0.0,0.0,0.0,2.9417,2.9417,2.9417,2.9069,2.8754,2.8754,2.9218,2.9599,2.9599,3.0626,3.1487,3.1696,3.2299,3.3072,3.4041,3.3736,3.3452,3.3373,3.3385,3.3583,3.4071,3.4072,3.4087,3.4087,3.4121,3.386,3.3372,3.1118,2.999,3.0148,3.1292,3.1659,3.1243,3.1114,3.1334,3.1824,3.187,3.2047,3.2275,3.2471,3.2545,3.2545,3.2635,3.2569,3.2364,3.2453,3.237,3.21,3.1593,3.1351,3.1067,2.928,2.8442,2.786,2.65,2.5849,2.5408,2.4657,2.4448,2.4328,2.3759,2.3595,2.3653,2.3782,2.3839,2.3839,2.3982,2.4177,2.4287,2.3925,2.4245,2.4655,2.4815,2.5075,2.5406,2.5577,2.621,2.6691,2.6691,2.5577,2.5214,2.6539,2.6691,2.6691,2.6691,2.6691,2.6175,2.4839,2.4451,2.4426,2.4719,2.4719,2.4719,2.4719,2.4451,2.4492,2.4942,2.4369,2.4302,2.4815,2.5114,2.554,2.6104,2.6469,2.6657,0.0,0.0,0.0,0.0,0.0,0.0,0.0,0.0,2.9417,0.0,2.9847,3.0228,3.0228,3.0311,3.0377,3.0377,3.0543,3.0675,3.0709,3.0787,3.092,3.1057,3.1026,3.0862,3.0473,3.043,3.1465,3.3928,3.4112,3.4083,3.4083,3.4098,3.2963,3.0545,3.0085,3.0291,3.1117,3.1292,3.1257,3.0962,3.0405,3.0233,3.031,3.0527,3.1287,3.2455,3.259,3.268,3.268,3.268,3.2315,3.1725,3.1725,3.1328,3.0749,3.0667,3.0389,2.987,2.8626,2.812,2.7677,2.5545,2.5061,2.5144,2.407,2.3729,2.3714,2.3625,2.3696,2.3782,2.3797,2.3882,2.3982,2.3982,2.4124,2.4208,2.4166,2.4467,2.4815,2.4863,2.5389,2.554,2.4639,2.5726,2.6691,2.6691,2.6505,2.647,2.6657,2.6691,2.6691,2.6691,2.6691,2.6607,2.6401,2.5082,2.4902,2.628,2.6385,2.6385,2.6385,2.5059,2.4343,2.4426,2.4302,2.4451,2.4879,2.5275,2.5689,2.6104,2.6505,2.6691,0.0,0.0,0.0,0.0,0.0,0.0,0.0,0.0,2.9417,2.9417,2.9996,3.0278,2.9466,2.9632,2.984,2.9757,3.0154,3.0526,3.0526,3.0509,3.0507,3.0497,3.0484,3.043,3.0261,3.0235,3.0639,3.1655,3.173,3.1765,3.1765,3.1746,3.1186,2.9936,2.9916,2.9902,2.9893,3.0312,3.0461,3.0401,3.0223,3.0,2.9782,3.0,3.0516,3.1358,3.1427,3.147,3.147,3.147,3.1288,3.0957,3.0543,3.0444,3.0369,2.9338,2.9065,2.9006,2.7455,2.6904,2.6619,2.4971,2.4579,2.4602,2.3814,2.3595,2.3595,2.3595,2.3696,2.3839,2.3882,2.4024,2.4124,2.4151,2.4193,2.425,2.425,2.4385,2.4614,2.4942,2.5726,2.621,2.5726,2.6245,2.6691,2.6691,2.6691,2.635,2.5465,2.5351,2.5689,2.6607,2.6691,2.6691,2.6691,2.6052,2.5944,2.6657,2.5835,2.5351,2.5351,2.4679,2.4533,2.4981,2.4533,2.4614,2.5237,2.5427,2.5835,2.6436,2.6624,2.6691,0.0,0.0,0.0,0.0,0.0,0.0,0.0,0.0,2.9152,0.0,2.9582,2.9698,2.8804,2.9218,2.9625,2.9468,3.0038,3.0526,3.0526,3.0526,3.0526,3.0526,3.0518,3.0509,3.0509,3.051,3.0402,3.0103,3.0028,3.0052,3.0052,3.0045,3.0024,2.9887,2.9967,2.9722,2.913,2.9705,2.9946,2.9886,3.0,2.9913,2.9617,2.975,2.9941,3.0274,3.03,3.0342,3.0342,3.0426,3.0426,3.0276,2.9873,2.9947,3.0152,2.8762,2.8505,2.8651,2.7079,2.6414,2.6062,2.4947,2.4456,2.4219,2.3739,2.3595,2.3638,2.3739,2.3824,2.3882,2.4109,2.4193,2.425,2.4317,2.4302,2.4343,2.441,2.4492,2.4639,2.5121,2.6016,2.6573,2.6175,2.6436,2.6691,2.6691,2.6691,2.6139,2.4492,2.4302,2.4902,2.6539,2.6691,2.6691,2.6691,2.6691,2.6539,2.6139,2.4981,2.4302,2.4302,2.4492,2.4902,2.5503,2.4902,2.4942,2.5652,2.5652,2.6016,2.6691,2.6691,2.6691,0.0,0.0,0.0,0.0,0.0,0.0,0.0,0.0,2.8439,2.8439,2.8456,2.8671,2.9251,2.9963,3.046,3.0444,3.0493,3.0526,3.0526,3.0526,3.0526,3.0526,3.0485,3.0485,3.0485,3.0509,3.05,3.0483,3.0497,3.0461,3.0461,3.0461,3.0277,2.9924,3.0136,3.0195,2.9913,3.0103,2.9973,2.9515,2.9589,2.9633,2.9617,2.975,2.9793,2.9853,2.9837,2.9853,2.9897,3.0342,3.0241,2.9881,3.0293,3.0166,2.9837,2.9713,2.9448,2.8962,2.8234,2.7537,2.6788,2.5703,2.4883,2.4219,2.3739,2.3595,2.3681,2.4135,2.4135,2.4067,2.4467,2.4426,2.4317,2.4302,2.4302,2.441,2.4799,2.4981,2.5121,2.5427,2.6139,2.621,2.4679,2.5689,2.6691,2.6691,2.6691,2.6139,2.4492,2.4302,2.4902,2.6539,2.6691,2.6691,2.6691,2.6691,2.6068,2.4533,2.4343,2.4302,2.4302,2.502,2.5465,2.5503,2.5465,2.5652,2.6068,2.6068,2.628,2.6691,2.6691,2.6691,0.0,0.0,0.0,0.0,0.0,2.2986,2.3948,2.5678,2.7075,2.7131,2.7861,2.8555,2.8843,2.9397,2.9963,3.0444,3.0526,3.0526,3.0526,3.0526,3.0526,3.0526,3.0526,3.0526,3.0526,3.0501,3.0501,3.0501,3.0492,3.0509,3.0509,3.0516,3.0382,3.0166,3.0231,3.0205,3.0103,2.9853,2.981,3.006,3.0087,3.0,2.9705,2.9483,2.9348,2.9348,2.9012,2.9012,2.9393,2.9853,2.9941,2.9761,2.9463,2.9518,2.9636,2.8458,2.8208,2.836,2.7648,2.6952,2.6251,2.5567,2.4872,2.4302,2.4173,2.3879,2.3724,2.4369,2.4477,2.441,2.4317,2.4317,2.4385,2.4639,2.4759,2.4839,2.4902,2.4719,2.4599,2.4719,2.4981,2.5313,2.5762,2.6315,2.6367,2.5313,2.516,2.4942,2.4385,2.5198,2.6052,2.6657,2.6691,2.6691,2.6691,2.5762,2.5351,2.5799,2.4863,2.4759,2.5799,2.6139,2.628,2.628,2.5944,2.5872,2.6104,2.6104,2.6315,2.6691,2.6691,2.6691,1.4546,0.0,0.0,0.0,0.0,2.0844,2.2645,2.4147,2.5346,2.5915,2.6783,2.7581,2.8119,2.851,2.9031,2.9879,3.0277,3.0517,3.0493,3.0518,3.0526,3.0526,3.0526,3.0526,3.0526,3.0526,3.0303,2.9824,3.0228,0.0,2.9831,2.9806,2.9749,2.9683,2.9823,2.9929,2.9955,2.9811,2.9924,3.0189,3.0189,3.0,2.9572,2.9257,2.9074,2.9074,2.8732,2.8685,2.8873,2.9348,2.9483,2.9284,2.8954,2.9006,2.9175,2.7881,2.776,2.8089,2.7619,2.6867,2.6056,2.5787,2.5056,2.4287,2.4364,2.4158,2.4006,2.4768,2.4759,2.4492,2.4385,2.441,2.4574,2.4839,2.502,2.502,2.4759,2.4492,2.4302,2.4302,2.4719,2.5465,2.6505,2.6245,2.554,2.4451,2.4302,2.4302,2.4302,2.5689,2.6691,2.6691,2.6691,2.647,2.5944,2.4902,2.4981,2.6624,2.5689,2.5577,2.6657,2.6691,2.6691,2.6691,2.635,2.621,2.628,2.628,2.6436,2.6691,2.6691,2.6691,0.0,0.0,0.0,0.0,0.0,0.0,2.2391,0.0,2.3331,2.4879,2.523,2.5681,2.7136,2.742,2.7771,2.8829,2.9822,3.0442,3.043,3.0451,3.046,3.046,3.046,3.0477,3.0477,3.046,2.9881,2.8493,2.9646,2.9799,2.8461,2.8373,2.8412,2.8412,2.8949,2.9296,2.9383,3.0096,3.0192,2.9745,2.9761,2.954,2.9088,2.9088,2.9088,2.9088,2.9088,2.8748,2.8321,2.8873,2.8779,2.84,2.8889,2.8779,2.8288,2.8304,2.8288,2.8288,2.8288,2.7489,2.6378,2.6378,2.5469,2.4343,2.4405,2.442,2.4542,2.5275,2.4879,2.4317,2.4799,2.4902,2.4902,2.4942,2.502,2.4981,2.4451,2.4302,2.4302,2.4302,2.5577,2.6657,2.6624,2.5313,2.4317,2.4385,2.4385,2.4385,2.4385,2.5726,2.6691,2.6691,2.6657,2.598,2.441,2.4343,2.5059,2.6624,2.6691,2.6691,2.6691,2.6691,2.6691,2.6691,2.6691,2.6691,2.6691,2.6691,2.6691,2.6691,2.6691,2.6691,1.3449,0.0,0.0,0.0,0.0,0.0,0.0,0.0,2.1078,2.271,2.3418,2.4089,2.5141,2.5747,2.6219,2.6454,2.7942,2.9048,2.9065,2.8998,2.8969,2.8969,2.9264,2.9493,2.9493,2.9198,2.8837,0.0,2.7777,2.7502,2.7805,2.8185,2.8412,2.8412,2.8572,2.8671,2.8671,2.887,2.893,2.881,2.9264,2.9453,2.9328,2.8973,2.8801,2.8801,2.845,2.7982,2.7596,2.8669,2.9028,2.8889,2.9028,2.8779,2.8352,2.8748,2.8638,2.8288,2.8288,2.7489,2.6378,2.6303,2.5407,2.4486,2.5182,2.5121,2.4823,2.5137,2.5059,2.4942,2.5237,2.5313,2.5389,2.5577,2.5652,2.5577,2.5237,2.4719,2.4302,2.4302,2.5137,2.5652,2.5044,2.4599,2.4679,2.5872,2.6033,2.6033,2.6033,2.6419,2.6691,2.6691,2.5652,2.4784,2.4343,2.5351,2.6245,2.6657,2.6691,2.6691,2.6691,2.6691,2.6691,2.6691,2.6691,2.6691,2.6691,2.6691,2.6691,2.6691,2.6691,2.6691,0.0,0.0,0.0,0.0,0.0,0.0,1.8684,1.9402,2.0341,0.0,2.3017,2.354,2.434,2.4831,2.5135,2.5088,2.6302,2.7453,2.7998,2.8289,2.845,2.845,2.8671,2.8788,2.8788,2.8357,2.8037,2.7964,2.6847,2.6444,2.6982,2.7309,2.7479,2.7479,2.776,2.7964,2.7964,2.8262,2.8412,2.8412,2.8787,2.889,2.8657,2.8354,2.823,2.823,2.7763,2.7632,2.7735,2.8075,2.8462,2.8779,2.9028,2.8935,2.8638,2.8732,2.8591,2.824,2.8076,2.7254,2.6303,2.6227,2.559,2.495,2.5406,2.5291,2.5098,2.5351,2.5427,2.5465,2.5689,2.5726,2.5726,2.5872,2.6052,2.6016,2.516,2.516,2.5082,2.441,2.5198,2.5652,2.4492,2.4302,2.4823,2.647,2.6691,2.6691,2.6691,2.6691,2.6436,2.5762,2.4863,2.4302,2.4302,2.5762,2.6691,2.6691,2.6691,2.6691,2.6691,2.6691,2.6691,2.6691,2.6691,2.6691,2.6691,2.6691,2.6691,2.6691,2.6691,2.6691,0.0,1.6636,0.0,0.0,1.7938,0.0,2.0063,2.0056,2.026,0.0,2.2873,2.3093,2.3849,2.412,2.4239,2.4239,2.4886,2.5816,2.7105,2.7868,2.8277,2.8277,2.8201,2.8163,2.8163,2.7712,2.7382,2.7181,2.657,2.6204,2.6184,2.622,2.622,2.622,2.6833,2.7201,2.7201,2.781,2.8141,2.8141,2.8262,2.803,2.7567,2.7567,2.7567,2.7527,2.7214,2.7478,2.8141,2.7435,2.763,2.8356,2.8777,2.893,2.8902,2.8436,2.8216,2.8088,2.7667,2.6929,2.6193,2.6238,2.593,2.554,2.5422,2.5346,2.5368,2.5799,2.5908,2.5908,2.6087,2.6016,2.5908,2.598,2.635,2.6315,2.4863,2.5689,2.628,2.4823,2.5726,2.6175,2.4574,2.4451,2.5044,2.647,2.6691,2.6691,2.6691,2.6539,2.5872,2.4451,2.4451,2.4574,2.4574,2.5872,2.6691,2.6691,2.6691,2.6691,2.6691,2.6691,2.6691,2.6691,2.6691,2.6691,2.6691,2.6691,2.6691,2.6691,2.6691,2.6691,1.7519,1.8104,1.8634,1.716,1.7557,0.0,1.7439,1.7662,1.8261,0.0,1.9621,1.9855,2.0646,2.1782,2.2572,2.2572,2.3712,2.489,2.5765,2.6469,2.6885,2.6885,2.6781,2.6692,2.6692,2.6587,2.6465,2.6419,2.6283,2.6217,2.622,2.622,2.622,2.622,2.6352,2.6419,2.6419,2.6568,2.6634,2.6651,2.7214,2.7441,2.7349,2.7349,2.7349,2.7349,2.7273,2.7104,2.6942,2.7781,2.8298,2.8554,2.8078,2.8035,2.8158,2.7833,2.7513,2.7196,2.7149,2.6643,2.6103,2.6527,2.6314,2.5977,2.6225,2.6137,2.5944,2.6033,2.5835,2.5726,2.6401,2.6245,2.6016,2.6436,2.6607,2.6607,2.628,2.647,2.6624,2.628,2.6505,2.6175,2.4574,2.5389,2.635,2.6657,2.6691,2.6691,2.6691,2.5577,2.4639,2.4343,2.5465,2.6245,2.6245,2.6505,2.6691,2.6691,2.6691,2.6691,2.6691,2.6691,2.6691,2.6691,2.6691,2.6691,2.6691,2.6691,2.6691,2.6691,2.6691,2.6691,1.9268,1.9611,1.9893,1.8825,0.0,0.0,0.0,1.8601,1.8926,2.0104,1.9796,1.9512,2.0317,2.1055,2.1558,2.1558,2.2841,2.3964,2.432,2.4993,2.5446,2.5446,2.5313,2.5263,2.5263,2.5213,2.5345,2.5711,2.5744,2.5911,2.6241,2.6258,2.6222,2.622,2.622,2.622,2.622,2.622,2.622,2.622,2.6568,2.675,2.675,2.675,2.675,2.675,2.65,2.6389,2.6363,2.6798,2.7355,2.801,2.801,2.8062,2.8174,2.7843,2.755,2.7301,2.7142,2.6789,2.6437,2.6727,2.6533,2.6277,2.6277,2.6208,2.6104,2.6104,2.6104,2.621,2.659,2.6505,2.6367,2.6624,2.6691,2.6691,2.6691,2.6691,2.6691,2.6691,2.6052,2.5237,2.4451,2.5652,2.6691,2.6691,2.6691,2.6691,2.6691,2.5313,2.4302,2.4302,2.5726,2.6691,2.6691,2.6691,2.6691,2.6691,2.6691,2.6691,2.6691,2.6691,2.6691,2.6691,2.6691,2.6691,2.6691,2.6691,2.6691,2.6691,2.6691,2.6808,2.1166,2.1083,2.105,2.0833,0.0,2.0933,0.0,0.0,0.0,2.1306,2.0632,2.0013,0.0,0.0,0.0,2.0732,0.0,0.0,0.0,2.3231,0.0,2.432,2.429,2.4242,2.4193,2.4059,2.4293,2.5029,2.4929,2.5163,2.5863,2.6047,2.6095,2.6023,2.6156,2.6239,2.6239,2.6203,2.622,2.622,2.622,2.622,2.622,2.622,2.622,2.6168,2.5795,2.5885,2.6187,2.5832,2.6266,2.7205,2.7765,2.808,2.8141,2.7689,2.7522,2.7522,2.7171,2.6942,2.6775,2.6759,2.6654,2.6503,2.6225,2.6156,2.621,2.621,2.6436,2.6691,2.6691,2.6691,2.6691,2.6691,2.6691,2.6691,2.6691,2.6691,2.6691,2.6691,2.5652,2.4759,2.4759,2.5835,2.6691,2.6691,2.6691,2.6691,2.6691,2.5577,2.4759,2.4759,2.5908,2.6691,2.6691,2.6691,2.6691,2.6691,2.6691,2.6691,2.6691,2.6691,2.6691,2.6691,2.6691,2.6691,2.6691,2.6775,2.6775,2.6691,2.6742,2.6925,0.0,0.0,0.0,0.0,2.1545,0.0,0.0,0.0,2.045,1.9959,0.0,0.0,0.0,0.0,0.0,0.0,0.0,0.0,2.0184,2.0849,2.2111,2.4087,2.437,2.4322,2.4193,2.3529,2.3462,2.426,2.3646,2.3612,2.4411,2.5079,2.5397,2.5397,2.5962,2.6295,2.6295,2.6222,2.622,2.622,2.622,2.622,2.622,2.622,2.622,2.6203,2.6206,2.626,2.6295,2.6364,2.6465,2.6584,2.649,2.6869,2.7424,2.6742,2.6562,2.6666,2.6668,2.6652,2.662,2.669,2.6691,2.6674,2.6624,2.6624,2.6624,2.6624,2.6657,2.6691,2.6691,2.6691,2.6691,2.6691,2.6691,2.6691,2.6691,2.6691,2.6691,2.6691,2.6539,2.6436,2.6436,2.6573,2.6691,2.6691,2.6691,2.6691,2.6691,2.6539,2.6436,2.6436,2.6573,2.6691,2.6691,2.6691,2.6691,2.6691,2.6691,2.6691,2.6691,2.6691,2.6691,2.6691,2.6691,2.6691,2.6691,2.7072,2.704,2.6691,2.6892,2.6975,0.0,0.0,0.0,0.0,0.0,0.0,2.0773,0.0,2.0927,0.0,0.0,0.0,0.0,0.0,0.0,0.0,1.993,0.0,0.0,0.0,2.072,2.1642,0.0,0.0,2.2358,2.2094,2.2425,2.3644,2.2979,2.305,2.4255,2.4624,2.4961,2.5297,2.5564,2.5948,2.6417,2.638,2.6345,2.6258,2.6258,2.6258,2.6258,2.6258,2.6293,2.6397,2.6399,2.6434,2.6434,2.6485,2.6485,2.6485,2.6415,2.6564,2.6852,2.6569,2.6503,2.6589,2.6623,2.6657,2.664,2.6691,2.6691,2.6691,2.6691,2.6691,2.6691,2.6691,2.6691,2.6691,2.6691,2.6691,2.6691,2.6691,2.6691,2.6691,2.6691,2.6691,2.6691,2.6691,2.6691,2.6691,2.6691,2.6691,2.6691,2.6691,2.6691,2.6691,2.6691,2.6691,2.6691,2.6691,2.6691,2.6691,2.6691,2.6691,2.6808,2.7023,2.6842,2.6691,2.6691,2.6691,2.6808,2.7023,2.704,2.704,2.704,2.7218,2.7218,2.704,2.7007,2.704,2.301,0.0,0.0,0.0,0.0,0.0,0.0,0.0,0.0,0.0,0.0,0.0,0.0,0.0,0.0,0.0,0.0,1.9531,0.0,1.9151,0.0,0.0,0.0,0.0,0.0,2.0572,2.1086,2.2654,2.2006,2.2231,2.3759,2.4028,2.4334,2.476,2.5162,2.5648,2.6201,2.6419,2.6434,2.6347,2.6347,2.6347,2.6347,2.6347,2.6399,2.6485,2.652,2.652,2.652,2.6554,2.6537,2.6537,2.6537,2.6537,2.6572,2.6589,2.6606,2.6623,2.6674,2.6691,2.6691,2.6691,2.6691,2.6691,2.6691,2.6691,2.6691,2.6691,2.6691,2.6691,2.6691,2.6691,2.6691,2.6691,2.6691,2.6691,2.6691,2.6691,2.6691,2.6691,2.6691,2.6691,2.6691,2.6691,2.6691,2.6691,2.6691,2.6691,2.6691,2.6691,2.6691,2.6691,2.6808,2.6875,2.6875,2.6875,2.6957,2.7137,2.6842,2.6691,2.6691,2.6808,2.699,2.7282,2.7299,2.7299,2.7299,2.7299,2.7299,2.7299,2.7154,2.7154,0.0,0.0,0.0,2.2189,0.0,0.0,0.0,0.0,2.1721,0.0,0.0,0.0,0.0,0.0,0.0,0.0,0.0,0.0,0.0,0.0,0.0,0.0,0.0,0.0,0.0,1.9227,1.9428,0.0,2.0437,2.0673,2.2265,2.3054,2.3444,2.346,2.477,2.5512,2.5529,2.6202,2.6485,2.6485,2.6485,2.6485,2.6485,2.6485,2.6485,2.6485,2.6589,2.6589,2.6606,2.6674,2.6691,2.6691,2.6691,2.6691,2.6708,2.664,2.6623,2.6691,2.6691,2.6691,2.6691,2.6691,2.6691,2.6691,2.6691,2.6691,2.6691,2.6691,2.6691,2.6691,2.6691,2.6691,2.6691,2.6691,2.6691,2.6691,2.6691,2.6691,2.6691,2.6691,2.6691,2.6691,2.6691,2.6691,2.6691,2.6691,2.6691,2.6691,2.6691,2.6691,2.6691,2.6691,2.704,2.7299,2.7299,2.7299,2.7105,2.6725,2.6691,2.6691,2.6691,2.7072,2.7299,2.7299,2.7299,2.7299,2.7299,2.7299,2.7299,2.7299,2.7282,2.7233,0.0,0.0,2.4163,2.2624,0.0,0.0,0.0,0.0,0.0,0.0,0.0,0.0,0.0,0.0,0.0,0.0,0.0,0.0,0.0,0.0,0.0,0.0,0.0,0.0,0.0,0.0,0.0,2.0969,2.0396,0.0,2.2226,2.2547,2.2902,2.3376,2.3853,2.458,2.5576,2.5797,2.6118,2.6554,2.6554,2.6554,2.6554,2.6554,2.6606,2.6607,2.664,2.6674,2.6674,2.6691,2.6691,2.6691,2.6691,2.6691,2.6691,2.6674,2.6674,2.6691,2.6691,2.6691,2.6691,2.6691,2.6691,2.6691,2.6691,2.6691,2.6691,2.6691,2.6691,2.6691,2.6691,2.6691,2.6691,2.6691,2.6691,2.6691,2.6691,2.6691,2.6691,2.6691,2.6691,2.6691,2.6691,2.6691,2.6691,2.6691,2.6691,2.6691,2.6691,2.6925,2.7105,2.7105,2.7218,2.7299,2.7299,2.7299,2.725,2.7105,2.7105,2.7105,2.7105,2.7218,2.7299,2.7299,2.7299,2.7299,2.7299,2.7299,2.7299,2.7299,2.7299,2.7282,2.4086,2.4577,0.0,2.3566,2.3714,0.0,2.2739,0.0,2.2588,0.0,0.0,0.0,0.0,0.0,0.0,0.0,0.0,0.0,0.0,1.6463,0.0,0.0,0.0,0.0,0.0,0.0,1.9102,2.0194,2.0119,0.0,0.0,2.2175,2.253,2.2987,2.3257,2.3849,2.4814,2.5355,2.583,2.6253,2.6505,2.6623,2.6623,2.6623,2.664,2.6691,2.6691,2.6691,2.6691,2.6691,2.6691,2.6691,2.6691,2.6691,2.6691,2.6691,2.6691,2.6691,2.6691,2.6691,2.6691,2.6691,2.6691,2.6691,2.6691,2.6691,2.6691,2.6691,2.6691,2.6691,2.6691,2.6691,2.6691,2.6691,2.6691,2.6691,2.6691,2.6691,2.6691,2.6691,2.6691,2.6725,2.6808,2.6808,2.6775,2.6691,2.6691,2.6758,2.6875,2.7137,2.7299,2.7299,2.7299,2.7299,2.7299,2.7299,2.7299,2.7299,2.7299,2.7299,2.7299,2.7299,2.7299,2.7299,2.7299,2.7299,2.7299,2.7299,2.7299,2.7299,2.7299,2.7299]},{"header":{"parameterUnit":"m.s-1","parameterCategory":1,"la1":30.6,"la2":29.2853,"lo1":-89.7004,"lo2":-87.6739,"dy":0.0162,"dx":0.0183,"nx":112,"ny":82,"refTime":"2024-07-10T06:00:00:Z","depth":0,"parameterNumber":3,"parameterNumberName":"V-component_of_WINDS"},"data":[0.0,0.0,0.0,0.0,0.0,0.0,0.0,0.0,0.0,0.0,0.0,0.0,0.0,0.0,0.0,0.0,0.0,0.0,0.0,0.0,0.0,0.0,0.0,0.0,0.0,0.0,0.0,0.0,0.0,0.0,0.0,0.0,0.0,0.0,0.0,0.0,0.0,0.0,0.0,0.0,0.0,0.0,0.0,0.0,0.0,0.0,0.0,0.0,0.0,0.0,0.0,0.0,0.0,0.0,0.0,0.0,0.0,0.0,0.0,0.0,0.0,0.0,0.0,0.0,0.0,0.0,0.0,0.0,0.0,0.0,0.0,0.0,0.0,0.0,0.0,0.0,0.0,0.0,0.0,0.0,0.0,0.0,0.0,0.0,0.0,0.0,0.0,0.0,0.0,0.0,-0.8429,-0.9009,-1.028,-1.1176,-1.1341,-1.0864,-1.0266,-0.9656,0.0,0.0,0.0,0.0,0.0,0.0,0.0,0.0,0.0,0.0,0.0,0.0,0.0,0.0,0.0,0.0,0.0,0.0,0.0,0.0,0.0,0.0,0.0,0.0,0.0,0.0,0.0,0.0,0.0,0.0,0.0,0.0,0.0,0.0,0.0,0.0,0.0,0.0,0.0,0.0,0.0,0.0,0.0,0.0,0.0,0.0,0.0,0.0,0.0,0.0,0.0,0.0,0.0,0.0,0.0,0.0,0.0,0.0,0.0,0.0,0.0,0.0,0.0,0.0,0.0,0.0,0.0,0.0,0.0,0.0,0.0,0.0,0.0,0.0,0.0,0.0,0.0,0.0,0.0,0.0,0.0,0.0,0.0,0.0,0.0,0.0,0.0,0.0,0.0,0.0,0.0,0.0,0.0,0.0,0.0,0.0,0.0,0.0,0.0,0.0,0.0,0.0,0.0,0.0,-0.8373,-1.0042,-1.0499,-1.103,-1.1887,-1.0851,-1.0274,-1.0487,0.0,0.0,0.0,0.0,0.0,0.0,0.0,0.0,0.0,0.0,0.0,0.0,0.0,0.0,0.0,0.0,0.0,0.0,0.0,0.0,0.0,0.0,0.0,0.0,0.0,0.0,0.0,0.0,0.0,0.0,0.0,0.0,0.0,0.0,0.0,0.0,0.0,0.0,0.0,0.0,0.0,0.0,0.0,0.0,0.0,0.0,0.0,0.0,0.0,0.0,0.0,0.0,0.0,0.0,0.0,0.0,0.0,0.0,0.0,0.0,0.0,0.0,0.0,0.0,0.0,0.0,0.0,0.0,0.0,0.0,0.0,0.0,0.0,0.0,0.0,0.0,0.0,0.0,0.0,0.0,0.0,0.0,0.0,0.0,0.0,0.0,0.0,0.0,0.0,0.0,0.0,0.0,0.0,0.0,0.0,0.0,0.0,0.0,0.0,0.0,0.0,0.0,0.0,-0.8486,-0.9262,-1.0818,-1.1378,-1.1732,-1.1966,-1.094,-1.0237,-1.0283,-0.855,0.0,0.0,0.0,0.0,0.0,0.0,0.0,0.0,0.0,0.0,0.0,0.0,0.0,0.0,0.0,0.0,0.0,0.0,0.0,0.0,0.0,0.0,0.0,0.0,0.0,0.0,0.0,0.0,0.0,0.0,0.0,0.0,0.0,0.0,0.0,0.0,0.0,0.0,0.0,0.0,0.0,0.0,0.0,0.0,0.0,0.0,0.0,0.0,0.0,0.0,0.0,0.0,0.0,0.0,0.0,0.0,0.0,0.0,0.0,0.0,0.0,0.0,0.0,0.0,0.0,0.0,0.0,0.0,0.0,0.0,0.0,0.0,0.0,0.0,0.0,0.0,0.0,0.0,0.0,0.0,0.0,0.0,0.0,0.0,0.0,0.0,0.0,0.0,0.0,0.0,0.0,0.0,0.0,0.0,0.0,0.0,0.0,0.0,0.0,0.0,0.0,0.0,-0.958,-1.0438,-1.1445,-1.2035,-1.2274,-1.2126,-1.0946,-1.0166,-1.0049,-0.822,0.0,0.0,0.0,0.0,0.0,0.0,0.0,0.0,0.0,0.0,0.0,0.0,0.0,0.0,0.0,0.0,0.0,0.0,0.0,0.0,0.0,0.0,0.0,0.0,0.0,0.0,0.0,0.0,0.0,0.0,0.0,0.0,0.0,0.0,0.0,0.0,0.0,0.0,0.0,0.0,0.0,0.0,0.0,0.0,0.0,0.0,0.0,0.0,0.0,0.0,0.0,0.0,0.0,0.0,0.0,0.0,0.0,0.0,0.0,0.0,0.0,0.0,0.0,0.0,0.0,0.0,0.0,0.0,0.0,0.0,0.0,0.0,0.0,0.0,0.0,0.0,0.0,0.0,0.0,0.0,0.0,0.0,0.0,0.0,0.0,0.0,0.0,0.0,0.0,0.0,0.0,0.0,0.0,0.0,0.0,0.0,0.0,0.0,0.0,0.0,0.0,0.0,-1.0079,-1.1464,-1.1981,-1.2003,-1.2175,-1.2783,-1.0886,-0.9929,-1.0487,-0.8271,0.0,0.0,0.0,0.0,0.0,0.0,0.0,0.0,0.0,0.0,0.0,0.0,0.0,0.0,0.0,0.0,0.0,0.0,0.0,0.0,0.0,0.0,0.0,0.0,0.0,0.0,0.0,0.0,0.0,0.0,0.0,0.0,0.0,0.0,0.0,0.0,0.0,0.0,0.0,0.0,0.0,0.0,0.0,0.0,0.0,0.0,0.0,0.0,0.0,0.0,0.0,0.0,0.0,0.0,0.0,0.0,0.0,0.0,0.0,0.0,0.0,0.0,0.0,0.0,0.0,0.0,0.0,0.0,0.0,0.0,0.0,0.0,0.0,0.0,0.0,0.0,0.0,0.0,0.0,0.0,0.0,0.0,0.0,0.0,0.0,0.0,0.0,0.0,0.0,0.0,0.0,0.0,0.0,0.0,0.0,0.0,0.0,0.0,0.0,0.0,0.0,0.0,-0.9775,-1.11,-1.2073,-1.232,-1.2382,-1.2382,-1.1379,-1.0522,-1.0147,0.0,0.0,0.0,0.0,0.0,0.0,0.0,0.0,0.0,0.0,0.0,0.0,0.0,0.0,0.0,0.0,0.0,0.0,0.0,0.0,0.0,0.0,0.0,0.0,0.0,0.0,0.0,0.0,0.0,0.0,0.0,0.0,0.0,0.0,0.0,0.0,0.0,0.0,0.0,0.0,0.0,0.0,0.0,0.0,0.0,0.0,0.0,0.0,0.0,0.0,0.0,0.0,0.0,0.0,0.0,0.0,0.0,0.0,0.0,0.0,0.0,0.0,0.0,0.0,0.0,0.0,0.0,0.0,0.0,0.0,0.0,0.0,0.0,0.0,0.0,0.0,0.0,0.0,0.0,0.0,0.0,0.0,0.0,0.0,0.0,0.0,0.0,0.0,0.0,0.0,0.0,0.0,0.0,0.0,0.0,0.0,0.0,0.0,0.0,0.0,0.0,0.0,-0.8576,-0.9851,-1.11,-1.2314,-1.2599,-1.257,-1.2136,-1.1469,-1.0656,-0.9658,0.0,0.0,0.0,0.0,0.0,0.0,0.0,0.0,0.0,0.0,0.0,0.0,0.0,0.0,0.0,0.0,0.0,0.0,0.0,0.0,0.0,0.0,0.0,0.0,0.0,0.0,0.0,0.0,0.0,0.0,0.0,0.0,0.0,0.0,0.0,0.0,0.0,0.0,0.0,0.0,0.0,0.0,0.0,0.0,0.0,0.0,0.0,0.0,0.0,0.0,0.0,0.0,0.0,0.0,0.0,0.0,0.0,0.0,0.0,0.0,0.0,0.0,0.0,0.0,0.0,0.0,0.0,0.0,0.0,0.0,0.0,0.0,0.0,0.0,0.0,0.0,0.0,0.0,0.0,0.0,0.0,0.0,0.0,0.0,0.0,0.0,0.0,0.0,0.0,0.0,0.0,0.0,0.0,0.0,0.0,0.0,0.0,0.0,0.0,0.0,0.0,0.0,-0.9107,-1.0488,-1.1788,-1.2793,-1.2774,-1.2551,-1.2219,-1.1122,-1.0056,0.0,0.0,0.0,0.0,0.0,0.0,0.0,0.0,0.0,0.0,0.0,0.0,0.0,0.0,0.0,0.0,0.0,0.0,0.0,0.0,0.0,0.0,0.0,0.0,0.0,0.0,0.0,0.0,0.0,0.0,0.0,0.0,0.0,0.0,0.0,0.0,0.0,0.0,0.0,0.0,0.0,0.0,0.0,0.0,0.0,0.0,0.0,0.0,0.0,0.0,0.0,0.0,0.0,0.0,0.0,0.0,0.0,0.0,0.0,0.0,0.0,0.0,0.0,0.0,0.0,0.0,0.0,0.0,0.0,0.0,0.0,0.0,0.0,0.0,0.0,0.0,0.0,0.0,0.0,0.0,0.0,0.0,0.0,0.0,0.0,0.0,0.0,0.0,0.0,0.0,0.0,0.0,0.0,0.0,0.0,0.0,0.0,0.0,0.0,0.0,0.0,0.0,0.0,-0.9107,-1.0587,-1.1904,-1.2783,-1.256,-1.2326,-1.219,-1.1286,-1.0332,-0.9263,0.0,0.0,0.0,0.0,0.0,0.0,0.0,0.0,0.0,0.0,0.0,0.0,0.0,0.0,0.0,0.0,0.0,0.0,0.0,0.0,0.0,0.0,0.0,0.0,0.0,0.0,0.0,0.0,0.0,0.0,0.0,0.0,0.0,0.0,0.0,0.0,0.0,0.0,0.0,0.0,0.0,0.0,0.0,0.0,0.0,0.0,0.0,0.0,0.0,0.0,0.0,0.0,0.0,0.0,0.0,0.0,0.0,0.0,0.0,0.0,0.0,0.0,0.0,0.0,0.0,0.0,0.0,0.0,0.0,0.0,0.0,0.0,0.0,0.0,0.0,0.0,0.0,0.0,0.0,0.0,0.0,0.0,0.0,0.0,0.0,0.0,0.0,0.0,0.0,0.0,0.0,0.0,0.0,0.0,0.0,0.0,0.0,0.0,0.0,0.0,0.0,0.0,-0.9303,-1.0685,-1.1939,-1.2793,-1.249,-1.2158,-1.1973,-1.1318,-1.0322,-0.8961,0.0,0.0,0.0,0.0,0.0,0.0,0.0,0.0,0.0,0.0,0.0,0.0,0.0,0.0,0.0,0.0,0.0,0.0,0.0,0.0,0.0,0.0,0.0,0.0,0.0,0.0,0.0,0.0,0.0,0.0,0.0,0.0,0.0,0.0,0.0,0.0,0.0,0.0,0.0,0.0,0.0,0.0,0.0,0.0,0.0,0.0,0.0,0.0,0.0,0.0,0.0,0.0,0.0,0.0,0.0,0.0,0.0,0.0,0.0,0.0,0.0,0.0,0.0,0.0,0.0,0.0,0.0,0.0,0.0,0.0,0.0,0.0,0.0,0.0,0.0,0.0,0.0,0.0,0.0,0.0,0.0,0.0,0.0,0.0,0.0,0.0,0.0,0.0,0.0,0.0,0.0,0.0,0.0,0.0,0.0,0.0,0.0,0.0,0.0,0.0,0.0,0.0,-0.9661,-1.0923,-1.1988,-1.2841,-1.249,-1.2051,-1.1645,-1.1162,-1.0195,-0.857,0.0,0.0,0.0,0.0,0.0,0.0,0.0,0.0,0.0,0.0,0.0,0.0,0.0,0.0,0.0,0.0,0.0,0.0,0.0,0.0,0.0,0.0,0.0,0.0,0.0,0.0,0.0,0.0,0.0,0.0,0.0,0.0,0.0,0.0,0.0,0.0,0.0,0.0,0.0,0.0,0.0,0.0,0.0,0.0,0.0,0.0,0.0,0.0,0.0,0.0,0.0,0.0,0.0,0.0,0.0,0.0,0.0,0.0,0.0,0.0,-0.959,-0.8882,0.0,0.0,0.0,0.0,0.0,0.0,0.0,0.0,0.0,0.0,0.0,0.0,0.0,0.0,0.0,0.0,0.0,0.0,0.0,0.0,0.0,0.0,0.0,0.0,0.0,0.0,0.0,0.0,0.0,0.0,0.0,0.0,0.0,0.0,0.0,0.0,0.0,0.0,0.0,0.0,-0.9843,-1.1397,-1.2589,-1.3072,-1.2696,-1.2213,-1.1776,-1.1246,-1.0361,-0.9124,-0.8575,0.0,0.0,0.0,0.0,0.0,0.0,0.0,0.0,0.0,0.0,0.0,0.0,0.0,0.0,0.0,0.0,0.0,0.0,0.0,0.0,0.0,0.0,0.0,0.0,0.0,0.0,0.0,0.0,0.0,0.0,0.0,0.0,0.0,0.0,0.0,0.0,0.0,0.0,0.0,0.0,0.0,0.0,0.0,0.0,0.0,0.0,0.0,0.0,0.0,0.0,0.0,0.0,0.0,0.0,0.0,0.0,0.0,0.0,0.0,-1.1118,-1.035,0.0,0.0,0.0,0.0,0.0,0.0,0.0,0.0,0.0,0.0,0.0,0.0,0.0,0.0,0.0,0.0,0.0,0.0,0.0,0.0,0.0,0.0,0.0,0.0,0.0,0.0,0.0,0.0,0.0,0.0,0.0,0.0,0.0,0.0,0.0,0.0,0.0,0.0,0.0,0.0,-1.0193,-1.1651,-1.2735,-1.3168,-1.2779,-1.2338,-1.1897,-1.1372,-1.0656,-0.9632,-0.9141,0.0,0.0,0.0,0.0,0.0,0.0,0.0,0.0,0.0,0.0,0.0,0.0,0.0,0.0,0.0,0.0,0.0,0.0,0.0,0.0,0.0,0.0,0.0,0.0,0.0,0.0,0.0,0.0,0.0,0.0,0.0,0.0,0.0,0.0,0.0,0.0,0.0,0.0,0.0,0.0,0.0,0.0,0.0,0.0,0.0,0.0,0.0,0.0,0.0,0.0,0.0,0.0,0.0,-1.4194,-1.4523,-1.4478,-1.406,-1.4239,-1.4746,-1.2711,-1.2172,-1.2632,-1.1562,0.0,0.0,0.0,0.0,0.0,0.0,0.0,0.0,0.0,0.0,0.0,0.0,0.0,0.0,0.0,0.0,0.0,0.0,0.0,0.0,0.0,0.0,0.0,0.0,-1.1753,-1.1728,-1.0053,0.0,0.0,0.0,0.0,0.0,0.0,0.0,0.0,0.0,0.0,0.0,-1.0715,-1.1999,-1.2919,-1.3226,-1.2943,-1.2549,-1.2105,-1.1661,-1.1055,-1.0284,-0.9792,-0.9129,0.0,0.0,0.0,0.0,0.0,0.0,0.0,0.0,0.0,0.0,0.0,0.0,0.0,0.0,0.0,0.0,0.0,0.0,0.0,0.0,0.0,0.0,0.0,0.0,0.0,0.0,0.0,0.0,0.0,0.0,0.0,0.0,-0.9226,-0.9783,0.0,0.0,0.0,0.0,0.0,0.0,0.0,0.0,0.0,0.0,0.0,0.0,0.0,-1.2877,-1.3248,-1.3838,-1.4012,-1.3869,-1.5565,-1.6153,-1.5731,-1.4996,-1.4726,-1.4819,-1.4839,0.0,-1.3894,-1.3361,0.0,0.0,0.0,0.0,0.0,0.0,0.0,0.0,0.0,0.0,0.0,0.0,0.0,0.0,0.0,0.0,0.0,0.0,0.0,0.0,0.0,0.0,-1.3082,-1.2741,-1.301,-1.3165,0.0,-1.1471,-1.0614,-1.0452,-0.9647,0.0,0.0,0.0,0.0,0.0,0.0,0.0,-1.1364,-1.2634,-1.3501,-1.3563,-1.3416,-1.3154,-1.2705,-1.2159,-1.164,-1.1256,-1.0413,-0.9904,-0.9897,-0.8724,0.0,0.0,0.0,0.0,0.0,0.0,0.0,0.0,0.0,0.0,0.0,0.0,0.0,0.0,0.0,0.0,0.0,0.0,0.0,0.0,0.0,0.0,0.0,0.0,0.0,0.0,0.0,0.0,0.0,-0.912,-1.0452,-1.1184,-1.152,-1.1564,0.0,0.0,0.0,0.0,0.0,0.0,0.0,0.0,0.0,-1.4428,-1.4658,-1.4862,-1.5039,-1.5684,-1.5958,-1.5841,-1.645,-1.6555,-1.6208,-1.6026,-1.5898,-1.591,-1.6181,-1.6112,-1.5699,-1.4779,-1.3817,-1.2893,0.0,0.0,0.0,0.0,-1.2855,-1.2833,-1.3024,-1.3038,-1.2847,-1.1968,0.0,0.0,0.0,0.0,0.0,0.0,0.0,-1.2141,0.0,0.0,-1.3631,-1.3683,-1.371,-1.3663,-1.3455,-1.3042,-1.2438,0.0,-1.1067,-1.0564,-0.9863,0.0,0.0,0.0,0.0,-1.1308,-1.1923,-1.2927,-1.3621,-1.3621,-1.3573,-1.333,-1.2878,-1.2607,-1.2187,-1.1531,-1.112,-1.0678,-1.0165,-0.9398,-0.8661,0.0,0.0,0.0,0.0,0.0,0.0,0.0,0.0,0.0,0.0,0.0,0.0,0.0,0.0,0.0,0.0,0.0,0.0,0.0,0.0,0.0,0.0,0.0,0.0,0.0,0.0,0.0,0.0,-1.0354,-1.1653,-1.2484,-1.28,-1.2899,0.0,0.0,0.0,0.0,0.0,0.0,-1.4416,-1.5248,-1.5665,-1.5665,-1.6381,-1.6721,-1.6568,-1.7038,-1.7278,-1.7278,-1.7062,-1.6835,-1.6602,-1.6779,-1.6768,-1.6705,-1.6885,-1.6941,-1.6853,-1.5797,-1.5101,-1.4644,-1.4164,-1.3955,-1.396,-1.467,-1.4706,-1.4468,-1.4613,-1.4468,-1.4072,-1.3253,-1.291,-1.2641,-1.1572,0.0,0.0,0.0,0.0,-1.3242,-1.4221,-1.4221,-1.4024,-1.4302,-1.4237,-1.4066,-1.3873,-1.4095,-1.3968,0.0,-1.2453,-1.2074,-1.1173,0.0,0.0,0.0,-1.1386,-1.21,-1.2465,-1.318,-1.3621,-1.3621,-1.3621,-1.3476,-1.3134,-1.2944,-1.2637,-1.1954,-1.1851,-1.1437,-1.0678,-1.0123,-0.9522,-0.8836,0.0,0.0,0.0,0.0,0.0,0.0,0.0,0.0,0.0,0.0,0.0,0.0,0.0,0.0,0.0,0.0,0.0,0.0,0.0,0.0,0.0,0.0,0.0,0.0,0.0,0.0,0.0,0.0,0.0,-1.3554,-1.4417,0.0,0.0,0.0,0.0,-1.493,-1.4985,-1.5214,-1.5694,-1.6186,-1.6448,-1.6448,-1.7529,-1.7824,-1.7234,-1.7267,-1.7278,-1.7278,-1.7278,-1.7278,-1.7222,-1.6941,-1.6648,-1.6431,-1.6705,-1.6761,-1.6684,-1.6252,-1.6085,-1.6186,-1.5818,-1.6084,-1.6669,-1.6978,-1.6786,-1.6162,-1.5414,-1.5216,-1.5253,-1.4983,-1.4563,-1.4181,-1.4138,-1.4097,0.0,0.0,-1.4521,-1.4873,-1.4945,-1.4945,-1.4883,-1.4568,-1.4737,-1.4748,-1.4116,-1.4323,-1.458,0.0,-1.3723,-1.3454,-1.3521,0.0,-1.2157,-1.2569,-1.2699,-1.2829,-1.3023,-1.347,-1.3716,-1.361,-1.3621,-1.36,-1.3589,-1.3176,-1.2861,-1.2855,-1.2461,-1.2245,-1.2204,-1.1323,-1.0619,-1.0193,-0.8602,0.0,0.0,0.0,0.0,0.0,0.0,0.0,0.0,0.0,0.0,0.0,0.0,0.0,0.0,0.0,0.0,0.0,0.0,0.0,0.0,0.0,0.0,0.0,0.0,0.0,0.0,0.0,0.0,-1.4941,-1.5367,0.0,-1.5334,-1.5312,-1.5509,-1.5978,-1.6317,-1.6721,-1.7202,-1.7671,-1.7912,-1.7912,-1.8108,-1.8196,-1.8185,-1.8807,-1.9124,-1.9124,-1.9124,-1.9124,-1.9124,-1.9,-1.8865,-1.873,-1.8312,-1.813,-1.8109,-1.7664,-1.7073,-1.6533,-1.659,-1.6697,-1.6818,-1.6885,-1.6793,-1.6488,-1.5991,-1.5813,-1.5808,-1.537,-1.5122,-1.4995,-1.4995,-1.4933,-1.4945,-1.5363,-1.551,-1.5656,-1.6069,-1.5921,-1.5658,-1.5542,-1.5394,-1.5204,-1.4927,-1.5092,-1.5217,-1.5135,-1.4573,-1.3989,-1.374,-1.3553,-1.3422,-1.3259,-1.3418,-1.3619,-1.3697,-1.382,-1.3868,-1.3716,-1.3716,-1.3668,-1.3621,-1.3465,-1.3202,-1.2903,-1.2772,-1.2565,-1.2318,-1.1705,-1.1137,-1.0681,-0.9257,-0.7999,0.0,0.0,0.0,0.0,0.0,0.0,0.0,0.0,0.0,0.0,0.0,0.0,0.0,0.0,0.0,0.0,0.0,0.0,0.0,0.0,0.0,0.0,0.0,0.0,0.0,-1.3861,-1.504,-1.6009,-1.6367,-1.6545,-1.658,-1.6708,-1.6929,-1.7234,-1.7562,-1.789,-1.8217,-1.8523,-1.8687,-1.8687,-1.8643,-1.8687,-1.8851,-1.9714,-2.0085,-2.0085,-2.0085,-2.0085,-2.0085,-2.0085,-2.0085,-2.0042,-1.9206,-1.8757,-1.8612,-1.8408,-1.7839,-1.7207,-1.6889,-1.6761,-1.6761,-1.6705,-1.6705,-1.6637,-1.6337,-1.6265,-1.6217,-1.5962,-1.5859,-1.5871,-1.5871,-1.5818,-1.5817,-1.6199,-1.6284,-1.6303,-1.6676,-1.6584,-1.6307,-1.6202,-1.6042,-1.5786,-1.5571,-1.5687,-1.5803,-1.5704,-1.5121,-1.4526,-1.4231,-1.4239,-1.4171,-1.3868,-1.4003,-1.4104,-1.4057,-1.4057,-1.401,-1.3868,-1.3821,-1.3763,-1.3668,-1.3668,-1.3533,-1.3176,-1.302,-1.2837,-1.2503,-1.1934,-1.1477,-1.1186,-0.9813,-0.8614,-0.7585,0.0,0.0,0.0,0.0,0.0,0.0,0.0,0.0,0.0,0.0,0.0,0.0,0.0,0.0,0.0,0.0,0.0,0.0,0.0,0.0,0.0,0.0,0.0,-1.3806,-1.5491,-1.6719,-1.6781,-1.7533,-1.8054,-1.8141,-1.8469,-1.8747,-1.8747,-1.8698,-1.8709,-1.8709,-1.8731,-1.8731,-1.8791,-1.9189,-1.9364,-1.92,-1.9834,-2.0085,-2.0085,-2.0085,-2.0085,-2.0085,-2.0085,-2.0085,-2.0031,-1.9146,-1.8549,-1.8294,-1.8448,-1.8448,-1.8148,-1.6942,-1.6587,-1.6757,-1.6715,-1.6676,-1.6616,-1.6626,-1.6626,-1.6648,-1.6765,-1.6807,-1.6807,-1.6807,-1.6807,-1.6807,-1.6807,-1.6807,-1.6807,-1.6807,-1.6818,-1.6757,-1.6407,-1.6599,-1.6618,-1.5973,-1.6083,-1.6224,-1.5916,-1.5487,-1.5148,-1.5127,-1.4733,-1.4417,-1.4406,-1.4395,0.0,-1.4222,-1.4222,-1.414,-1.402,-1.3868,-1.3821,-1.3821,-1.3821,-1.3716,-1.3621,-1.3278,-1.3028,-1.2948,-1.2152,-1.1692,-1.1671,-1.0251,-0.9174,-0.8413,0.0,0.0,0.0,0.0,0.0,0.0,0.0,0.0,0.0,0.0,0.0,0.0,0.0,0.0,0.0,0.0,0.0,0.0,0.0,0.0,0.0,-1.5315,-1.6268,-1.5904,-1.6591,-1.7431,-1.8153,-1.8817,-1.9228,-1.9252,-1.9389,-1.9431,-1.9431,-1.931,-1.9222,-1.9222,-1.955,-1.9927,-2.0409,-2.0123,-1.9857,-1.9878,-1.9987,-2.0085,-2.0085,-2.0085,-2.0085,-2.0085,-2.0085,-2.0085,-2.0074,-1.9802,-1.9683,-1.9554,-1.9629,-1.9619,-1.9457,-1.8078,-1.7648,-1.7726,-1.7423,-1.7137,-1.689,-1.6906,-1.6839,-1.6754,-1.6922,-1.6944,-1.6965,-1.7099,-1.7032,-1.6965,-1.7099,-1.7032,-1.6965,-1.7099,-1.7155,-1.7134,-1.7059,-1.7124,-1.709,-1.694,-1.6983,-1.6983,-1.6907,-1.6481,-1.6022,-1.5694,-1.552,-1.5312,-1.4963,-1.4908,0.0,-1.437,-1.4326,-1.428,-1.414,-1.4129,-1.3999,-1.3821,-1.3821,-1.3716,-1.3621,-1.3186,-1.3082,-1.3414,-1.2598,-1.1871,-1.1287,-1.0536,-0.9757,0.0,0.0,0.0,0.0,0.0,0.0,0.0,0.0,0.0,0.0,0.0,0.0,0.0,0.0,0.0,0.0,0.0,0.0,0.0,0.0,0.0,0.0,-1.6912,-1.7873,-1.8213,-1.849,-1.885,-1.9424,-1.9796,-2.0097,-2.0346,-2.0294,-2.0392,-2.065,-2.0836,-2.0974,-2.1232,-2.1215,-2.1384,-2.1755,-2.1063,-2.0751,-2.0751,-2.0281,-2.0085,-2.0085,-2.0085,-2.0085,-2.0085,-2.0085,-2.0085,-2.0085,-2.0085,-2.0085,-2.0085,-2.0085,-2.0085,0.0,0.0,0.0,0.0,0.0,-1.7388,-1.7211,-1.707,-1.6889,-1.6871,-1.7054,-1.7067,-1.7056,-1.7267,-1.7211,-1.7145,-1.7278,-1.7211,-1.7145,-1.7278,-1.7278,-1.7278,-1.7278,-1.7278,-1.7278,-1.7278,-1.739,-1.749,-1.749,-1.7203,0.0,-1.664,-1.6151,-1.5687,-1.5404,-1.5236,-1.5006,-1.4722,-1.4504,-1.4373,-1.4269,-1.4222,-1.4129,-1.3999,-1.3952,0.0,0.0,0.0,-1.3104,-1.3177,-1.2762,0.0,0.0,0.0,0.0,0.0,0.0,0.0,0.0,-0.8666,-0.8423,0.0,0.0,0.0,0.0,0.0,0.0,0.0,0.0,0.0,0.0,0.0,0.0,0.0,0.0,0.0,0.0,-1.817,-1.9045,-2.0478,-2.0728,-2.074,-2.068,-2.0676,-2.0958,-2.1536,-2.1513,-2.1667,-2.2166,-2.2681,-2.3155,-2.352,-2.2966,0.0,0.0,0.0,-2.1662,-2.1721,-2.0773,-2.0303,-2.0303,-2.0368,-2.0368,-2.0292,-2.0227,-2.0172,-2.0162,-2.0107,-2.0085,-2.0085,-2.0085,-2.0085,-2.0042,-1.9532,-1.9145,-1.8824,-1.8013,-1.7652,-1.7556,-1.7294,0.0,0.0,-1.7218,-1.7188,-1.7034,-1.7256,-1.7278,-1.7278,-1.7278,-1.7278,-1.7278,-1.7278,-1.7278,-1.7278,-1.7278,-1.7278,-1.7278,-1.7278,-1.7501,-1.7656,-1.7711,-1.7711,-1.7711,-1.7711,-1.6718,-1.5927,-1.5872,-1.5491,-1.5176,-1.5067,-1.4675,-1.4392,-1.4337,0.0,0.0,-1.4176,-1.4176,-1.414,-1.3973,-1.3627,-1.318,-1.2701,-1.2861,-1.2914,-1.2871,-1.2945,-1.2913,-1.2827,-1.2669,-1.2304,-1.1786,-1.0322,-0.9795,0.0,0.0,0.0,0.0,0.0,0.0,0.0,0.0,0.0,0.0,0.0,0.0,0.0,0.0,0.0,-1.9128,-2.0171,-2.1039,-2.1782,-2.2309,-2.2421,-2.1927,-2.229,-2.2798,-2.3393,-2.3468,-2.3426,-2.3365,-2.3015,-2.2536,-2.2045,-2.1918,-2.2045,-2.2571,-2.1987,-2.1849,-2.2377,-2.1926,-2.1701,-2.1701,0.0,0.0,-2.168,-2.1155,-2.085,-2.0697,-2.0314,-2.0085,-2.0085,-2.0085,-2.0085,-2.0074,-1.9976,-1.9609,-1.9101,-1.9041,-1.8726,-1.8283,-1.8238,-1.7846,-1.7422,-1.761,-1.7353,-1.7043,-1.7222,-1.7278,0.0,-1.7278,-1.7278,-1.7278,-1.7278,-1.7278,-1.7278,-1.7278,-1.7278,-1.7278,-1.7278,-1.7334,-1.7434,-1.7656,-1.7711,-1.7711,-1.7711,-1.7335,-1.6852,-1.6448,-1.6211,-1.5782,-1.5044,-1.4784,-1.4494,-1.411,-1.4057,-1.401,-1.3915,-1.3962,-1.3962,-1.3868,-1.3831,-1.3669,-1.319,-1.3667,-1.3734,-1.3367,-1.3499,-1.3346,-1.29,-1.2934,-1.3081,-1.3258,-1.18,-1.0781,0.0,0.0,0.0,0.0,0.0,0.0,0.0,0.0,0.0,0.0,0.0,-1.5408,-1.7525,0.0,-1.8783,-2.0355,-2.1334,-2.208,-2.2577,-2.3175,-2.3369,-2.2711,-2.3175,-2.3689,-2.3991,-2.4243,-2.4493,-2.4715,-2.4686,-2.4676,-2.455,-2.422,-2.4163,-2.4494,-2.3816,-2.3408,-2.3374,-2.2795,-2.2531,-2.2542,-2.2859,-2.2673,-2.2062,-2.1734,-2.1461,-2.121,-2.0995,-2.0731,-2.051,-2.0205,-2.0085,-2.0085,-2.0085,-1.9922,-1.9607,-1.9445,-1.9199,-1.8907,-1.8709,-1.8358,-1.8038,-1.8217,-1.8002,-1.7804,-1.7952,-1.7824,-1.7639,-1.7639,-1.7464,-1.7334,-1.7445,-1.7379,-1.7334,-1.749,-1.739,-1.7278,-1.7278,-1.739,-1.7545,-1.7656,-1.7711,-1.7767,-1.7877,-1.7545,-1.7191,-1.694,-1.6634,-1.6202,-1.5674,-1.5365,-1.4942,-1.4424,-1.4323,-1.4227,-1.3936,-1.3973,-1.3926,-1.3821,-1.3999,-1.3939,-1.3669,-1.4057,-1.4171,-1.3943,-1.4034,-1.3914,-1.3652,-1.3712,-1.375,-1.3761,-1.3121,-1.247,0.0,0.0,0.0,0.0,0.0,0.0,0.0,0.0,-1.5242,-1.6989,-1.6938,-1.7311,-1.9703,-1.9957,-2.0272,-2.1606,-2.253,-2.3175,-2.3546,-2.4025,-2.4092,-2.3504,-2.3923,-2.4291,-2.4506,-2.4912,-2.5329,-2.5766,-2.6359,-2.6777,-2.7082,-2.6483,-2.6208,-2.6208,-2.5581,-2.4933,-2.4108,-2.3486,-2.3139,-2.3001,-2.3001,-2.2739,-2.2248,-2.2199,-2.2013,-2.175,-2.1647,-2.1303,-2.0882,-2.0457,-2.0172,-2.0085,-2.0085,-2.0085,-2.0064,-1.9695,-1.9521,-1.95,-1.9133,-1.8854,-1.8708,-1.8808,-1.8689,-1.8558,-1.8681,-1.837,-1.801,-1.801,-1.7649,-1.7334,-1.7545,-1.749,-1.7434,-1.7656,-1.7545,-1.7434,-1.739,-1.7545,-1.7711,-1.7711,-1.7711,-1.7767,-1.7986,-1.7656,-1.739,-1.739,-1.6918,-1.6526,-1.6342,-1.5934,-1.5474,-1.4853,-1.48,-1.462,-1.4143,-1.4015,-1.3926,-1.3821,-1.4046,-1.4093,-1.402,-1.4244,-1.4373,-1.4373,-1.4384,-1.4373,-1.4373,-1.4373,-1.4233,-1.3915,-1.414,-1.3894,-1.4571,-1.4939,-1.5149,-1.5056,-1.4975,-1.5362,0.0,0.0,-1.7423,-1.9046,-1.9321,-1.9656,-2.1082,-2.2088,-2.298,-2.369,-2.4689,-2.5426,-2.5491,-2.5123,-2.487,-2.4797,-2.4862,-2.5305,-2.6322,-2.6466,-2.6465,-2.6357,-2.6395,-2.6146,-2.5581,-2.5441,-2.5441,-2.5441,-2.537,-2.4933,-2.4108,-2.4047,-2.3621,-2.3001,-2.3001,-2.2968,-2.2881,-2.2429,-2.2248,-2.2193,-2.1772,-2.1338,-2.0928,-2.0861,-2.0543,-2.0085,-2.0085,-2.0085,-2.0074,-2.0064,-1.9987,-1.9987,-1.9977,-1.9684,-1.9307,-1.9331,-1.904,-1.8663,-1.8692,-1.837,-1.801,-1.801,-1.7649,-1.7334,-1.7334,-1.749,-1.7656,-1.7711,-1.7877,-1.7931,-1.7711,-1.7656,-1.7711,-1.7711,-1.7711,-1.7711,-1.7767,-1.7711,-1.7656,-1.7656,-1.7257,-1.684,-1.6429,-1.617,-1.5786,-1.5205,-1.5153,-1.4974,-1.4471,-1.4062,-1.3868,-1.3962,-1.402,-1.402,-1.402,-1.414,-1.4222,-1.4222,-1.4326,-1.4373,-1.4373,-1.4373,-1.4384,-1.4326,-1.4373,-1.3836,-1.6315,-1.6145,-1.5894,0.0,-1.7352,-1.7894,-1.8913,-1.9338,-1.9823,-2.1025,-2.0983,-2.1067,-2.2218,-2.311,-2.3773,0.0,-2.5029,-2.5824,-2.5824,-2.5328,-2.5092,-2.5432,-2.5171,-2.5288,-2.6099,-2.6478,-2.6778,-2.7002,-2.704,-2.6905,-2.6633,-2.6552,-2.6552,-2.6552,-2.6552,-2.6195,-2.5487,-2.5405,-2.5063,-2.4371,-2.4319,-2.4055,-2.3616,-2.3447,-2.3128,-2.2692,-2.2244,-2.188,-2.1642,-2.1119,-2.0751,-2.0543,-2.0249,-2.0085,-2.0085,-2.0085,-2.0085,-2.0085,-2.0085,-1.9977,-1.9825,-1.9834,-1.9661,-1.9532,-1.9497,-1.92,-1.8763,-1.848,-1.8065,-1.7685,-1.7567,-1.749,-1.7501,-1.7656,-1.7656,-1.7601,-1.7501,-1.749,-1.749,-1.749,-1.749,-1.7501,-1.7656,-1.7545,-1.7545,-1.7656,-1.7379,-1.7069,-1.6796,-1.6665,-1.6373,-1.5797,-1.55,-1.5204,-1.4912,-1.4482,-1.423,-1.4279,-1.4026,-1.3962,-1.4093,-1.4176,-1.4222,-1.4326,-1.4373,-1.4373,-1.4373,-1.4373,-1.4373,-1.428,-1.428,-1.3988,-1.7488,0.0,0.0,-1.8483,-1.927,-1.9797,-2.0041,-2.0661,-2.1387,-2.2163,-2.2085,-2.2196,-2.3204,-2.3882,-2.4315,-2.4467,-2.5355,-2.6112,-2.6269,-2.5654,-2.5354,-2.5772,-2.5184,-2.5027,-2.5746,-2.6347,-2.6909,-2.7484,-2.7523,-2.7523,-2.7523,-2.7523,-2.7523,-2.7523,-2.7523,-2.7188,-2.6414,-2.6414,-2.6,-2.5312,-2.529,-2.4968,-2.4457,-2.4402,-2.4112,-2.3646,-2.3312,-2.3012,-2.2892,-2.2224,-2.1721,-2.1334,-2.0839,-2.0467,-2.0336,-2.0333,-2.0279,-2.014,-2.0302,-2.0248,-2.0085,-2.0085,-2.0085,-2.0085,-2.0085,-1.9737,-1.931,-1.9,-1.8585,-1.8224,-1.8111,-1.7865,-1.77,-1.7854,-1.7865,-1.7711,-1.7545,-1.7656,-1.7711,-1.7434,-1.739,-1.7445,-1.7545,-1.7434,-1.739,-1.7545,-1.7445,-1.7267,-1.7078,-1.7011,-1.6826,-1.6373,-1.5924,-1.5531,-1.5479,-1.5005,-1.47,-1.4563,-1.4237,-1.409,-1.414,-1.4176,-1.4233,-1.4326,-1.4373,-1.4373,-1.4373,-1.4373,-1.4373,-1.4269,-1.4269,-1.4251,0.0,0.0,-1.9874,-1.9927,-2.031,-2.0601,-2.0447,-2.0925,-2.1559,-2.2042,-2.2628,-2.3255,-2.3923,-2.4583,-2.5145,-2.5644,-2.6282,-2.6844,-2.7406,-2.6504,-2.5798,-2.5824,-2.4831,-2.4583,-2.572,-2.6347,-2.6909,-2.7484,-2.7523,-2.7523,-2.7523,-2.7523,-2.7523,-2.7523,-2.7523,-2.7188,-2.6414,-2.6414,-2.6,-2.5312,-2.5312,-2.5254,-2.5266,-2.5292,-2.5233,-2.5233,-2.5233,-2.498,-2.4534,-2.4488,-2.3733,-2.2622,-2.2132,-2.1521,-2.0859,-2.1054,-2.0676,-2.0194,-2.0842,-2.0621,-2.0085,-2.0085,-2.0085,-2.0085,-2.0085,-1.9737,-1.9434,-1.9471,-1.9136,-1.8803,-1.8905,-1.8709,-1.8471,-1.8471,-1.8709,-1.8774,-1.8193,-1.8518,-1.8721,-1.7865,-1.7711,-1.7601,-1.7334,-1.7334,-1.7278,-1.7334,-1.7334,-1.7278,-1.7278,-1.7134,-1.7,-1.6989,-1.647,-1.6084,-1.6084,-1.5648,-1.518,-1.4712,-1.4669,-1.4467,-1.4031,-1.414,-1.4222,-1.4222,-1.4326,-1.4373,-1.4373,-1.4373,-1.4373,-1.4373,-1.4373,-1.4577,-1.9611,0.0,-2.0242,-2.1338,-2.1711,-2.1985,-2.2711,-2.3014,-2.3255,-2.3386,-2.3354,-2.3371,-2.3568,-2.4111,-2.4702,-2.534,-2.6109,-2.687,-2.7445,-2.687,-2.6242,-2.5876,-2.5484,-2.5406,-2.5785,-2.5994,0.0,-2.7458,-2.7523,-2.7523,-2.7523,-2.7523,-2.7523,-2.7523,-2.7523,-2.739,-2.7108,-2.7108,-2.704,-2.6769,-2.6413,-2.6226,-2.6208,-2.5652,-2.5383,-2.529,-2.529,-2.5184,-2.5054,-2.4725,-2.4374,-2.3935,-2.3409,-2.2821,-2.2375,-2.2824,-2.238,-2.1491,-2.1705,-2.1342,-2.0752,-2.0752,-2.0453,-2.0085,-2.0085,-1.9966,-1.9788,-1.9573,-1.9387,-1.9229,-1.9054,-1.8602,-1.8255,-1.8255,-1.8321,-1.8278,-1.7711,-1.8018,-1.8278,-1.781,-1.7545,-1.7434,-1.7545,-1.7445,-1.7278,-1.7278,-1.7278,-1.7278,-1.7278,-1.7211,-1.72,-1.72,-1.7014,-1.6851,-1.6718,-1.6289,-1.5955,-1.5753,-1.5391,-1.5196,-1.5207,-1.4833,-1.4709,-1.4805,-1.4854,-1.4864,-1.4864,-1.5192,-1.5121,-1.4768,-1.5034,-1.5038,-2.1326,-2.1364,-2.1297,-2.2923,-2.3173,-2.3109,-2.3644,-2.3923,-2.4054,-2.3793,-2.3501,-2.3388,-2.3642,-2.3681,-2.4063,-2.5368,-2.5893,-2.6527,-2.7459,-2.7092,-2.6594,-2.6164,-2.5942,-2.5903,-2.6112,-2.6188,0.0,-2.7458,-2.7523,-2.7523,-2.7523,-2.7523,-2.7523,-2.7523,-2.7523,-2.7523,-2.7523,-2.7523,-2.7523,-2.7523,-2.7206,-2.7074,-2.7074,-2.6588,-2.626,-2.6155,-2.613,-2.6117,-2.6038,-2.5778,-2.5465,-2.5215,-2.4661,-2.4133,-2.3626,-2.3866,-2.3454,-2.2727,-2.2519,-2.2051,-2.1428,-2.1428,-2.1008,-2.0518,-2.0764,-2.0635,-2.0467,-2.0474,-2.0334,-2.0106,-1.9924,-1.916,-1.8429,-1.8429,-1.8429,-1.8267,-1.7854,-1.8159,-1.8471,-1.8061,-1.77,-1.749,-1.7545,-1.7434,-1.7278,-1.7278,-1.7278,-1.7278,-1.7278,-1.7278,-1.7278,-1.7278,-1.7278,-1.7267,-1.7134,-1.6862,-1.6613,-1.6385,-1.603,-1.5782,-1.5785,-1.543,-1.5256,-1.5367,-1.5367,-1.5367,-1.5367,-1.5633,-1.5622,-1.5217,-1.552,-1.5545,-2.301,-2.3034,-2.3034,-2.4616,-2.4557,-2.3949,-2.3242,-2.3623,-2.3859,-2.3166,-2.3058,-2.3293,-2.3975,0.0,-2.3244,-2.5741,-2.568,-2.5876,-2.7551,-2.7314,-2.6893,0.0,0.0,0.0,0.0,0.0,0.0,-2.7523,0.0,-2.7536,-2.7575,-2.7549,-2.7523,-2.7523,-2.7523,-2.7523,-2.7523,-2.7523,-2.7536,-2.7536,-2.7695,-2.7801,-2.7854,-2.7854,-2.7788,-2.7801,-2.7575,-2.7536,-2.7536,-2.7523,-2.7074,-2.6391,-2.6,-2.5324,-2.4661,-2.428,-2.4147,-2.4009,-2.3397,-2.2738,-2.2163,-2.2163,-2.1678,-2.125,-2.1928,-2.1678,-2.1272,-2.2012,-2.1838,-2.1479,-2.1536,-2.0275,-1.9035,-1.9088,-1.9064,-1.8881,-1.8525,-1.8951,-1.9214,-1.8578,-1.8073,-1.7601,-1.7334,-1.7278,-1.7278,-1.7278,-1.7278,-1.7278,-1.7278,-1.7278,-1.7278,-1.7278,-1.7278,-1.7278,-1.7278,-1.7278,-1.7071,-1.659,-1.6557,-1.6361,-1.5872,-1.5829,-1.5818,-1.5818,-1.5818,-1.5818,-1.5818,-1.584,-1.584,-1.5818,-1.584,-1.6038,-2.3712,-2.4413,-2.4949,-2.4962,-2.4857,-2.4517,-2.3399,-2.3319,-2.3141,-2.2268,-2.1799,-2.1517,-2.1326,-2.2008,0.0,-2.4133,-2.5453,0.0,-2.7472,-2.7459,0.0,-2.6726,0.0,-2.6987,-2.688,-2.7314,0.0,0.0,-2.8186,-2.8133,-2.8557,-2.8173,-2.7947,-2.7947,-2.7789,-2.7723,-2.7723,-2.759,-2.7668,-2.7933,-2.8026,-2.8067,-2.8182,-2.8182,-2.8106,-2.8026,-2.7801,-2.7695,-2.7695,-2.7549,-2.7417,-2.7206,-2.7074,-2.6752,-2.6309,-2.6074,-2.5824,-2.5445,-2.4788,-2.3755,-2.2847,-2.2847,-2.2408,-2.1865,-2.2039,-2.199,-2.187,-2.2129,-2.2113,-2.2002,-2.2146,-2.0907,-1.9715,-2.0172,-1.9597,-1.8881,-1.8321,-1.8697,-1.8869,-1.8073,-1.781,-1.7601,-1.7334,-1.7278,-1.7278,-1.7278,-1.7278,-1.7278,-1.7278,-1.7278,-1.7278,-1.7278,-1.7278,-1.7278,-1.7278,-1.7278,-1.7224,-1.7092,-1.7082,-1.7027,-1.6918,-1.6546,-1.635,-1.635,-1.635,-1.635,-1.635,-1.6721,-1.671,-1.635,-1.6732,-1.6776,-2.4936,-2.5524,-2.5746,-2.5419,-2.5158,-2.4596,-2.3171,-2.29,-2.2559,-2.1509,-2.0924,-2.0633,-2.0697,-2.1139,-2.2061,0.0,0.0,0.0,-2.7472,-2.7656,-2.7472,0.0,-2.7393,0.0,-2.7327,-2.7961,-2.8692,0.0,-2.8625,-2.8332,-2.8986,-2.8399,-2.8079,-2.8079,-2.8,-2.7855,-2.7776,-2.7696,-2.7681,-2.7814,-2.8014,-2.8157,-2.8217,-2.8244,-2.8274,-2.8146,-2.8,-2.7895,-2.7788,-2.7681,-2.7562,-2.7523,-2.7523,-2.7354,-2.7155,-2.6867,-2.6509,-2.5981,-2.5279,-2.4437,-2.3636,-2.359,-2.31,-2.2592,-2.2919,-2.2786,-2.2591,-2.2913,-2.2821,-2.268,-2.2721,-2.1627,-2.0588,-2.0661,-2.0213,-1.9543,-1.8703,-1.8762,-1.8721,-1.7711,-1.7545,-1.7501,-1.7334,-1.7278,-1.7278,-1.7278,-1.7278,-1.7278,-1.7278,-1.7278,-1.7278,-1.7278,-1.7278,-1.7278,-1.7278,-1.7278,-1.7278,-1.7278,-1.7278,-1.7278,-1.7278,-1.7005,-1.6852,-1.6852,-1.6852,-1.6852,-1.6852,-1.7136,-1.7136,-1.6852,-1.7147,-1.7125,-2.6164,-2.6308,-2.6007,-2.5863,-2.5445,-2.4583,-2.2729,-2.2351,-2.2036,-2.0733,0.0,-2.0074,-2.0643,-2.0353,-2.1037,-2.4037,0.0,-2.5229,-2.7472,-2.7789,-2.7723,-2.7523,-2.7656,-2.7776,-2.7855,-2.8665,-2.943,-2.9996,-2.896,-2.8559,-2.9281,-2.8692,-2.8345,-2.8265,-2.8198,-2.8,-2.7776,-2.7815,-2.7695,-2.7562,-2.7959,-2.8153,-2.819,-2.8309,-2.8336,-2.8336,-2.8166,-2.7999,-2.7867,-2.7788,-2.7668,-2.7523,-2.7523,-2.7523,-2.7471,-2.7157,-2.6667,-2.61,-2.5519,-2.4912,-2.4398,-2.4184,-2.3734,-2.3339,-2.3923,-2.3662,-2.3339,-2.3923,-2.3733,-2.3341,-2.3341,-2.2493,-2.1499,-2.1154,-2.0885,-2.042,-1.9352,-1.8928,-1.8452,-1.749,-1.7278,-1.7278,-1.7278,-1.7278,-1.7278,-1.7278,-1.7278,-1.7278,-1.7278,-1.7278,-1.7278,-1.7278,-1.7278,-1.7278,-1.7278,-1.7278,-1.7278,-1.7278,-1.7278,-1.7278,-1.7278,-1.7278,-1.7278,-1.7278,-1.7278,-1.7278,-1.7278,-1.7278,-1.7278,-1.7278,-1.7278,-1.7278,-2.589,-2.6595,-2.7013,-2.6059,-2.5746,-2.4975,-2.2269,-2.176,0.0,0.0,-1.8852,-1.8782,-1.8518,-1.9441,-2.0855,-2.2778,-2.4152,-2.5568,-2.7341,-2.7523,-2.7523,0.0,-2.7523,-2.7669,-2.8013,-2.8679,0.0,0.0,-2.9375,-2.974,-3.085,-3.035,-2.9727,-2.9013,-2.853,-2.8131,-2.7776,-2.7815,-2.7894,-2.8026,-2.8067,-2.8238,-2.8481,-2.856,-2.8573,-2.8509,-2.8224,0.0,-2.804,-2.7709,-2.7536,-2.7523,-2.7523,-2.759,-2.7709,-2.767,-2.7339,-2.691,-2.6175,-2.5532,-2.4965,-2.4328,-2.3995,-2.3923,-2.4054,-2.3995,-2.3923,-2.4054,-2.4047,-2.3955,-2.3955,-2.311,-2.2363,-2.2657,-2.1703,-2.0519,-1.9788,-1.858,-1.7545,-1.7334,-1.7278,-1.7278,-1.7278,-1.7278,-1.7278,-1.7278,-1.7278,-1.7278,-1.7278,-1.7278,-1.7278,-1.7278,-1.7278,-1.7278,-1.7278,-1.7278,-1.7278,-1.7278,-1.7278,-1.7278,-1.7278,-1.7278,-1.7278,-1.7278,-1.7278,-1.7278,-1.7278,-1.7278,-1.7278,-1.7278,-1.7278,-1.7278,-2.5667,-2.6229,-2.6438,-2.5589,-2.5158,-2.4256,-2.1655,0.0,0.0,0.0,-1.8053,-1.8097,-1.7936,-1.8746,0.0,-2.1643,-2.2432,-2.3848,-2.6803,-2.6831,-2.7092,-2.8294,-2.8507,-2.8644,-2.8985,-2.96,-3.0156,-3.0418,-3.0703,-3.073,-3.0364,-2.9781,-2.9267,-2.889,-2.8606,-2.83,-2.7933,-2.7961,-2.7907,-2.7788,-2.7907,-2.808,-2.8336,-2.843,-2.8536,-2.8587,-2.8433,-2.825,-2.8066,-2.7895,-2.7669,-2.7523,-2.7523,-2.759,-2.7656,-2.7789,-2.7364,-2.6694,-2.6228,-2.554,-2.4819,-2.4262,-2.4112,-2.4112,-2.4112,-2.4112,-2.4112,-2.4112,-2.4112,-2.4112,-2.4112,-2.367,-2.3257,-2.3232,-2.1665,-2.0067,-1.9516,-1.8299,-1.7278,-1.7278,-1.7278,-1.7278,-1.7278,-1.7278,-1.7278,-1.7278,-1.7278,-1.7278,-1.7278,-1.7278,-1.7278,-1.7278,-1.7278,-1.7278,-1.7278,-1.7278,-1.7278,-1.7278,-1.7278,-1.7278,-1.7278,-1.7278,-1.7278,-1.7278,-1.7278,-1.7278,-1.7278,-1.7278,-1.7278,-1.7278,-1.7278,-1.7278,-2.5367,-2.5733,-2.568,-2.5105,-2.4543,-2.3511,-2.1236,-2.0351,0.0,0.0,-1.7584,-1.772,-1.7842,0.0,-1.8983,0.0,-2.101,-2.2273,-2.5972,-2.6293,-2.6909,0.0,-2.9337,0.0,-2.9754,-3.0512,0.0,-3.111,-3.1544,-3.1287,-3.012,-2.9496,-2.917,-2.917,-2.8923,-2.8678,-2.8336,-2.8199,-2.7933,-2.7655,-2.7774,-2.7895,-2.8101,-2.8222,-2.8406,-2.8522,-2.8522,-2.8392,-2.8131,-2.8079,-2.7868,-2.759,-2.759,-2.7523,-2.751,-2.7578,-2.7008,-2.6219,-2.5977,-2.5309,-2.4492,-2.4171,-2.4112,-2.4112,-2.4112,-2.4112,-2.4151,-2.4269,-2.4217,-2.4151,-2.4269,-2.4217,-2.3929,-2.321,-2.1385,-1.9643,-1.9095,-1.8073,-1.7278,-1.7278,-1.7278,-1.7278,-1.7278,-1.7267,-1.7211,-1.7211,-1.7211,-1.7211,-1.7211,-1.7211,-1.7222,-1.7278,-1.7278,-1.7278,-1.7278,-1.7278,-1.7278,-1.7278,-1.7278,-1.7278,-1.7278,-1.7278,-1.7278,-1.7278,-1.7278,-1.7278,-1.7278,-1.7278,-1.7278,-1.7278,-1.7278,-1.7278,-2.4883,-2.5432,-2.568,-2.5105,-2.4543,-2.3511,-2.1236,0.0,0.0,-1.7761,-1.7556,-1.7679,-1.772,-1.7842,0.0,0.0,0.0,0.0,-2.4958,-2.6489,-2.7641,-2.8373,0.0,0.0,-2.9824,-3.0556,-3.0831,-3.0527,-3.054,-3.0975,-3.1884,-3.1368,-3.1042,-3.1042,-2.998,-2.9329,-2.909,-2.8451,-2.8053,-2.804,-2.7894,-2.7921,-2.808,-2.8224,-2.8327,-2.8352,-2.8352,-2.8287,0.0,-2.8131,-2.8,-2.7776,-2.7776,-2.7656,-2.7471,-2.713,-2.6601,-2.5994,-2.5467,-2.4846,-2.4305,-2.4157,-2.4112,-2.4112,-2.4112,-2.4112,-2.4217,-2.4739,-2.4517,-2.4243,-2.4766,-2.4504,-2.3838,-2.2714,-2.1108,-1.9643,-1.9095,-1.8073,-1.7278,-1.7278,-1.7278,-1.7278,-1.7278,-1.7145,-1.7011,-1.7011,-1.6909,-1.6864,-1.7011,-1.692,-1.6987,-1.7278,-1.7278,-1.7278,-1.7278,-1.7278,-1.7278,-1.7278,-1.7278,-1.7278,-1.7278,-1.7278,-1.7278,-1.7278,-1.7278,-1.7278,-1.7278,-1.7278,-1.7278,-1.7278,-1.7278,-1.7278,-2.4112,-2.4622,-2.4661,-2.406,-2.3485,-2.2544,-2.0584,0.0,-1.8963,-1.7695,-1.7446,-1.7515,-1.7584,-1.7611,-1.8001,0.0,-1.9253,-2.0292,-2.3349,-2.4284,-2.5472,-2.7722,-2.8907,0.0,0.0,0.0,-3.1202,-3.1276,-3.1405,-3.168,-3.2155,-3.1273,-3.0758,-3.0758,-2.993,-2.9347,-2.909,-2.8446,-2.8013,-2.7774,-2.7668,-2.7762,-2.8131,-2.8145,-2.8276,-2.8509,-2.8509,-2.843,0.0,-2.8235,-2.8039,-2.7776,-2.7776,-2.7512,-2.6987,-2.6817,-2.6212,-2.5445,-2.5161,-2.4748,-2.4292,-2.4157,-2.4112,-2.4112,-2.4112,-2.4347,-2.4674,-2.4896,-2.5053,-2.5118,-2.5001,-2.4269,-2.3367,-2.2612,-2.1071,-1.9643,-1.9095,-1.8073,-1.7278,-1.7278,-1.7278,-1.7278,-1.7278,-1.7211,-1.72,-1.72,-1.7022,-1.6965,-1.7011,-1.6853,-1.6874,-1.6987,-1.7088,-1.7145,-1.7278,-1.7278,-1.7278,-1.7278,-1.7211,-1.7145,-1.7278,-1.72,-1.72,-1.7278,-1.7278,-1.7278,-1.7278,-1.7278,-1.7211,-1.7134,-1.7134,-1.7088,-2.3237,-2.3733,-2.3746,-2.3328,-2.2531,-2.159,0.0,-1.9329,-1.8388,-1.7505,-1.735,-1.7391,-1.7461,-1.7488,-1.7649,0.0,-1.8102,-1.9057,-2.215,-2.2977,-2.4271,-2.7117,0.0,-2.9588,-3.0098,-3.091,-3.1508,-3.1817,-3.1963,-3.2036,-3.2109,-3.1226,-3.0837,-3.0934,-3.0151,-2.9615,-2.9358,-2.8502,-2.796,-2.7575,-2.7536,-2.7643,-2.7947,-2.8066,-2.821,-2.8471,-2.8522,-2.8509,0.0,-2.8365,-2.817,-2.7842,-2.7722,-2.7144,-2.6362,-2.6026,-2.5329,-2.4545,-2.4438,-2.4222,-2.3943,-2.4041,-2.4112,-2.4112,-2.4112,-2.4517,-2.5001,-2.5171,-2.5374,-2.534,-2.4627,-2.3592,-2.2528,-2.2027,-2.0682,-1.9408,-1.8834,-1.7975,-1.7278,-1.7278,-1.7278,-1.7278,-1.7211,-1.7155,-1.7166,-1.7099,-1.692,-1.6853,-1.6899,-1.6751,-1.6705,-1.6818,-1.6853,-1.6965,-1.7155,-1.7155,-1.7155,-1.7155,-1.7032,-1.7022,-1.72,-1.7078,-1.7078,-1.7211,-1.7211,-1.7211,-1.7155,-1.7155,-1.7088,-1.6965,-1.6955,-1.6955,-2.2256,-2.2818,-2.3223,-2.321,-2.193,-2.0712,-2.0699,-1.9329,-1.7944,-1.7329,-1.7308,-1.7404,-1.7404,-1.7461,-1.7516,-1.7529,-1.8385,-1.976,-2.1621,-2.3294,-2.4939,0.0,0.0,-2.9321,-2.9574,-3.0844,-3.1609,-3.1609,-3.1609,0.0,-3.189,-3.1676,-3.1736,-3.2155,-3.1023,-3.0321,-3.0113,-2.8784,-2.8013,-2.7788,-2.7575,-2.7523,-2.7523,-2.7947,-2.8079,-2.8145,-2.8471,-2.8587,0.0,-2.8587,-2.8406,-2.8026,-2.7413,-2.6583,-2.5593,-2.4431,-2.3578,-2.3038,-2.3106,-2.3088,-2.3207,-2.3865,-2.4112,-2.4112,-2.4112,-2.4517,-2.5092,-2.5654,-2.5332,-2.4532,-2.3495,-2.2334,-2.1317,-2.0857,-1.9814,-1.8827,-1.8267,-1.7689,-1.7278,-1.7278,-1.7278,-1.7211,-1.7011,-1.6909,-1.6751,-1.6637,-1.6477,-1.6431,-1.6581,-1.6477,-1.6488,-1.6761,-1.6694,-1.6637,-1.6807,-1.6818,-1.6818,-1.6818,-1.6818,-1.6864,-1.7011,-1.7011,-1.7011,-1.7011,-1.7011,-1.6965,-1.6818,-1.6818,-1.6818,-1.6807,-1.6965,-1.7011,-2.0936,-2.138,-2.1368,-2.0989,-2.0479,-1.9865,-1.9081,-1.8493,-1.7931,-1.7316,-1.724,-1.7253,-1.7253,-1.7282,-1.7587,-1.8434,0.0,0.0,0.0,0.0,0.0,-2.5678,-2.7842,-2.9592,0.0,0.0,-3.136,-3.136,-3.1522,-3.1609,-3.171,-3.1609,-3.1575,-3.1594,-3.0533,-2.9808,-2.9335,-2.8398,-2.7788,-2.7575,-2.7965,-2.8203,-2.8354,-2.8818,-2.8929,-2.8611,-2.8531,-2.8225,-2.7855,-2.7855,-2.7736,-2.7484,-2.6687,-2.5884,-2.4908,-2.3762,-2.2943,-2.2404,-2.2408,-2.2421,-2.247,-2.2665,-2.304,-2.3475,-2.3882,-2.4713,-2.5667,-2.6242,-2.5985,-2.5249,-2.4119,-2.2924,-2.1825,-2.0898,-1.9814,-1.8815,-1.8201,-1.7689,-1.7278,-1.7278,-1.7278,-1.7211,-1.7011,-1.6955,-1.6909,-1.6751,-1.6637,-1.6524,-1.6581,-1.6477,-1.6441,-1.6545,-1.6488,-1.6534,-1.6751,-1.6818,-1.6818,-1.6818,-1.6818,-1.6864,-1.7011,-1.6909,-1.6909,-1.7011,-1.6909,-1.6864,-1.6818,-1.6818,-1.6751,-1.6637,-1.6591,-1.6591,0.0,-2.0057,-2.0244,-1.9891,-1.9486,-1.9028,-1.8519,-1.8074,-1.7643,-1.7277,-1.7199,-1.7199,-1.7199,-1.7199,-1.7434,-1.8254,-1.8916,0.0,0.0,0.0,0.0,-2.6413,0.0,0.0,0.0,-3.0677,-3.079,-3.0566,-3.0837,-3.099,-3.0871,-3.0811,-3.0645,-3.0408,-3.0224,-2.9738,-2.8906,-2.8399,-2.792,-2.7536,-2.8121,-2.8464,-2.8618,-2.8986,-2.9029,-2.8809,-2.8137,-2.7634,0.0,-2.696,-2.6629,-2.6308,-2.5564,-2.466,-2.3628,-2.2619,-2.191,-2.1365,-2.1616,-2.1741,-2.1741,-2.2051,-2.2678,-2.3626,-2.4721,-2.532,-2.5743,-2.6155,-2.5806,-2.5103,-2.3961,-2.3007,-2.1945,-2.0648,-1.9625,-1.8729,-1.7931,-1.7468,-1.7211,-1.7211,-1.7155,-1.7043,-1.6909,-1.6842,-1.6797,-1.6648,-1.6591,-1.6534,-1.6534,-1.6431,-1.6384,-1.6384,-1.6384,-1.6488,-1.6648,-1.6648,-1.6648,-1.6648,-1.6648,-1.6694,-1.6842,-1.674,-1.6751,-1.6842,-1.6751,-1.6694,-1.6648,-1.6648,-1.6648,-1.657,-1.6488,-1.6431,0.0,-1.8662,-1.9499,-1.9499,-1.8702,-1.8048,-1.8545,-1.7839,0.0,-1.7133,-1.7146,-1.716,-1.7251,-1.7225,-1.7251,-1.7421,-1.7944,0.0,0.0,-2.255,0.0,0.0,-2.8631,0.0,-2.9421,-2.983,-2.9849,-2.9327,-2.9771,-2.9915,-2.9549,-2.933,-2.9134,-2.8899,-2.9916,-2.9931,-2.8678,-2.8625,-2.8279,-2.7589,-2.8124,-2.8399,-2.8451,-2.8602,-2.8684,0.0,-2.7323,-2.6756,-2.6718,-2.5983,-2.5318,-2.4657,-2.4122,-2.3078,-2.1932,-2.1255,-2.0635,-2.0205,-2.0816,-2.1008,-2.1135,-2.1839,-2.2934,-2.4255,-2.6013,-2.6049,-2.5482,-2.5561,-2.5093,-2.4402,-2.3343,-2.2604,-2.1777,-2.0278,-1.9347,-1.8567,-1.7633,-1.7266,-1.7054,-1.7065,-1.6941,-1.6751,-1.6637,-1.657,-1.6524,-1.6431,-1.6384,-1.6384,-1.6384,-1.6384,-1.6384,-1.6384,-1.6384,-1.6384,-1.6384,-1.6384,-1.6384,-1.6384,-1.6431,-1.6488,-1.6684,-1.6684,-1.6684,-1.6684,-1.6627,-1.6534,-1.6384,-1.6384,-1.6488,-1.6581,-1.6488,-1.6477,-1.5304,0.0,-1.6506,-1.6506,-1.6297,-1.614,0.0,-1.6088,-1.6023,0.0,0.0,-1.6846,-1.7735,-1.7512,-1.7787,-1.9598,0.0,-2.1159,-2.2481,-2.4184,0.0,-2.8904,-2.873,-2.8621,-2.9293,-2.9392,-2.9431,-2.9287,-2.9405,-2.9178,-2.8469,-2.8418,-2.8192,-2.773,-2.8382,-2.8739,-2.8715,-2.8075,-2.7904,-2.8177,-2.8307,-2.8621,-2.9065,-2.853,-2.8231,-2.8134,-2.6565,-2.5661,-2.5169,-2.4622,-2.4303,-2.4101,-2.2921,-2.2302,-2.1878,-2.075,-2.027,-2.014,-2.027,-2.0324,-2.0509,-2.156,-2.2628,-2.3694,-2.4682,-2.5227,-2.5627,-2.6245,-2.5785,-2.4934,-2.4051,-2.3233,-2.2369,-2.1375,-2.0175,-1.9238,-1.8985,-1.8217,-1.7582,-1.7408,-1.7062,-1.6751,-1.6637,-1.657,-1.6524,-1.6431,-1.6384,-1.6384,-1.6384,-1.6384,-1.6384,-1.6384,-1.6384,-1.6384,-1.6384,-1.6384,-1.6384,-1.6384,-1.6477,-1.674,-1.7245,-1.7301,-1.7301,-1.7301,-1.6751,-1.6431,-1.6384,-1.6384,-1.6431,-1.6431,-1.6431,-1.6431,-1.4219,-1.5042,-1.5905,-1.5905,-1.6101,-1.6271,-1.6271,0.0,0.0,0.0,0.0,0.0,-1.7565,-1.7643,0.0,0.0,-2.0557,0.0,0.0,0.0,-2.7275,-2.9065,-2.8752,-2.8503,0.0,-2.8869,-2.8765,-2.849,-2.8425,-2.8068,-2.7392,-2.7,-2.6652,-2.6375,-2.6993,-2.7562,-2.8125,-2.7971,-2.7962,-2.7994,-2.8255,-2.8404,-2.8363,-2.7898,-2.7526,-2.7126,-2.5573,-2.462,-2.406,-2.3441,-2.2982,-2.2514,-2.1766,-2.135,-2.1059,-2.0358,-2.0085,-2.0107,-2.0402,-2.062,-2.095,-2.2139,-2.2937,-2.3583,-2.4517,-2.4843,-2.4957,-2.5232,-2.5026,-2.4381,-2.3377,-2.2898,-2.2384,-2.1541,-2.0358,-1.9369,-1.9111,-1.8353,-1.7562,-1.7175,-1.6816,-1.6591,-1.6534,-1.6534,-1.6477,-1.6431,-1.6384,-1.6384,-1.6384,-1.6384,-1.6384,-1.6384,-1.6384,-1.6384,-1.6384,-1.6384,-1.6488,-1.674,-1.6842,-1.7168,-1.7733,-1.7501,-1.7234,-1.6976,-1.6602,-1.6534,-1.6797,-1.6534,-1.6534,-1.674,-1.6534,-1.6384,-1.3853,-1.5121,-1.6336,-1.6166,-1.6532,-1.6937,-1.6937,0.0,0.0,0.0,0.0,0.0,0.0,-1.7878,0.0,0.0,0.0,0.0,-2.5393,-2.6739,-2.7798,-2.8882,-2.8556,0.0,-2.8105,-2.8066,-2.7845,-2.7242,-2.7028,-2.6696,-2.6063,-2.5453,-2.5099,-2.5089,-2.5712,-2.6435,-2.718,-2.7798,-2.7806,-2.7278,-2.7692,-2.7646,-2.7076,-2.6918,-2.649,-2.5876,0.0,0.0,-2.3185,-2.2424,-2.1614,-2.0917,-2.0784,-2.05,-2.0085,-2.0085,-2.0129,-2.0325,-2.0806,-2.1286,-2.1908,-2.292,-2.3313,-2.3521,-2.4601,-2.4576,-2.3975,-2.3683,-2.3627,-2.3489,-2.2628,-2.2377,-2.2157,-2.1509,-2.035,-1.9364,-1.8962,-1.8206,-1.7429,-1.6749,-1.6576,-1.6488,-1.6431,-1.6384,-1.6384,-1.6384,-1.6488,-1.6488,-1.6431,-1.6488,-1.6488,-1.6431,-1.6384,-1.6384,-1.6384,-1.6488,-1.6751,-1.7313,-1.7257,-1.7479,-1.8093,-1.7589,-1.7112,-1.6648,-1.6648,-1.6853,-1.7313,-1.6797,-1.674,-1.7202,-1.6637,-1.6384,-1.4206,-1.5294,-1.5931,-1.5071,-1.5317,-1.5748,0.0,0.0,0.0,0.0,0.0,0.0,0.0,0.0,-1.9447,0.0,0.0,-2.4661,0.0,0.0,-2.7053,-2.7719,0.0,-2.7385,-2.6759,-2.6735,-2.6435,-2.5684,-2.5629,-2.5239,-2.4469,-2.4341,-2.4303,-2.4272,-2.4402,-2.4815,-2.5594,-2.6345,-2.6556,-2.6306,-2.5978,-2.5934,-2.6251,-2.5073,-2.4769,-2.5066,0.0,-2.2523,-2.2391,-2.1487,-2.1059,-2.0817,-2.0413,-2.014,-2.0085,-2.0085,-2.0402,-2.0817,-2.1308,-2.18,-2.2215,-2.2435,-2.2721,-2.3125,-2.3265,-2.3582,-2.374,-2.2841,-2.2831,-2.32,-2.3961,-2.3168,-2.2215,-2.2334,-2.1096,-1.9789,-1.9622,-1.8773,-1.7828,-1.7061,-1.6995,-1.6944,-1.6488,-1.6384,-1.6384,-1.6384,-1.6797,-1.6888,-1.6488,-1.6786,-1.6888,-1.6431,-1.6384,-1.6384,-1.6384,-1.6797,-1.7324,-1.7929,-1.7479,-1.7479,-1.8093,-1.7984,-1.7929,-1.7831,-1.7831,-1.7875,-1.7984,-1.7379,-1.7101,-1.7202,-1.6637,-1.6384,-1.3448,-1.4471,-1.5333,-1.5387,-1.6281,-1.7054,0.0,0.0,0.0,0.0,0.0,0.0,0.0,0.0,-2.0393,-2.2395,0.0,-2.5876,-2.5824,-2.6582,-2.7236,0.0,0.0,-2.7188,-2.6483,-2.6422,-2.6118,-2.5378,-2.4908,-2.4466,-2.4108,-2.372,-2.3523,-2.3516,-2.3884,-2.4073,-2.4048,-2.4788,-2.5348,-2.5637,-2.5143,-2.4847,-2.4625,-2.3757,-2.3313,-2.3111,0.0,-2.1778,-2.1494,-2.1046,-2.0708,-2.0456,-2.0172,-2.0303,-2.0566,-2.0828,-2.1232,-2.168,-2.1909,-2.2291,-2.2684,-2.2684,-2.2826,-2.3001,-2.2852,-2.3001,-2.3169,-2.2527,-2.2589,-2.2674,-2.2376,-2.1921,-2.1547,-2.1394,-2.0597,-1.9868,-1.9769,-1.8921,-1.7948,-1.7273,-1.714,-1.7045,-1.6488,-1.6384,-1.6384,-1.6384,-1.6591,-1.6694,-1.6431,-1.6637,-1.6694,-1.6441,-1.6384,-1.6545,-1.6786,-1.7045,-1.7589,-1.8536,-1.8321,-1.8321,-1.859,-1.8255,-1.8093,-1.8093,-1.8093,-1.8093,-1.8093,-1.7479,-1.7368,-1.7644,-1.7112,-1.6842,-1.3056,-1.4036,-1.4969,-1.5918,0.0,-1.8164,0.0,0.0,0.0,0.0,0.0,0.0,0.0,-2.0289,0.0,-2.3223,-2.5279,-2.6517,-2.6086,-2.6778,-2.7379,-2.751,-2.7323,-2.6973,-2.6208,-2.6002,-2.5541,-2.485,-2.4178,-2.3828,-2.3817,-2.3323,-2.3001,-2.3001,-2.3549,-2.3549,-2.3001,-2.3549,-2.4113,-2.4763,-2.4272,-2.3746,-2.3115,-2.2798,-2.2226,-2.1592,-2.1712,-2.1483,-2.1035,-2.1035,-2.0817,-2.0412,-2.0412,-2.0708,-2.109,-2.1581,-2.1996,-2.2335,-2.2444,-2.2633,-2.2927,-2.315,-2.315,-2.3075,-2.2927,-2.299,-2.2977,-2.2459,-2.2485,-2.2329,-2.1274,-2.0992,-2.093,-2.0551,-2.0142,-1.9787,-1.9559,-1.8722,-1.7785,-1.7278,-1.7202,-1.7045,-1.6488,-1.6384,-1.6384,-1.6384,-1.6488,-1.6534,-1.6441,-1.6534,-1.6534,-1.6431,-1.6534,-1.6853,-1.7545,-1.7644,-1.8093,-1.9133,-1.8934,-1.8762,-1.8762,-1.8375,-1.8159,-1.8321,-1.8417,-1.8417,-1.8321,-1.7875,-1.782,-1.8093,-1.7644,-1.7313,-1.4023,-1.4878,-1.5389,-1.6035,0.0,0.0,0.0,0.0,0.0,0.0,0.0,0.0,0.0,-2.1901,-2.4073,-2.4726,-2.5876,-2.6661,-2.6621,0.0,-2.6935,-2.7471,-2.6905,-2.6208,-2.5453,-2.4684,-2.3999,-2.3191,-2.3095,-2.3095,-2.3097,-2.3012,-2.3001,-2.3001,-2.3012,-2.3012,-2.3001,-2.3012,-2.3097,-2.3161,-2.2677,-2.2457,-2.2385,-2.2352,-2.2089,-2.1614,-2.2062,-2.1985,-2.1538,-2.1538,-2.1516,-2.1483,-2.1483,-2.1505,-2.1592,-2.2084,-2.228,-2.2379,-2.2805,-2.282,-2.2852,-2.3593,-2.3677,-2.3519,-2.3519,-2.3863,-2.3975,-2.2499,-2.2341,-2.2603,-2.2633,-2.187,-2.1106,-2.1071,-2.0389,-1.9606,-1.8846,-1.7923,-1.7245,-1.7213,-1.7202,-1.7045,-1.6488,-1.6384,-1.6384,-1.6384,-1.6842,-1.6944,-1.6488,-1.6842,-1.6944,-1.6431,-1.6842,-1.7589,-1.8762,-1.8881,-1.9133,-1.9695,-1.8738,-1.8147,-1.8147,-1.8147,-1.8375,-1.8934,-1.9448,-1.9436,-1.8934,-1.8881,-1.859,-1.8093,-1.8038,-1.7754,-1.2546,-1.3788,-1.4877,-1.5747,0.0,0.0,0.0,0.0,0.0,0.0,0.0,0.0,0.0,0.0,-2.3629,-2.3529,-2.4858,-2.5803,-2.5472,-2.5844,-2.6138,-2.6263,-2.6337,-2.5918,-2.4707,-2.4247,-2.3773,-2.3054,-2.3001,-2.3001,-2.3001,-2.3001,-2.3001,-2.3001,-2.3001,-2.3001,-2.3001,-2.3001,-2.3001,-2.299,-2.2531,-2.2313,-2.2302,-2.2007,-2.1767,-2.1603,-2.1778,-2.1756,-2.1592,-2.1592,-2.1592,-2.1625,-2.192,-2.204,-2.2095,-2.2575,-2.2665,-2.254,-2.2723,-2.2703,-2.2628,-2.3446,-2.3677,-2.3666,-2.4009,-2.3985,-2.3732,-2.3017,-2.2522,-2.2124,-2.1981,-2.1547,-2.1123,-2.1123,-2.0354,-1.962,-1.9313,-1.8464,-1.7644,-1.7257,-1.7479,-1.76,-1.7,-1.6888,-1.6888,-1.6888,-1.6797,-1.6637,-1.6441,-1.6591,-1.6637,-1.6431,-1.6899,-1.7368,-1.7809,-1.8201,-1.8536,-1.8738,-1.8697,-1.8804,-1.9162,-1.8857,-1.8922,-1.95,-1.9344,-1.9186,-1.8987,-1.8602,-1.8536,-1.8655,-1.8655,-1.8321,-1.1826,-1.3144,-1.4588,0.0,0.0,0.0,0.0,0.0,0.0,0.0,0.0,0.0,0.0,0.0,0.0,0.0,-2.428,-2.4952,-2.4834,-2.5249,-2.5636,-2.5745,-2.5971,-2.5639,-2.4552,-2.4042,-2.3514,-2.3065,-2.3001,-2.3001,-2.3001,-2.3001,-2.3001,-2.3001,-2.3001,-2.3001,-2.3001,-2.3001,-2.3001,-2.3001,-2.2684,-2.2455,-2.2302,-2.1974,-2.1734,-2.1603,-2.1909,-2.1953,-2.1832,-2.1974,-2.2029,-2.2073,-2.2339,-2.2459,-2.2502,-2.2807,-2.2777,-2.2628,-2.2628,-2.2628,-2.2777,-2.3298,-2.3813,-2.4166,-2.4276,-2.4131,-2.3769,-2.3248,-2.2342,-2.1567,-2.1419,-2.1396,-2.133,-2.0928,-2.0349,-1.9796,-1.9401,-1.8521,-1.7699,-1.7257,-1.7379,-1.7446,-1.7,-1.6877,-1.6877,-1.6877,-1.6513,-1.6306,-1.6306,-1.6477,-1.6648,-1.6874,-1.7112,-1.7424,-1.7644,-1.782,-1.8038,-1.8255,-1.8709,-1.9133,-1.9552,-1.9028,-1.8975,-1.9552,-1.9198,-1.8934,-1.8709,-1.8632,-1.875,-1.8987,-1.8987,-1.8655,-1.233,-1.3309,-1.4655,0.0,0.0,0.0,0.0,0.0,0.0,0.0,0.0,0.0,-2.2732,0.0,0.0,-2.4707,-2.447,-2.4305,-2.4885,-2.5276,-2.5695,-2.6271,-2.5721,-2.5312,-2.5312,-2.3863,-2.3001,-2.3001,-2.3001,-2.3001,-2.3001,-2.3001,-2.3001,-2.3001,-2.3001,-2.3001,-2.3001,-2.3001,-2.3001,-2.3001,-2.3001,-2.2761,-2.2324,-2.2324,-2.2062,-2.1658,-2.2597,-2.2739,-2.2357,-2.2815,-2.3001,-2.3001,-2.2777,-2.2703,-2.2703,-2.2703,-2.2553,-2.2402,-2.2402,-2.2767,-2.3298,-2.3287,-2.4215,-2.5146,-2.4325,-2.4261,-2.4181,-2.2879,-2.1815,-2.1123,-2.1163,-2.1644,-2.1773,-2.0603,-2.0441,-2.0256,-1.9079,-1.7947,-1.7202,-1.7202,-1.6797,-1.6441,-1.6431,-1.6239,-1.6114,-1.6114,-1.6114,-1.6114,-1.6114,-1.6616,-1.7234,-1.7843,-1.7655,-1.7809,-1.8602,-1.7929,-1.7809,-1.8655,-1.875,-1.8869,-1.8987,-1.8429,-1.8375,-1.8987,-1.8987,-1.8709,-1.8093,-1.9214,-1.95,-1.8987,-1.8987,-1.8655,-1.1606,-1.27,0.0,0.0,0.0,0.0,0.0,0.0,0.0,0.0,0.0,-2.0807,-2.2647,0.0,0.0,-2.3409,-2.3244,-2.3089,-2.3367,-2.3606,-2.3851,-2.4015,-2.4271,-2.4276,-2.3717,-2.3287,-2.3001,-2.3001,-2.3001,-2.3001,-2.3001,-2.3001,-2.3001,-2.3001,-2.3001,-2.3001,-2.3001,-2.3001,-2.3001,-2.3001,-2.3001,-2.2936,-2.2794,-2.2794,-2.2717,-2.2597,-2.2881,-2.2925,-2.2805,-2.2798,-2.2777,-2.2777,-2.2703,-2.2703,-2.2703,-2.2703,-2.2478,-2.2252,-2.2852,-2.2476,-2.2049,-2.3615,-2.3793,-2.3546,-2.4316,-2.4091,-2.3329,-2.2579,-2.1898,-2.1158,-2.0288,-2.0899,-2.1576,-2.1244,-2.0564,-1.9793,-1.9055,-1.8681,-1.8201,-1.7368,-1.7435,-1.7556,-1.749,-1.7056,-1.6719,-1.6606,-1.6228,-1.6134,-1.6524,-1.6909,-1.719,-1.7412,-1.7022,-1.6751,-1.674,-1.7213,-1.7545,-1.7623,-1.8375,-1.9016,-1.954,-1.8963,-1.891,-1.9552,-1.8804,-1.8685,-1.9319,-1.9239,-1.9344,-1.9552,-1.9198,-1.8655,-1.1675,0.0,0.0,0.0,0.0,0.0,0.0,0.0,0.0,0.0,0.0,-2.0628,-2.2173,-2.1834,0.0,-2.2236,-2.2221,-2.2125,-2.2186,-2.2844,-2.3387,-2.3327,-2.3792,-2.3963,-2.3514,-2.3191,-2.3001,-2.3001,-2.3001,-2.3001,-2.3001,-2.3001,-2.3001,-2.3001,-2.3001,-2.3001,-2.3001,-2.3001,-2.3001,-2.3001,-2.3001,-2.3001,-2.3001,-2.3001,-2.3001,-2.3001,-2.2927,-2.2852,-2.2852,-2.2553,-2.2553,-2.2703,-2.2553,-2.2478,-2.2531,-2.2264,-2.1977,-2.1722,-2.2049,-2.1927,-2.1882,-2.2959,-2.3358,-2.3532,-2.3876,-2.3592,-2.2917,-2.2172,-2.1432,-2.065,-1.9849,-2.0091,-2.0551,-2.0717,-2.0244,-1.961,-1.9054,-1.876,-1.8429,-1.76,-1.76,-1.771,-1.749,-1.6944,-1.6503,-1.6368,-1.5999,-1.6066,-1.7022,-1.7301,-1.7346,-1.7224,-1.6694,-1.6327,-1.6087,-1.7335,-1.8147,-1.8201,-1.8333,-1.8762,-1.9617,-1.9121,-1.8898,-1.9044,-1.8632,-1.875,-1.9384,-1.9146,-1.9081,-1.9267,-1.8536,-1.7995,0.0,0.0,0.0,0.0,0.0,0.0,0.0,0.0,-1.879,-1.95,0.0,-2.0567,-2.1388,-2.0695,-2.0371,-2.1403,-2.1421,-2.1345,-2.1345,-2.2648,-2.3593,-2.3593,-2.3784,-2.4002,-2.3994,-2.3368,-2.3001,-2.3001,-2.3001,-2.3001,-2.3001,-2.3001,-2.3001,-2.3001,-2.3001,-2.3001,-2.3001,-2.3001,-2.2979,-2.2925,-2.2925,-2.2903,-2.287,-2.2957,-2.3001,-2.2927,-2.2777,-2.2628,-2.2628,-2.2252,-2.2306,-2.2563,-2.2188,-2.2081,-2.2147,-2.1565,-2.1199,-2.099,-2.0709,-2.1413,-2.2332,-2.1842,-2.2948,-2.429,-2.305,-2.2776,-2.2639,-2.1638,-2.0619,-1.9806,-1.9728,-1.9396,-1.916,-1.96,-1.9763,-1.9631,-1.9095,-1.859,-1.8201,-1.8007,-1.76,-1.7213,-1.6909,-1.6353,-1.5904,-1.569,-1.5633,-1.6036,-1.7324,-1.7667,-1.771,-1.7424,-1.674,-1.6316,-1.6316,-1.7952,-1.9198,-1.9708,-1.8548,-1.8302,-1.9316,-1.8922,-1.8525,-1.807,-1.8643,-1.8934,-1.8857,-1.8922,-1.8815,-1.8471,-1.7435,-1.6944,0.0,-1.2505,0.0,0.0,0.0,0.0,0.0,0.0,-1.8082,-1.8612,-1.9368,-2.0133,-2.0937,-2.0658,-2.0589,-2.1457,-2.1073,-2.0648,-2.0648,-2.1384,-2.1991,-2.2118,-2.2673,-2.3073,-2.3254,-2.3054,-2.3001,-2.3001,-2.3001,-2.3001,-2.3001,-2.3001,-2.3001,-2.3001,-2.3001,-2.3001,-2.3001,-2.3001,-2.2845,-2.2468,-2.2468,-2.2243,-2.192,-2.2663,-2.2927,-2.2777,-2.2553,-2.2402,-2.2252,-2.2111,-2.1955,-2.1702,-2.1555,-2.1335,-2.106,-2.0883,-2.0709,-2.0688,-2.1746,-2.1744,-2.1375,-2.2404,-2.2445,-2.2055,-2.1823,-2.1519,-2.1087,-2.0342,-1.9998,-1.9688,-1.9275,-1.9396,-1.9629,-1.9741,-1.9778,-1.9636,-1.8999,-1.9081,-1.9133,-1.856,-1.8387,-1.8061,-1.739,-1.6944,-1.6425,-1.5584,-1.6244,-1.6585,-1.5968,-1.7534,-1.8709,-1.8602,-1.6821,-1.5594,-1.5594,-1.771,-1.904,-1.9146,-1.9093,-1.9052,-1.9093,-1.8375,-1.8429,-1.921,-1.8881,-1.8881,-1.9251,-1.8804,-1.8578,-1.8471,-1.7379,-1.6832,0.0,0.0,0.0,0.0,0.0,0.0,0.0,-1.8382,-1.8102,-1.833,-1.8599,-1.8916,-1.9296,-1.9404,-1.9583,-1.9977,-2.0086,-2.0131,-2.0112,-2.0637,-2.1084,-2.1217,-2.1702,-2.2052,-2.2158,-2.2467,-2.2669,-2.2669,-2.2883,-2.3001,-2.3001,-2.2787,-2.2669,-2.2669,-2.2441,-2.2358,-2.2358,-2.2314,-2.2199,-2.1923,-2.1923,-2.1809,-2.1463,-2.1962,-2.2107,-2.2034,-2.1732,-2.1502,-2.1429,-2.1366,-2.122,-2.1072,-2.0928,-2.0843,-2.0673,-2.0393,-2.017,-2.0177,-2.0775,-2.0794,-2.0696,-2.156,-2.167,-2.1338,-2.1144,-2.0891,-2.0548,-1.9953,-1.9815,-1.9695,-1.9408,-1.95,-1.9708,-1.9604,-1.9448,-1.9279,-1.9174,-1.9133,-1.8975,-1.8548,-1.8278,-1.7941,-1.7157,-1.6528,-1.6026,-1.5468,-1.6922,-1.7424,-1.5633,-1.6472,-1.7257,-1.7257,-1.614,-1.5864,-1.7034,-1.8267,-1.8987,-1.8987,-1.9146,-1.9158,-1.8999,-1.8602,-1.8483,-1.8709,-1.8881,-1.8934,-1.8869,-1.8375,-1.7875,-1.7413,-1.6662,-1.6218,0.0,0.0,0.0,0.0,0.0,0.0,0.0,-1.8382,-1.8382,-1.8382,-1.8164,-1.7968,-1.7968,-1.8257,-1.8495,-1.8495,-1.9137,-1.9675,-1.971,-2.0182,-2.0566,-2.0555,-2.0978,-2.1209,-2.1261,-2.1784,-2.2123,-2.2126,-2.2552,-2.2776,-2.2776,-2.2371,-2.2199,-2.2193,-2.1789,-2.159,-2.1604,-2.1607,-2.1556,-2.1473,-2.1384,-2.1235,-2.1064,-2.0995,-2.1011,-2.1161,-2.0786,-2.0634,-2.0634,-2.0492,-2.045,-2.0519,-2.0377,-2.0326,-2.0352,-1.9837,-1.9781,-1.9792,-1.9564,-1.9823,-2.0335,-2.0519,-2.0839,-2.1131,-2.069,-2.0514,-2.0413,-1.9936,-1.9798,-1.9759,-1.9604,-1.9565,-1.9565,-1.942,-1.9146,-1.8975,-1.946,-1.9028,-1.8494,-1.8278,-1.7886,-1.7379,-1.709,-1.614,-1.541,-1.541,-1.709,-1.7655,-1.5633,-1.541,-1.541,-1.541,-1.541,-1.6197,-1.8213,-1.8762,-1.8827,-1.8375,-1.8375,-1.8375,-1.8375,-1.8762,-1.8709,-1.8038,-1.8869,-1.8987,-1.8278,-1.7831,-1.7146,-1.6312,-1.5826,-1.5546,0.0,0.0,0.0,0.0,0.0,0.0,0.0,0.0,-1.8382,0.0,-1.8651,-1.8889,-1.8889,-1.894,-1.8982,-1.8982,-1.9085,-1.9168,-1.9189,-1.9613,-1.9984,-2.0169,-2.0536,-2.0817,-2.1041,-2.1307,-2.1424,-2.1407,-2.1627,-2.1818,-2.1818,-2.1723,-2.1715,-2.1687,-2.1658,-2.1606,-2.1586,-2.1607,-2.1382,-2.0983,-2.0412,-2.0106,-2.0062,-1.973,-2.0028,-2.0776,-2.0563,-2.042,-2.042,-2.042,-2.0193,-1.992,-1.992,-1.9671,-1.9308,-1.9256,-1.9547,-2.0053,-2.0138,-2.0243,-2.0387,-2.0594,-2.0385,-2.0001,-1.993,-1.9911,-1.9899,-1.9823,-1.9708,-1.9604,-1.9617,-1.9512,-1.942,-1.942,-1.9275,-1.917,-1.9223,-1.8774,-1.8278,-1.8147,-1.7368,-1.7146,-1.8483,-1.6866,-1.541,-1.541,-1.569,-1.5748,-1.5468,-1.541,-1.541,-1.541,-1.541,-1.5517,-1.5864,-1.7809,-1.8093,-1.6026,-1.5853,-1.5853,-1.5853,-1.7875,-1.8934,-1.8827,-1.8987,-1.8762,-1.8159,-1.7534,-1.6922,-1.6312,-1.569,-1.541,0.0,0.0,0.0,0.0,0.0,0.0,0.0,0.0,-1.8382,-1.8382,-1.8744,-1.892,-1.8413,-1.8516,-1.8736,-1.8685,-1.8934,-1.9075,-1.9075,-1.925,-1.9435,-1.9523,-1.9796,-1.9951,-2.0029,-2.049,-2.0764,-2.0754,-2.1101,-2.1224,-2.1224,-2.1112,-2.1035,-2.1059,-2.085,-2.0938,-2.1323,-2.093,-2.0643,-2.0313,-1.9909,-1.9857,-2.0183,-1.9857,-1.9818,-1.9881,-1.9734,-1.9665,-1.9665,-1.9665,-1.9551,-1.9344,-1.9085,-1.9023,-1.9069,-1.8871,-1.9147,-1.9657,-1.9493,-1.9458,-1.9518,-1.9685,-1.9551,-1.9395,-1.9718,-1.9798,-1.9798,-1.9798,-1.9708,-1.9565,-1.9512,-1.9368,-1.9275,-1.921,-1.9158,-1.9117,-1.9117,-1.8881,-1.8548,-1.8038,-1.6866,-1.614,-1.6866,-1.6083,-1.541,-1.541,-1.541,-1.5911,-1.7257,-1.7424,-1.6922,-1.5517,-1.541,-1.541,-1.541,-1.6358,-1.6528,-1.5468,-1.6698,-1.7424,-1.7424,-1.8429,-1.8655,-1.7984,-1.8655,-1.8548,-1.7589,-1.7313,-1.6698,-1.5806,-1.5526,-1.541,0.0,0.0,0.0,0.0,0.0,0.0,0.0,0.0,-1.8216,0.0,-1.8485,-1.8557,-1.7999,-1.8257,-1.8601,-1.8593,-1.8861,-1.9075,-1.9075,-1.9075,-1.9075,-1.9075,-1.9162,-1.925,-1.925,-1.9719,-2.0028,-2.0019,-2.0446,-2.0654,-2.0654,-2.0457,-2.0347,-2.0445,-2.0118,-2.0237,-2.0778,-2.0226,-2.0009,-2.0064,-1.9857,-1.9987,-2.0355,-2.0161,-1.9911,-1.9473,-1.9396,-1.933,-1.933,-1.9198,-1.9198,-1.9288,-1.8757,-1.8895,-1.9302,-1.9037,-1.9317,-1.9691,-1.9315,-1.9103,-1.9022,-1.9143,-1.9107,-1.9093,-1.9656,-1.9798,-1.9747,-1.9656,-1.9552,-1.9512,-1.9263,-1.9158,-1.9117,-1.8999,-1.8987,-1.8934,-1.8815,-1.8709,-1.8483,-1.7754,-1.6415,-1.5575,-1.6197,-1.5806,-1.541,-1.541,-1.541,-1.6255,-1.8709,-1.8987,-1.8093,-1.5633,-1.541,-1.541,-1.541,-1.541,-1.5633,-1.6255,-1.7984,-1.8987,-1.8987,-1.8709,-1.8093,-1.7202,-1.8093,-1.8038,-1.6978,-1.6978,-1.6415,-1.541,-1.541,-1.541,0.0,0.0,0.0,0.0,0.0,0.0,0.0,0.0,-1.7771,-1.7771,-1.7781,-1.7916,-1.8278,-1.8723,-1.9034,-1.9023,-1.9054,-1.9075,-1.9075,-1.9075,-1.9075,-1.9075,-1.9142,-1.9142,-1.9142,-1.925,-1.9337,-1.9327,-1.9523,-1.9687,-1.9687,-1.9687,-1.9756,-1.9901,-1.9758,-1.9703,-1.9987,-1.9736,-1.9933,-2.0571,-2.0431,-2.0366,-2.0355,-2.0161,-2.0096,-2.0042,-2.0031,-2.0042,-1.9977,-1.933,-1.9452,-1.9966,-1.9299,-1.9497,-2.0031,-2.0041,-2.0429,-2.0946,-2.0419,-1.9915,-1.9552,-1.9634,-1.9353,-1.9093,-1.9656,-1.9798,-1.9695,-1.9198,-1.9198,-1.9316,-1.8774,-1.8827,-1.8999,-1.8987,-1.8987,-1.8815,-1.8267,-1.7984,-1.7754,-1.7313,-1.6255,-1.614,-1.8429,-1.6922,-1.541,-1.541,-1.541,-1.6255,-1.8709,-1.8987,-1.8093,-1.5633,-1.541,-1.541,-1.541,-1.541,-1.6368,-1.8655,-1.8934,-1.8987,-1.8987,-1.7929,-1.7257,-1.7202,-1.7257,-1.6978,-1.6368,-1.6368,-1.6026,-1.541,-1.541,-1.541,0.0,0.0,0.0,0.0,0.0,-1.4224,-1.4748,-1.5813,-1.6673,-1.6544,-1.7073,-1.7584,-1.7675,-1.8191,-1.8723,-1.9023,-1.9075,-1.9075,-1.9075,-1.9075,-1.9075,-1.9075,-1.9075,-1.9075,-1.9075,-1.9152,-1.9152,-1.9152,-1.9239,-1.925,-1.925,-1.9348,-1.9449,-1.9497,-1.9539,-1.9615,-1.9736,-2.0042,-2.0107,-1.9802,-1.9726,-1.9857,-2.0226,-2.0549,-2.0741,-2.0741,-2.1175,-2.1175,-2.0677,-2.0042,-1.9911,-2.0074,-1.9501,-1.963,-2.0084,-1.9834,-2.012,-2.0511,-1.9996,-1.9492,-1.916,-1.9618,-1.9432,-1.8987,-1.9056,-1.9423,-1.9643,-1.8869,-1.8697,-1.8815,-1.8999,-1.8999,-1.8881,-1.8483,-1.8321,-1.8213,-1.8093,-1.8375,-1.8536,-1.8375,-1.7984,-1.7479,-1.681,-1.5968,-1.5921,-1.7479,-1.7699,-1.8038,-1.8881,-1.7644,-1.6358,-1.5468,-1.541,-1.541,-1.541,-1.681,-1.7424,-1.6754,-1.8147,-1.8321,-1.6754,-1.6255,-1.6026,-1.6026,-1.6528,-1.6641,-1.6312,-1.6312,-1.5968,-1.541,-1.541,-1.541,-0.9045,0.0,0.0,0.0,0.0,-1.2898,-1.3809,-1.4797,-1.5532,-1.5649,-1.6252,-1.6819,-1.7063,-1.7471,-1.7965,-1.8489,-1.8736,-1.8793,-1.887,-1.8977,-1.9075,-1.9075,-1.9075,-1.9075,-1.9075,-1.9075,-1.9027,-1.8908,-1.8889,0.0,-1.864,-1.8716,-1.877,-1.8729,-1.9091,-1.9251,-1.9175,-1.9825,-1.9901,-1.9605,-1.9605,-1.9857,-2.042,-2.0869,-2.1123,-2.1123,-2.1553,-2.1616,-2.1365,-2.0741,-2.0549,-2.0696,-2.018,-2.031,-2.0715,-2.0537,-2.0635,-2.088,-2.0531,-1.9971,-1.9457,-1.9877,-1.9576,-1.8975,-1.878,-1.9044,-1.9267,-1.8244,-1.8321,-1.8709,-1.8881,-1.8815,-1.8602,-1.8213,-1.7929,-1.7929,-1.8321,-1.8709,-1.8987,-1.8987,-1.8375,-1.7257,-1.569,-1.6083,-1.7146,-1.8762,-1.8987,-1.8987,-1.8987,-1.6922,-1.541,-1.541,-1.541,-1.5748,-1.6528,-1.8093,-1.7984,-1.5526,-1.6922,-1.709,-1.5468,-1.541,-1.541,-1.541,-1.5911,-1.614,-1.6026,-1.6026,-1.5806,-1.541,-1.541,-1.541,0.0,0.0,0.0,0.0,0.0,0.0,-1.3587,0.0,-1.4297,-1.5097,-1.5235,-1.5507,-1.6386,-1.6557,-1.6769,-1.7322,-1.783,-1.8201,-1.8374,-1.8752,-1.9034,-1.9034,-1.9034,-1.9044,-1.9044,-1.9034,-1.8854,-1.8415,-1.8346,-1.8171,-1.7698,-1.7729,-1.7668,-1.7668,-1.8354,-1.8574,-1.8361,-1.8806,-1.942,-2.0063,-2.0074,-2.0398,-2.1037,-2.1037,-2.1037,-2.1037,-2.1037,-2.1467,-2.2027,-2.1365,-2.1491,-2.199,-2.1376,-2.1491,-2.2101,-2.2113,-2.2101,-2.2101,-2.2101,-2.138,-2.0517,-2.0517,-1.9809,-1.8934,-1.8727,-1.8738,-1.8578,-1.7534,-1.8159,-1.8999,-1.8267,-1.8093,-1.8093,-1.8038,-1.7929,-1.7984,-1.8762,-1.8987,-1.8987,-1.8987,-1.709,-1.5468,-1.5526,-1.7479,-1.8999,-1.8881,-1.8881,-1.8881,-1.8881,-1.6866,-1.541,-1.541,-1.5468,-1.6472,-1.8815,-1.8934,-1.7875,-1.5526,-1.541,-1.541,-1.541,-1.541,-1.541,-1.541,-1.541,-1.541,-1.541,-1.541,-1.541,-1.541,-1.541,-1.541,-0.8404,0.0,0.0,0.0,0.0,0.0,0.0,0.0,-1.2853,-1.3511,-1.4002,-1.4403,-1.4735,-1.5091,-1.5367,-1.5661,-1.6789,-1.7714,-1.7724,-1.7945,-1.8102,-1.8102,-1.8109,-1.8073,-1.8073,-1.8068,-1.8019,0.0,-1.7867,-1.786,-1.7714,-1.7698,-1.7668,-1.7668,-1.7854,-1.7916,-1.7916,-1.804,-1.8165,-1.8354,-1.8733,-1.8945,-1.9137,-1.9635,-1.9887,-1.9887,-2.0387,-2.0991,-2.156,-2.1214,-2.1187,-2.1376,-2.1187,-2.1491,-2.2051,-2.1565,-2.1678,-2.2101,-2.2101,-2.138,-2.0517,-2.055,-1.9761,-1.862,-1.7633,-1.7754,-1.8201,-1.7765,-1.7875,-1.8038,-1.7589,-1.7479,-1.7368,-1.709,-1.6978,-1.709,-1.7589,-1.8375,-1.8987,-1.8987,-1.7765,-1.6978,-1.7863,-1.8536,-1.8429,-1.6641,-1.6425,-1.6425,-1.6425,-1.5796,-1.541,-1.541,-1.6978,-1.8255,-1.8934,-1.7424,-1.6083,-1.5468,-1.541,-1.541,-1.541,-1.541,-1.541,-1.541,-1.541,-1.541,-1.541,-1.541,-1.541,-1.541,-1.541,-1.541,0.0,0.0,0.0,0.0,0.0,0.0,-1.1338,-1.1774,-1.2222,0.0,-1.3491,-1.3797,-1.4053,-1.4336,-1.4512,-1.4631,-1.5648,-1.6577,-1.7073,-1.7421,-1.7606,-1.7606,-1.7656,-1.7728,-1.7728,-1.7719,-1.7604,-1.7389,-1.7435,-1.7338,-1.7189,-1.7147,-1.7171,-1.7171,-1.7347,-1.7389,-1.7389,-1.7575,-1.7668,-1.7668,-1.7988,-1.8228,-1.8521,-1.8946,-1.9131,-1.9131,-1.9803,-1.9984,-1.9875,-2.0305,-2.0869,-2.1491,-2.1187,-2.1313,-2.1678,-2.1553,-2.1741,-2.2163,-2.2433,-2.1679,-2.055,-2.0583,-1.9459,-1.7961,-1.7379,-1.7545,-1.782,-1.7424,-1.7313,-1.7257,-1.6922,-1.6866,-1.6866,-1.6641,-1.6358,-1.6415,-1.7699,-1.7699,-1.7809,-1.8815,-1.7644,-1.6978,-1.8709,-1.8987,-1.8201,-1.5748,-1.541,-1.541,-1.541,-1.541,-1.5806,-1.681,-1.8147,-1.8987,-1.8987,-1.681,-1.541,-1.541,-1.541,-1.541,-1.541,-1.541,-1.541,-1.541,-1.541,-1.541,-1.541,-1.541,-1.541,-1.541,-1.541,-1.541,0.0,-1.0345,0.0,0.0,-1.1209,0.0,-1.2115,-1.2051,-1.2053,0.0,-1.3273,-1.34,-1.3769,-1.3926,-1.3994,-1.3994,-1.4513,-1.5282,-1.6286,-1.6911,-1.7328,-1.7328,-1.7451,-1.7513,-1.7513,-1.757,-1.7361,-1.6984,-1.6927,-1.6774,-1.6441,-1.6384,-1.6384,-1.6384,-1.6767,-1.6915,-1.6915,-1.7378,-1.7585,-1.7585,-1.7575,-1.7943,-1.8507,-1.8507,-1.8507,-1.8567,-1.9056,-1.8709,-1.7842,-1.8944,-2.0352,-2.1758,-2.11,-2.0923,-2.1095,-2.1525,-2.1749,-2.1945,-2.2504,-2.1709,-2.0373,-2.0316,-1.8839,-1.7146,-1.739,-1.7501,-1.7435,-1.6754,-1.6585,-1.6585,-1.6301,-1.6415,-1.6585,-1.6472,-1.5911,-1.5968,-1.8147,-1.6922,-1.6026,-1.8201,-1.6866,-1.6197,-1.8602,-1.8762,-1.7863,-1.5748,-1.541,-1.541,-1.541,-1.5633,-1.6641,-1.8762,-1.8762,-1.8602,-1.8602,-1.6641,-1.541,-1.541,-1.541,-1.541,-1.541,-1.541,-1.541,-1.541,-1.541,-1.541,-1.541,-1.541,-1.541,-1.541,-1.541,-1.541,-1.0736,-1.1313,-1.1644,-1.0723,-1.0971,0.0,-1.0791,-1.0876,-1.1245,0.0,-1.179,-1.193,-1.2283,-1.2895,-1.3362,-1.3362,-1.3967,-1.4661,-1.5253,-1.5826,-1.6234,-1.6234,-1.6331,-1.6437,-1.6437,-1.6533,-1.6618,-1.6508,-1.6503,-1.6462,-1.6384,-1.6384,-1.6384,-1.6384,-1.6467,-1.6508,-1.6508,-1.6601,-1.6643,-1.6653,-1.7005,-1.723,-1.734,-1.734,-1.734,-1.734,-1.7459,-1.7685,-1.8002,-1.8041,-1.8819,-1.9901,-1.9388,-1.9722,-2.0458,-1.967,-1.9715,-2.0216,-2.0181,-1.9715,-1.8965,-1.8402,-1.7499,-1.6549,-1.6228,-1.6332,-1.6528,-1.6425,-1.6698,-1.6866,-1.5864,-1.6083,-1.6415,-1.5806,-1.5517,-1.5517,-1.6026,-1.5748,-1.5526,-1.6026,-1.569,-1.6197,-1.8602,-1.7368,-1.5911,-1.5468,-1.541,-1.541,-1.541,-1.709,-1.8483,-1.8934,-1.7257,-1.6083,-1.6083,-1.569,-1.541,-1.541,-1.541,-1.541,-1.541,-1.541,-1.541,-1.541,-1.541,-1.541,-1.541,-1.541,-1.541,-1.541,-1.541,-1.541,-1.1807,-1.2254,-1.243,-1.1706,0.0,0.0,0.0,-1.1511,-1.1655,-1.2199,-1.1953,-1.1782,-1.2148,-1.2589,-1.2889,-1.2889,-1.3521,-1.4116,-1.4397,-1.4869,-1.5139,-1.5139,-1.5285,-1.533,-1.533,-1.545,-1.5608,-1.5833,-1.5854,-1.5956,-1.6239,-1.6249,-1.6306,-1.6384,-1.6384,-1.6384,-1.6384,-1.6384,-1.6384,-1.6384,-1.6601,-1.6715,-1.6715,-1.6715,-1.6715,-1.6715,-1.6964,-1.7137,-1.7284,-1.7403,-1.7765,-1.819,-1.819,-1.8574,-1.9004,-1.8692,-1.8846,-1.9205,-1.9361,-1.8845,-1.8085,-1.769,-1.6985,-1.6181,-1.6181,-1.6218,-1.6312,-1.6312,-1.6312,-1.614,-1.5584,-1.569,-1.5921,-1.5526,-1.541,-1.541,-1.541,-1.541,-1.541,-1.541,-1.6358,-1.7589,-1.8762,-1.6978,-1.541,-1.541,-1.541,-1.541,-1.541,-1.7479,-1.8987,-1.8987,-1.6866,-1.541,-1.541,-1.541,-1.541,-1.541,-1.541,-1.541,-1.541,-1.541,-1.541,-1.541,-1.541,-1.541,-1.541,-1.541,-1.541,-1.541,-1.541,-1.5245,-1.2593,-1.2731,-1.2711,-1.2766,0.0,-1.2828,0.0,0.0,0.0,-1.2929,-1.2458,-1.2085,0.0,0.0,0.0,-1.2519,0.0,0.0,0.0,-1.3821,0.0,-1.4397,-1.4523,-1.4566,-1.4609,-1.4528,-1.4669,-1.5113,-1.5127,-1.5269,-1.5772,-1.5883,-1.5991,-1.6182,-1.6265,-1.6316,-1.6316,-1.6374,-1.6384,-1.6384,-1.6384,-1.6384,-1.6384,-1.6384,-1.6384,-1.6431,-1.6832,-1.6729,-1.6363,-1.6775,-1.6895,-1.6835,-1.7265,-1.7461,-1.7585,-1.7896,-1.8044,-1.8044,-1.85,-1.8002,-1.7222,-1.7212,-1.6574,-1.5846,-1.6228,-1.6265,-1.614,-1.614,-1.5806,-1.541,-1.541,-1.541,-1.541,-1.541,-1.541,-1.541,-1.541,-1.541,-1.541,-1.541,-1.6978,-1.8321,-1.8321,-1.6698,-1.541,-1.541,-1.541,-1.541,-1.541,-1.709,-1.8321,-1.8321,-1.6585,-1.541,-1.541,-1.541,-1.541,-1.541,-1.541,-1.541,-1.541,-1.541,-1.541,-1.541,-1.541,-1.541,-1.541,-1.5303,-1.5303,-1.541,-1.5362,-1.5079,0.0,0.0,0.0,0.0,-1.2565,0.0,0.0,0.0,-1.2717,-1.2472,0.0,0.0,0.0,0.0,0.0,0.0,0.0,0.0,-1.2368,-1.2589,-1.322,-1.433,-1.4427,-1.447,-1.4609,-1.4348,-1.4307,-1.4649,-1.4419,-1.4399,-1.474,-1.5144,-1.5411,-1.5411,-1.591,-1.6114,-1.6114,-1.6306,-1.6384,-1.6384,-1.6384,-1.6384,-1.6384,-1.6384,-1.6384,-1.6374,-1.6296,-1.6171,-1.6114,-1.6077,-1.606,-1.6052,-1.6393,-1.6708,-1.6888,-1.6468,-1.6277,-1.6181,-1.6103,-1.6014,-1.5916,-1.5722,-1.5566,-1.5478,-1.5526,-1.5526,-1.5526,-1.5526,-1.5468,-1.541,-1.541,-1.541,-1.541,-1.541,-1.541,-1.541,-1.541,-1.541,-1.541,-1.541,-1.5633,-1.5806,-1.5806,-1.5575,-1.541,-1.541,-1.541,-1.541,-1.541,-1.5633,-1.5806,-1.5806,-1.5575,-1.541,-1.541,-1.541,-1.541,-1.541,-1.541,-1.541,-1.541,-1.541,-1.541,-1.541,-1.541,-1.541,-1.541,-1.4852,-1.4911,-1.541,-1.5137,-1.5029,0.0,0.0,0.0,0.0,0.0,0.0,-1.2298,0.0,-1.2574,0.0,0.0,0.0,0.0,0.0,0.0,0.0,-1.2333,0.0,0.0,0.0,-1.2388,-1.2939,0.0,0.0,-1.3302,-1.321,-1.3342,-1.3928,-1.3671,-1.3781,-1.443,-1.465,-1.4924,-1.5275,-1.5513,-1.5746,-1.5951,-1.6087,-1.6144,-1.6249,-1.6249,-1.6249,-1.6249,-1.6249,-1.6192,-1.6097,-1.6019,-1.5961,-1.5961,-1.5914,-1.5914,-1.5914,-1.6029,-1.6199,-1.6214,-1.5964,-1.5846,-1.574,-1.5604,-1.5546,-1.5536,-1.541,-1.541,-1.541,-1.541,-1.541,-1.541,-1.541,-1.541,-1.541,-1.541,-1.541,-1.541,-1.541,-1.541,-1.541,-1.541,-1.541,-1.541,-1.541,-1.541,-1.541,-1.541,-1.541,-1.541,-1.541,-1.541,-1.541,-1.541,-1.541,-1.541,-1.541,-1.541,-1.541,-1.541,-1.541,-1.5245,-1.4902,-1.5186,-1.541,-1.541,-1.541,-1.5245,-1.4902,-1.4911,-1.4911,-1.4911,-1.4625,-1.4625,-1.4911,-1.497,-1.4911,-1.141,0.0,0.0,0.0,0.0,0.0,0.0,0.0,0.0,0.0,0.0,0.0,0.0,0.0,0.0,0.0,0.0,-1.2086,0.0,-1.1736,0.0,0.0,0.0,0.0,0.0,-1.2178,-1.2421,-1.3145,-1.2898,-1.3095,-1.3925,-1.4083,-1.4334,-1.4804,-1.5044,-1.5335,-1.5666,-1.5796,-1.5961,-1.6066,-1.6066,-1.6066,-1.6066,-1.6066,-1.6019,-1.5914,-1.5856,-1.5856,-1.5856,-1.5798,-1.5788,-1.5788,-1.5788,-1.5788,-1.573,-1.574,-1.5672,-1.5604,-1.5478,-1.541,-1.541,-1.541,-1.541,-1.541,-1.541,-1.541,-1.541,-1.541,-1.541,-1.541,-1.541,-1.541,-1.541,-1.541,-1.541,-1.541,-1.541,-1.541,-1.541,-1.541,-1.541,-1.541,-1.541,-1.541,-1.541,-1.541,-1.541,-1.541,-1.541,-1.541,-1.541,-1.541,-1.5245,-1.5128,-1.5128,-1.5128,-1.502,-1.4734,-1.5186,-1.541,-1.541,-1.5245,-1.4961,-1.4506,-1.4515,-1.4515,-1.4515,-1.4515,-1.4515,-1.4515,-1.4743,-1.4743,0.0,0.0,0.0,-1.0643,0.0,0.0,0.0,0.0,-1.161,0.0,0.0,0.0,0.0,0.0,0.0,0.0,0.0,0.0,0.0,0.0,0.0,0.0,0.0,0.0,0.0,-1.161,-1.1731,0.0,-1.2099,-1.2238,-1.292,-1.3311,-1.3535,-1.3545,-1.4518,-1.5028,-1.5038,-1.5588,-1.5914,-1.5914,-1.5914,-1.5914,-1.5914,-1.5914,-1.5914,-1.5914,-1.574,-1.574,-1.5672,-1.5478,-1.541,-1.541,-1.541,-1.541,-1.542,-1.5614,-1.5604,-1.541,-1.541,-1.541,-1.541,-1.541,-1.541,-1.541,-1.541,-1.541,-1.541,-1.541,-1.541,-1.541,-1.541,-1.541,-1.541,-1.541,-1.541,-1.541,-1.541,-1.541,-1.541,-1.541,-1.541,-1.541,-1.541,-1.541,-1.541,-1.541,-1.541,-1.541,-1.541,-1.541,-1.541,-1.541,-1.4911,-1.4515,-1.4515,-1.4515,-1.4793,-1.5352,-1.541,-1.541,-1.541,-1.4852,-1.4515,-1.4515,-1.4515,-1.4515,-1.4515,-1.4515,-1.4515,-1.4515,-1.4506,-1.4556,0.0,0.0,-1.0257,-1.0073,0.0,0.0,0.0,0.0,0.0,0.0,0.0,0.0,0.0,0.0,0.0,0.0,0.0,0.0,0.0,0.0,0.0,0.0,0.0,0.0,0.0,0.0,0.0,-1.2351,-1.2014,0.0,-1.2832,-1.3018,-1.3223,-1.3496,-1.3841,-1.4263,-1.4841,-1.5044,-1.5385,-1.5798,-1.5798,-1.5798,-1.5798,-1.5798,-1.5672,-1.5594,-1.5536,-1.5478,-1.5478,-1.541,-1.541,-1.541,-1.541,-1.541,-1.541,-1.5478,-1.5478,-1.541,-1.541,-1.541,-1.541,-1.541,-1.541,-1.541,-1.541,-1.541,-1.541,-1.541,-1.541,-1.541,-1.541,-1.541,-1.541,-1.541,-1.541,-1.541,-1.541,-1.541,-1.541,-1.541,-1.541,-1.541,-1.541,-1.541,-1.541,-1.541,-1.541,-1.541,-1.541,-1.5079,-1.4793,-1.4793,-1.4625,-1.4515,-1.4515,-1.4515,-1.4565,-1.4793,-1.4793,-1.4793,-1.4793,-1.4625,-1.4515,-1.4515,-1.4515,-1.4515,-1.4515,-1.4515,-1.4515,-1.4515,-1.4515,-1.4506,-1.0038,-1.018,0.0,-1.0064,-1.0066,0.0,-1.0483,0.0,-1.0713,0.0,0.0,0.0,0.0,0.0,0.0,0.0,0.0,0.0,0.0,-0.9649,0.0,0.0,0.0,0.0,0.0,0.0,-1.1478,-1.1895,-1.1792,0.0,0.0,-1.2803,-1.3008,-1.3271,-1.3428,-1.3769,-1.4326,-1.4639,-1.4988,-1.5387,-1.5535,-1.5604,-1.5604,-1.5604,-1.5536,-1.541,-1.541,-1.541,-1.541,-1.541,-1.541,-1.541,-1.541,-1.541,-1.541,-1.541,-1.541,-1.541,-1.541,-1.541,-1.541,-1.541,-1.541,-1.541,-1.541,-1.541,-1.541,-1.541,-1.541,-1.541,-1.541,-1.541,-1.541,-1.541,-1.541,-1.541,-1.541,-1.541,-1.541,-1.541,-1.541,-1.5352,-1.5245,-1.5245,-1.5303,-1.541,-1.541,-1.5294,-1.5128,-1.4734,-1.4515,-1.4515,-1.4515,-1.4515,-1.4515,-1.4515,-1.4515,-1.4515,-1.4515,-1.4515,-1.4515,-1.4515,-1.4515,-1.4515,-1.4515,-1.4515,-1.4515,-1.4515,-1.4515,-1.4515,-1.4515,-1.4515]}]]